GFSNE_850_dewp_000.txt.gz
Dewpoint
-23 -22 -21 -19 -18 -18 -17 -17 -12 -9 -9 -10 -11 -10 -9 -10 -11 -11 -10 -10 -9 -8 -8 -8 -7 -6 -6 -6 -5 -6 -4 -4 -4 -4 -5 -5 -3 -2
-20 -19 -18 -16 -15 -17 -18 -17 -13 -11 -9 -10 -9 -9 -10 -10 -10 -10 -9 -8 -8 -8 -8 -9 -9 -8 -6 -7 -6 -5 -5 -8 -7 -6 -6 -6 -5 -3
-19 -16 -14 -13 -14 -16 -14 -10 -9 -9 -8 -9 -9 -10 -9 -10 -10 -8 -8 -9 -8 -10 -10 -9 -8 -8 -7 -7 -8 -8 -8 -7 -7 -6 -6 -5 -5 -5
-15 -12 -12 -12 -14 -14 -11 -9 -8 -8 -8 -7 -9 -9 -10 -9 -7 -8 -11 -12 -11 -11 -10 -9 -10 -10 -10 -9 -9 -8 -6 -5 -6 -6 -6 -5 -4 -3
-12 -11 -12 -12 -13 -12 -10 -9 -7 -7 -8 -8 -9 -9 -10 -7 -8 -12 -12 -12 -14 -13 -10 -10 -9 -9 -8 -7 -6 -7 -8 -8 -8 -7 -7 -7 -6 -6
-12 -12 -12 -12 -12 -9 -9 -8 -9 -11 -10 -9 -7 -9 -7 -9 -10 -11 -12 -12 -12 -10 -9 -9 -9 -9 -8 -9 -9 -9 -8 -8 -8 -7 -7 -6 -5 -5
-13 -12 -11 -11 -10 -9 -9 -9 -8 -8 -7 -7 -9 -8 -8 -11 -11 -11 -10 -11 -10 -9 -11 -12 -10 -10 -11 -11 -10 -9 -8 -7 -7 -6 -6 -6 -5 -4
-12 -11 -11 -11 -10 -9 -9 -9 -8 -8 -8 -8 -8 -10 -10 -10 -11 -10 -9 -9 -11 -12 -11 -10 -10 -11 -11 -11 -10 -9 -9 -8 -7 -8 -7 -6 -5 -5
-11 -11 -10 -10 -10 -11 -11 -8 -8 -8 -8 -9 -11 -11 -10 -10 -9 -10 -10 -10 -10 -11 -11 -10 -11 -10 -12 -12 -10 -9 -9 -8 -8 -7 -7 -6 -6 -5
-11 -11 -10 -11 -13 -10 -9 -8 -8 -11 -14 -12 -10 -10 -10 -10 -11 -10 -11 -10 -11 -12 -11 -11 -11 -12 -12 -12 -12 -12 -9 -8 -8 -7 -7 -6 -6 -5
-12 -12 -11 -14 -10 -9 -8 -9 -10 -12 -14 -10 -10 -11 -12 -11 -11 -11 -11 -11 -11 -12 -13 -11 -12 -11 -11 -11 -13 -12 -9 -8 -8 -8 -7 -7 -7 -6
-11 -10 -12 -10 -9 -9 -9 -10 -12 -12 -10 -11 -13 -15 -14 -13 -11 -11 -12 -12 -11 -11 -13 -11 -11 -10 -10 -11 -11 -11 -11 -11 -8 -8 -8 -7 -7 -7
-9 -10 -11 -9 -9 -10 -11 -12 -11 -10 -11 -13 -14 -13 -12 -12 -12 -11 -11 -11 -12 -11 -12 -10 -10 -10 -10 -10 -10 -11 -12 -12 -10 -7 -6 -6 -6 -7
-9 -11 -10 -9 -11 -11 -12 -11 -11 -11 -13 -13 -12 -12 -12 -12 -11 -11 -11 -11 -11 -11 -10 -10 -10 -10 -10 -10 -10 -12 -12 -10 -8 -6 -6 -5 -5 -6
-10 -9 -10 -11 -12 -14 -13 -11 -11 -13 -13 -12 -12 -12 -11 -11 -11 -11 -12 -11 -11 -11 -10 -10 -10 -10 -10 -11 -10 -11 -10 -8 -6 -6 -5 -4 -4 -3
-10 -10 -12 -14 -14 -13 -14 -13 -13 -12 -12 -12 -12 -12 -11 -11 -11 -11 -11 -11 -11 -11 -11 -10 -10 -10 -10 -9 -10 -10 -8 -9 -6 -5 -4 -4 -3 -2
-10 -12 -15 -14 -15 -14 -13 -13 -13 -12 -12 -12 -12 -11 -11 -11 -11 -11 -11 -11 -10 -10 -10 -10 -10 -9 -9 -9 -8 -8 -7 -6 -5 -4 -4 -4 -3 -2
-12 -14 -13 -13 -13 -13 -13 -13 -13 -13 -12 -12 -11 -11 -11 -10 -10 -10 -10 -10 -10 -10 -10 -10 -9 -9 -8 -8 -8 -7 -6 -5 -5 -4 -5 -5 -4 -2
-14 -13 -13 -13 -13 -13 -13 -12 -13 -12 -12 -12 -11 -10 -10 -10 -10 -10 -10 -10 -10 -10 -9 -9 -9 -9 -9 -9 -7 -6 -5 -4 -4 -4 -4 -4 -5 -5
-13 -13 -13 -13 -13 -12 -12 -12 -12 -12 -11 -11 -10 -9 -10 -10 -10 -10 -10 -10 -10 -10 -9 -9 -9 -8 -8 -8 -8 -6 -5 -4 -4 -4 -4 -4 -4 -4
-14 -14 -14 -13 -12 -12 -12 -12 -12 -11 -11 -10 -9 -9 -9 -9 -9 -9 -10 -10 -10 -10 -9 -9 -8 -8 -7 -6 -6 -6 -5 -4 -4 -4 -4 -4 -4 -4
-14 -14 -14 -12 -11 -11 -11 -11 -11 -10 -10 -9 -9 -8 -8 -9 -9 -9 -9 -9 -9 -9 -9 -9 -8 -7 -7 -6 -6 -5 -5 -4 -4 -4 -4 -4 -4 -5
-14 -14 -12 -11 -11 -11 -11 -10 -10 -10 -9 -8 -8 -8 -8 -8 -9 -9 -9 -9 -9 -10 -9 -9 -8 -7 -7 -7 -6 -6 -6 -6 -6 -5 -5 -4 -4 -4

GFSNE_850_dewp_003.txt.gz
Dewpoint
-20 -20 -20 -18 -17 -16 -17 -17 -13 -9 -9 -10 -9 -9 -9 -9 -9 -9 -9 -10 -9 -8 -7 -7 -7 -6 -7 -7 -7 -7 -6 -3 -3 -3 -2 -3 -3 -2
-20 -20 -19 -17 -16 -16 -16 -16 -13 -9 -7 -10 -8 -8 -8 -8 -10 -10 -10 -8 -8 -7 -8 -8 -9 -9 -8 -8 -7 -5 -4 -4 -4 -4 -3 -3 -5 -4
-20 -18 -17 -15 -15 -15 -14 -15 -11 -9 -8 -10 -9 -10 -11 -11 -9 -9 -8 -7 -9 -9 -10 -10 -10 -10 -8 -7 -6 -6 -6 -5 -6 -7 -6 -5 -5 -4
-18 -17 -16 -14 -13 -12 -13 -13 -11 -9 -7 -8 -10 -11 -11 -9 -12 -12 -7 -12 -12 -12 -11 -11 -10 -9 -8 -7 -7 -6 -7 -6 -6 -5 -5 -5 -4 -4
-16 -15 -15 -13 -12 -11 -10 -10 -9 -8 -8 -9 -9 -10 -8 -10 -9 -8 -13 -13 -13 -12 -12 -10 -9 -9 -9 -9 -8 -7 -6 -7 -7 -6 -6 -6 -6 -6
-16 -14 -13 -11 -11 -9 -9 -9 -8 -9 -9 -9 -8 -8 -9 -9 -10 -11 -13 -11 -11 -12 -10 -10 -10 -11 -10 -9 -9 -9 -9 -9 -8 -8 -7 -7 -7 -6
-15 -14 -13 -12 -10 -9 -9 -9 -10 -9 -8 -8 -8 -8 -10 -11 -12 -12 -10 -10 -10 -11 -11 -11 -11 -11 -11 -11 -11 -10 -9 -9 -8 -7 -7 -6 -6 -5
-17 -17 -15 -14 -14 -11 -10 -10 -9 -8 -8 -8 -9 -10 -14 -11 -10 -9 -10 -10 -11 -11 -11 -11 -11 -12 -13 -13 -11 -9 -9 -9 -8 -8 -8 -7 -6 -6
-15 -15 -14 -13 -13 -13 -12 -9 -8 -8 -9 -10 -11 -11 -10 -10 -10 -10 -10 -10 -10 -11 -11 -11 -13 -13 -14 -13 -11 -9 -9 -9 -8 -8 -7 -7 -6 -6
-13 -13 -12 -11 -12 -9 -8 -9 -11 -12 -13 -13 -10 -10 -10 -10 -10 -10 -11 -11 -11 -12 -11 -11 -12 -12 -12 -12 -13 -12 -9 -8 -8 -8 -7 -7 -6 -6
-12 -11 -10 -9 -10 -8 -9 -10 -11 -13 -14 -11 -10 -10 -11 -11 -11 -11 -11 -11 -11 -11 -12 -11 -12 -11 -11 -11 -12 -11 -9 -9 -9 -8 -8 -8 -7 -6
-9 -10 -11 -9 -9 -9 -10 -10 -11 -13 -10 -10 -13 -14 -14 -13 -11 -11 -11 -12 -11 -12 -12 -12 -11 -11 -10 -11 -11 -11 -11 -11 -9 -9 -9 -8 -7 -7
-10 -10 -10 -10 -10 -10 -11 -11 -11 -10 -11 -13 -13 -13 -12 -12 -12 -11 -11 -11 -12 -12 -12 -11 -11 -11 -11 -10 -11 -11 -11 -10 -10 -8 -7 -7 -6 -7
-9 -10 -10 -10 -10 -11 -12 -11 -10 -11 -13 -13 -12 -12 -12 -12 -12 -11 -11 -11 -11 -11 -10 -10 -11 -10 -10 -10 -10 -11 -10 -9 -8 -6 -6 -6 -6 -6
-10 -10 -11 -11 -13 -15 -13 -11 -12 -13 -12 -12 -12 -12 -11 -11 -11 -11 -11 -11 -11 -11 -10 -10 -10 -10 -10 -10 -10 -9 -8 -8 -6 -6 -5 -5 -5 -5
-10 -10 -12 -15 -16 -14 -14 -13 -13 -12 -12 -12 -12 -12 -11 -11 -11 -10 -10 -11 -11 -11 -11 -10 -9 -9 -9 -9 -8 -8 -7 -9 -6 -5 -5 -5 -5 -4
-11 -12 -15 -15 -15 -14 -13 -13 -13 -12 -12 -12 -12 -11 -11 -11 -10 -10 -10 -10 -11 -10 -10 -10 -9 -8 -7 -7 -7 -7 -6 -5 -5 -4 -5 -5 -5 -4
-12 -15 -15 -15 -14 -13 -12 -12 -12 -12 -12 -11 -11 -10 -10 -10 -10 -10 -10 -10 -10 -10 -10 -9 -9 -9 -8 -7 -7 -7 -6 -5 -4 -4 -5 -5 -5 -4
-14 -14 -14 -15 -13 -12 -12 -12 -12 -12 -11 -11 -10 -10 -10 -10 -10 -10 -10 -10 -10 -10 -9 -9 -8 -8 -8 -8 -6 -6 -5 -5 -4 -4 -4 -5 -5 -5
-14 -14 -15 -14 -12 -12 -12 -11 -11 -11 -10 -10 -10 -9 -9 -9 -9 -9 -9 -10 -10 -10 -9 -8 -8 -8 -7 -7 -7 -5 -5 -5 -4 -4 -4 -5 -5 -5
-14 -15 -14 -12 -12 -11 -11 -11 -11 -10 -10 -9 -9 -9 -9 -9 -9 -9 -9 -9 -9 -9 -9 -9 -8 -7 -6 -6 -6 -5 -5 -5 -5 -5 -5 -5 -5 -5
-14 -15 -13 -12 -11 -11 -11 -11 -10 -10 -9 -8 -8 -8 -8 -8 -8 -9 -9 -9 -9 -9 -9 -8 -8 -7 -7 -6 -6 -6 -5 -5 -5 -5 -5 -5 -6 -6
-15 -14 -12 -11 -11 -11 -10 -10 -9 -9 -8 -8 -8 -8 -8 -8 -8 -8 -8 -8 -9 -9 -10 -8 -8 -8 -7 -7 -7 -6 -6 -5 -5 -5 -5 -5 -5 -5

GFSNE_850_dewp_006.txt.gz
Dewpoint
-18 -18 -19 -18 -18 -17 -16 -15 -14 -11 -12 -11 -10 -11 -10 -10 -10 -10 -10 -10 -9 -8 -8 -7 -6 -7 -7 -7 -7 -7 -7 -6 -6 -6 -4 -3 -4 -2
-17 -17 -18 -18 -17 -16 -15 -14 -13 -13 -9 -12 -12 -10 -10 -12 -12 -10 -10 -9 -9 -8 -7 -8 -9 -10 -9 -9 -8 -8 -7 -5 -5 -4 -4 -3 -3 -2
-16 -17 -17 -17 -17 -15 -13 -12 -11 -11 -10 -12 -11 -11 -12 -13 -11 -10 -9 -8 -8 -8 -9 -10 -10 -10 -9 -9 -8 -7 -6 -6 -5 -5 -5 -5 -4 -3
-16 -17 -18 -16 -15 -14 -11 -10 -9 -10 -9 -9 -10 -12 -13 -11 -10 -11 -10 -10 -12 -12 -11 -10 -10 -10 -9 -8 -7 -7 -7 -7 -6 -6 -6 -5 -4 -4
-17 -18 -17 -17 -15 -13 -11 -10 -9 -8 -8 -9 -10 -11 -10 -9 -9 -10 -12 -12 -12 -11 -11 -11 -10 -9 -9 -9 -9 -8 -7 -7 -7 -7 -6 -6 -6 -5
-18 -20 -20 -18 -16 -11 -10 -9 -9 -10 -11 -10 -9 -9 -8 -9 -11 -12 -12 -11 -10 -10 -11 -10 -10 -10 -10 -10 -9 -9 -9 -9 -9 -9 -8 -7 -7 -6
-18 -19 -17 -16 -14 -10 -9 -10 -10 -9 -8 -8 -9 -9 -10 -11 -12 -12 -10 -10 -10 -10 -11 -11 -11 -11 -11 -11 -12 -10 -10 -9 -9 -8 -8 -7 -7 -7
-16 -14 -14 -13 -13 -12 -13 -9 -8 -8 -9 -10 -9 -10 -11 -12 -11 -10 -10 -10 -11 -11 -11 -11 -11 -11 -12 -13 -12 -10 -9 -9 -9 -8 -8 -8 -7 -7
-13 -12 -12 -12 -13 -12 -11 -9 -8 -10 -10 -11 -12 -11 -10 -10 -10 -11 -10 -11 -11 -11 -11 -12 -13 -13 -13 -14 -13 -10 -9 -9 -9 -8 -8 -8 -8 -7
-11 -11 -10 -12 -11 -9 -8 -8 -11 -12 -13 -13 -11 -10 -10 -10 -10 -10 -11 -11 -11 -12 -11 -11 -12 -12 -12 -12 -13 -11 -10 -9 -9 -8 -8 -7 -7 -7
-11 -10 -11 -10 -10 -8 -9 -9 -10 -13 -14 -11 -10 -11 -12 -12 -11 -11 -11 -11 -11 -12 -12 -11 -12 -11 -12 -12 -12 -11 -10 -9 -9 -8 -8 -8 -8 -7
-9 -10 -11 -9 -9 -9 -9 -10 -11 -13 -10 -11 -13 -13 -13 -13 -12 -11 -11 -12 -12 -12 -12 -11 -12 -11 -11 -11 -12 -12 -12 -11 -9 -8 -8 -8 -8 -8
-10 -10 -11 -10 -9 -10 -11 -11 -12 -10 -11 -13 -13 -13 -13 -12 -11 -11 -11 -11 -11 -11 -12 -11 -11 -11 -11 -11 -11 -11 -9 -8 -8 -7 -7 -6 -6 -7
-10 -11 -10 -10 -10 -11 -12 -11 -11 -11 -13 -13 -13 -12 -12 -11 -11 -11 -11 -11 -10 -11 -10 -10 -11 -10 -10 -10 -10 -10 -8 -7 -7 -6 -6 -6 -6 -6
-10 -10 -12 -11 -15 -16 -14 -12 -12 -13 -12 -12 -12 -12 -11 -11 -11 -10 -11 -11 -11 -10 -10 -10 -10 -9 -9 -10 -9 -8 -7 -8 -6 -5 -5 -5 -5 -5
-10 -11 -13 -15 -16 -14 -13 -13 -13 -12 -12 -12 -11 -11 -10 -10 -10 -10 -10 -10 -10 -11 -10 -9 -9 -8 -8 -7 -7 -7 -7 -8 -5 -5 -5 -5 -5 -5
-11 -13 -15 -16 -15 -13 -13 -12 -12 -12 -11 -11 -11 -10 -10 -10 -10 -10 -10 -10 -10 -10 -10 -9 -9 -7 -6 -6 -6 -6 -6 -6 -5 -5 -5 -5 -5 -5
-13 -15 -15 -16 -14 -12 -12 -12 -12 -11 -11 -10 -10 -10 -10 -10 -10 -9 -9 -10 -10 -10 -9 -8 -8 -8 -9 -8 -6 -6 -6 -6 -5 -5 -5 -5 -5 -4
-15 -15 -15 -14 -13 -12 -12 -11 -11 -11 -10 -10 -10 -9 -10 -9 -9 -9 -9 -9 -10 -10 -9 -8 -8 -8 -8 -8 -8 -5 -6 -6 -6 -6 -5 -5 -5 -4
-15 -15 -15 -13 -12 -11 -11 -11 -11 -10 -10 -10 -9 -9 -9 -9 -9 -9 -9 -9 -10 -9 -9 -9 -8 -8 -8 -7 -7 -5 -5 -6 -6 -6 -6 -6 -5 -3
-15 -15 -15 -12 -11 -11 -11 -10 -10 -10 -9 -9 -8 -9 -9 -9 -9 -8 -8 -9 -9 -9 -9 -9 -8 -7 -7 -7 -7 -6 -5 -5 -5 -6 -6 -6 -5 -4
-15 -15 -13 -12 -11 -11 -10 -10 -9 -9 -8 -8 -8 -8 -8 -8 -8 -8 -8 -8 -9 -9 -9 -9 -8 -8 -8 -7 -7 -6 -5 -5 -5 -5 -5 -6 -6 -6
-15 -15 -12 -11 -11 -10 -10 -9 -9 -8 -8 -8 -8 -8 -8 -8 -8 -8 -7 -8 -8 -9 -9 -9 -9 -8 -8 -8 -7 -7 -6 -5 -5 -5 -5 -5 -5 -5

GFSNE_850_dewp_012.txt.gz
Dewpoint
-15 -14 -13 -13 -14 -13 -11 -11 -11 -12 -13 -14 -14 -13 -11 -10 -10 -9 -9 -9 -9 -8 -7 -7 -7 -7 -7 -6 -6 -6 -6 -5 -5 -5 -6 -5 -5 -4
-14 -14 -14 -14 -15 -15 -12 -11 -11 -11 -11 -13 -12 -12 -11 -10 -10 -9 -9 -9 -9 -8 -8 -8 -8 -8 -7 -8 -7 -8 -7 -7 -6 -6 -6 -5 -4 -4
-14 -14 -15 -17 -18 -14 -12 -12 -11 -11 -11 -12 -11 -10 -10 -10 -10 -9 -9 -9 -9 -9 -9 -9 -9 -8 -8 -7 -7 -7 -7 -7 -7 -6 -6 -6 -5 -4
-14 -15 -17 -16 -18 -14 -12 -12 -11 -10 -10 -10 -10 -10 -10 -9 -8 -9 -10 -11 -12 -12 -11 -9 -8 -8 -8 -7 -7 -7 -7 -7 -6 -7 -6 -6 -5 -5
-15 -17 -17 -17 -15 -13 -12 -10 -9 -9 -9 -9 -10 -10 -8 -8 -9 -10 -11 -12 -11 -11 -10 -10 -9 -8 -8 -8 -7 -7 -8 -7 -7 -7 -7 -7 -7 -6
-16 -16 -14 -14 -11 -10 -9 -9 -10 -9 -10 -10 -9 -7 -8 -9 -11 -12 -12 -11 -10 -10 -10 -9 -9 -9 -9 -9 -8 -8 -8 -8 -8 -8 -8 -7 -7 -7
-13 -11 -11 -12 -15 -11 -8 -9 -9 -9 -9 -9 -7 -8 -9 -11 -12 -12 -10 -10 -10 -10 -10 -10 -10 -10 -10 -9 -9 -9 -9 -9 -8 -8 -8 -8 -7 -7
-11 -12 -11 -9 -9 -8 -9 -9 -9 -8 -8 -8 -8 -9 -12 -12 -11 -10 -9 -9 -10 -10 -10 -10 -10 -10 -10 -10 -10 -9 -9 -8 -8 -8 -8 -8 -7 -7
-11 -10 -9 -10 -9 -9 -9 -9 -9 -8 -8 -9 -10 -12 -11 -10 -11 -10 -10 -10 -10 -11 -9 -10 -10 -10 -10 -10 -10 -9 -8 -8 -8 -8 -8 -8 -8 -7
-9 -9 -9 -9 -9 -9 -9 -9 -8 -10 -11 -11 -11 -10 -10 -10 -10 -10 -10 -11 -10 -10 -10 -10 -11 -10 -10 -11 -11 -10 -8 -8 -8 -8 -8 -7 -7 -7
-10 -10 -9 -9 -9 -9 -9 -9 -10 -11 -11 -11 -9 -9 -9 -10 -10 -10 -11 -10 -10 -10 -10 -10 -10 -10 -11 -11 -11 -10 -9 -8 -7 -7 -7 -8 -7 -7
-10 -10 -10 -9 -10 -9 -9 -10 -11 -11 -11 -10 -10 -11 -11 -10 -10 -10 -10 -11 -11 -11 -11 -10 -10 -10 -10 -10 -10 -10 -9 -8 -6 -6 -6 -6 -7 -7
-10 -10 -10 -10 -9 -10 -10 -11 -11 -10 -10 -10 -11 -11 -11 -10 -10 -10 -10 -10 -11 -11 -10 -10 -11 -10 -10 -10 -10 -9 -8 -7 -6 -6 -6 -6 -6 -6
-9 -10 -10 -10 -10 -11 -11 -11 -10 -11 -11 -11 -11 -10 -10 -10 -10 -10 -10 -10 -10 -10 -9 -9 -11 -10 -10 -10 -9 -9 -8 -8 -7 -6 -6 -6 -7 -6
-10 -10 -10 -10 -13 -16 -13 -12 -11 -11 -11 -11 -11 -11 -10 -10 -10 -10 -10 -10 -10 -10 -10 -10 -9 -9 -10 -10 -9 -8 -7 -7 -7 -6 -6 -6 -6 -6
-10 -10 -11 -13 -12 -12 -12 -11 -11 -11 -11 -11 -12 -11 -10 -10 -10 -10 -10 -10 -10 -10 -10 -10 -9 -9 -9 -8 -8 -8 -8 -7 -6 -6 -6 -6 -6 -6
-11 -11 -13 -13 -13 -12 -11 -11 -11 -11 -11 -11 -10 -10 -10 -10 -10 -10 -9 -9 -10 -9 -10 -10 -9 -8 -8 -8 -8 -9 -7 -6 -6 -6 -6 -6 -6 -5
-12 -13 -13 -12 -12 -12 -12 -11 -11 -10 -10 -9 -9 -9 -10 -10 -10 -9 -9 -9 -9 -9 -9 -9 -9 -8 -8 -9 -7 -7 -7 -7 -6 -6 -6 -6 -6 -5
-13 -13 -12 -12 -12 -12 -12 -11 -10 -10 -9 -9 -9 -9 -10 -10 -10 -9 -9 -9 -9 -9 -9 -9 -8 -8 -8 -8 -10 -10 -8 -7 -6 -6 -6 -6 -6 -5
-14 -13 -13 -13 -12 -11 -11 -10 -10 -9 -9 -9 -9 -9 -9 -9 -9 -9 -9 -8 -9 -9 -9 -9 -8 -8 -8 -8 -8 -10 -10 -7 -6 -6 -6 -6 -6 -5
-14 -13 -13 -13 -11 -11 -10 -10 -10 -9 -9 -9 -9 -9 -8 -9 -9 -9 -8 -8 -9 -9 -9 -9 -9 -8 -8 -8 -7 -7 -10 -7 -6 -6 -6 -6 -6 -6
-14 -14 -15 -12 -11 -10 -10 -10 -9 -9 -8 -8 -8 -8 -8 -8 -8 -8 -8 -8 -8 -9 -9 -8 -9 -8 -8 -8 -8 -7 -7 -7 -7 -6 -6 -6 -6 -6
-15 -16 -14 -11 -10 -10 -10 -9 -9 -8 -8 -8 -8 -8 -8 -8 -8 -8 -8 -8 -8 -8 -8 -8 -8 -7 -8 -7 -7 -7 -7 -7 -7 -7 -6 -5 -4 -4

GFSNE_850_dewp_015.txt.gz
Dewpoint
-14 -13 -13 -13 -12 -12 -11 -11 -10 -9 -10 -12 -13 -13 -13 -12 -11 -10 -10 -9 -8 -8 -7 -7 -7 -7 -7 -7 -6 -6 -5 -6 -5 -5 -5 -5 -4 -3
-13 -14 -14 -13 -13 -13 -13 -11 -11 -11 -10 -11 -11 -11 -11 -11 -10 -10 -10 -9 -8 -9 -8 -8 -8 -8 -7 -7 -7 -6 -6 -6 -5 -5 -4 -4 -4 -4
-14 -14 -14 -13 -14 -14 -15 -13 -12 -11 -11 -11 -10 -10 -10 -10 -10 -9 -8 -10 -10 -10 -10 -9 -9 -8 -7 -7 -6 -6 -6 -6 -5 -5 -5 -5 -5 -4
-15 -13 -12 -11 -13 -14 -13 -12 -12 -11 -10 -9 -9 -9 -9 -10 -9 -8 -9 -10 -11 -12 -10 -9 -8 -8 -8 -7 -7 -6 -6 -6 -6 -6 -6 -5 -5 -5
-12 -11 -11 -12 -12 -12 -11 -11 -10 -9 -9 -9 -9 -9 -10 -8 -7 -8 -10 -11 -12 -11 -10 -9 -9 -8 -7 -7 -7 -7 -7 -7 -7 -6 -6 -6 -6 -6
-11 -10 -11 -11 -11 -10 -11 -9 -9 -9 -9 -9 -9 -10 -8 -7 -9 -10 -11 -11 -10 -10 -10 -10 -9 -9 -8 -8 -8 -7 -7 -7 -7 -7 -7 -7 -7 -6
-12 -11 -11 -11 -11 -9 -8 -8 -8 -9 -9 -10 -8 -7 -8 -9 -10 -11 -11 -10 -12 -9 -10 -11 -9 -11 -11 -9 -9 -8 -8 -7 -7 -7 -7 -7 -7 -7
-13 -13 -12 -10 -10 -9 -8 -8 -9 -9 -8 -8 -7 -8 -9 -10 -11 -10 -11 -9 -9 -11 -9 -11 -10 -10 -10 -10 -9 -8 -8 -7 -7 -7 -7 -7 -7 -7
-14 -11 -9 -10 -9 -9 -9 -9 -10 -8 -7 -9 -9 -10 -10 -11 -12 -10 -9 -9 -10 -12 -10 -11 -11 -11 -11 -11 -9 -8 -8 -7 -7 -6 -6 -6 -6 -6
-11 -10 -10 -10 -9 -9 -10 -9 -10 -10 -11 -10 -10 -10 -11 -10 -8 -9 -9 -11 -11 -11 -9 -10 -11 -11 -10 -11 -12 -11 -10 -7 -7 -6 -6 -6 -6 -7
-11 -11 -10 -10 -9 -9 -8 -9 -10 -10 -11 -11 -10 -9 -9 -9 -9 -10 -11 -10 -10 -10 -10 -10 -10 -10 -11 -11 -12 -11 -9 -10 -9 -8 -7 -6 -6 -6
-11 -10 -10 -10 -9 -9 -9 -9 -10 -11 -11 -11 -11 -11 -11 -11 -10 -10 -10 -10 -10 -10 -10 -10 -10 -10 -10 -11 -11 -11 -11 -10 -9 -8 -7 -6 -5 -5
-10 -10 -11 -10 -9 -9 -9 -10 -11 -10 -10 -10 -11 -11 -11 -11 -10 -10 -10 -10 -11 -11 -10 -10 -11 -11 -11 -10 -11 -11 -10 -10 -9 -9 -8 -7 -6 -6
-10 -11 -10 -10 -9 -10 -10 -10 -10 -10 -11 -11 -11 -11 -11 -10 -10 -10 -10 -10 -10 -10 -10 -9 -10 -10 -10 -10 -10 -10 -10 -10 -9 -9 -8 -7 -6 -6
-10 -10 -10 -10 -10 -12 -12 -10 -10 -11 -11 -11 -11 -11 -10 -10 -10 -10 -10 -10 -9 -10 -10 -9 -9 -10 -10 -10 -9 -10 -9 -9 -10 -9 -7 -6 -6 -6
-10 -11 -11 -11 -13 -12 -12 -12 -11 -11 -11 -11 -11 -10 -10 -10 -10 -10 -10 -10 -10 -10 -10 -9 -9 -10 -9 -9 -9 -9 -8 -8 -8 -7 -6 -6 -6 -6
-10 -13 -13 -13 -13 -12 -12 -12 -11 -11 -11 -10 -10 -10 -10 -10 -10 -10 -10 -10 -11 -10 -9 -10 -9 -9 -9 -8 -8 -9 -7 -7 -7 -7 -7 -6 -7 -6
-12 -13 -13 -13 -12 -12 -12 -11 -11 -10 -10 -9 -9 -9 -10 -10 -9 -9 -9 -9 -10 -9 -10 -9 -9 -9 -10 -9 -8 -8 -8 -8 -8 -7 -7 -6 -7 -8
-14 -13 -13 -13 -12 -12 -12 -11 -11 -10 -10 -9 -9 -9 -9 -9 -9 -9 -9 -9 -9 -9 -9 -9 -9 -9 -9 -8 -10 -8 -8 -8 -7 -7 -7 -6 -6 -7
-14 -13 -13 -13 -13 -12 -11 -10 -10 -10 -9 -9 -9 -9 -9 -9 -9 -9 -9 -9 -9 -9 -9 -9 -9 -9 -8 -8 -8 -10 -9 -7 -7 -7 -7 -6 -6 -6
-14 -14 -14 -14 -12 -11 -10 -10 -10 -9 -9 -9 -9 -8 -8 -8 -8 -8 -8 -8 -8 -8 -9 -9 -8 -8 -8 -8 -8 -8 -9 -7 -7 -7 -6 -6 -6 -6
-14 -14 -15 -14 -11 -10 -10 -10 -9 -9 -9 -8 -8 -8 -8 -8 -8 -8 -8 -8 -8 -8 -8 -8 -8 -8 -7 -7 -7 -7 -7 -7 -7 -6 -6 -6 -5 -5
-15 -16 -15 -11 -10 -10 -10 -9 -9 -9 -8 -8 -8 -8 -7 -8 -8 -8 -7 -7 -7 -8 -8 -8 -8 -8 -8 -7 -7 -7 -7 -7 -7 -7 -6 -5 -5 -4

GFSNE_850_dewp_018.txt.gz
Dewpoint
-8 -12 -13 -15 -15 -14 -12 -11 -11 -9 -10 -14 -13 -14 -16 -17 -16 -14 -12 -11 -9 -7 -7 -7 -7 -7 -7 -7 -7 -6 -6 -5 -5 -4 -4 -3 -4 -3
-11 -13 -15 -17 -15 -13 -13 -14 -15 -13 -11 -13 -13 -13 -11 -10 -11 -10 -10 -10 -9 -8 -8 -8 -8 -8 -7 -7 -6 -6 -5 -5 -5 -4 -4 -4 -4 -3
-14 -16 -17 -15 -12 -13 -14 -16 -16 -13 -12 -12 -11 -9 -9 -9 -9 -10 -11 -8 -9 -9 -9 -8 -9 -8 -7 -7 -6 -6 -6 -5 -5 -5 -4 -4 -4 -4
-17 -17 -14 -12 -12 -14 -15 -14 -12 -12 -10 -9 -8 -9 -9 -10 -11 -10 -8 -9 -11 -11 -10 -9 -8 -8 -7 -7 -7 -6 -6 -6 -6 -5 -5 -5 -5 -5
-17 -13 -12 -12 -14 -15 -13 -12 -12 -12 -9 -9 -9 -10 -11 -11 -9 -9 -10 -12 -11 -12 -10 -10 -9 -8 -8 -7 -7 -7 -7 -7 -7 -6 -6 -6 -6 -5
-14 -14 -13 -13 -12 -11 -11 -10 -9 -8 -8 -9 -9 -9 -9 -9 -8 -10 -11 -11 -12 -12 -12 -13 -9 -13 -10 -9 -8 -8 -7 -7 -7 -7 -7 -6 -6 -6
-20 -21 -16 -12 -11 -10 -8 -8 -8 -8 -8 -8 -8 -8 -7 -10 -9 -10 -10 -11 -12 -11 -9 -13 -12 -13 -12 -12 -12 -11 -8 -7 -7 -6 -6 -6 -6 -6
-25 -21 -16 -14 -13 -9 -8 -8 -8 -8 -8 -9 -8 -9 -10 -9 -10 -10 -12 -10 -9 -9 -10 -13 -12 -12 -12 -11 -11 -8 -8 -7 -7 -6 -6 -6 -6 -6
-22 -15 -12 -11 -10 -10 -10 -8 -9 -9 -9 -9 -10 -10 -10 -10 -10 -10 -9 -8 -9 -12 -11 -11 -12 -11 -11 -12 -12 -10 -8 -8 -7 -6 -6 -6 -6 -5
-18 -13 -10 -11 -10 -9 -9 -9 -8 -10 -11 -10 -10 -10 -10 -10 -9 -9 -9 -9 -11 -12 -10 -10 -11 -11 -11 -12 -12 -12 -11 -11 -7 -6 -6 -6 -6 -5
-16 -12 -11 -10 -9 -9 -8 -9 -9 -10 -11 -12 -10 -9 -9 -9 -9 -9 -10 -10 -10 -11 -10 -10 -11 -11 -11 -12 -12 -11 -11 -9 -11 -10 -8 -7 -6 -5
-18 -13 -11 -9 -9 -9 -9 -9 -9 -11 -11 -10 -11 -12 -12 -12 -11 -11 -10 -10 -10 -10 -11 -10 -11 -11 -11 -11 -11 -11 -11 -11 -11 -10 -10 -9 -9 -7
-9 -10 -11 -10 -9 -9 -9 -9 -10 -10 -10 -10 -12 -12 -12 -11 -10 -10 -10 -10 -10 -11 -11 -10 -11 -10 -10 -10 -11 -11 -11 -11 -10 -10 -10 -10 -9 -8
-10 -10 -10 -10 -9 -10 -10 -11 -10 -9 -11 -12 -11 -12 -11 -10 -10 -10 -10 -10 -10 -10 -10 -10 -11 -10 -10 -10 -10 -11 -11 -11 -10 -10 -9 -10 -10 -9
-10 -10 -10 -10 -11 -11 -13 -11 -10 -12 -11 -11 -11 -11 -10 -10 -10 -10 -10 -10 -10 -10 -10 -10 -9 -9 -10 -10 -10 -10 -9 -10 -10 -9 -9 -9 -8 -8
-11 -11 -12 -15 -12 -13 -14 -13 -12 -12 -11 -11 -10 -10 -10 -10 -10 -10 -9 -9 -10 -10 -10 -10 -9 -10 -10 -10 -9 -9 -10 -9 -9 -9 -8 -8 -8 -7
-10 -12 -16 -15 -15 -15 -14 -13 -12 -11 -10 -10 -10 -10 -10 -10 -9 -9 -9 -9 -10 -9 -9 -10 -10 -9 -10 -9 -9 -10 -9 -8 -8 -8 -8 -8 -8 -7
-11 -14 -15 -15 -15 -15 -13 -12 -11 -11 -10 -10 -9 -9 -9 -9 -9 -9 -9 -9 -9 -9 -9 -9 -9 -9 -10 -9 -9 -9 -9 -9 -9 -8 -8 -8 -7 -7
-15 -16 -15 -15 -15 -14 -12 -11 -11 -10 -10 -9 -9 -9 -9 -9 -9 -9 -9 -9 -8 -9 -9 -9 -9 -9 -9 -9 -9 -8 -8 -8 -8 -8 -7 -7 -7 -7
-16 -15 -15 -15 -15 -13 -11 -11 -10 -10 -9 -9 -9 -9 -8 -9 -9 -8 -8 -9 -9 -9 -8 -9 -8 -8 -8 -8 -8 -10 -9 -7 -7 -7 -7 -7 -7 -7
-16 -16 -16 -16 -13 -11 -11 -10 -10 -9 -9 -9 -9 -8 -8 -9 -9 -8 -8 -8 -8 -8 -8 -8 -8 -8 -8 -8 -7 -8 -8 -8 -7 -7 -6 -6 -6 -6
-15 -16 -16 -14 -11 -10 -10 -10 -9 -9 -9 -8 -8 -8 -8 -8 -8 -8 -8 -8 -7 -7 -8 -8 -8 -8 -8 -8 -7 -8 -7 -8 -8 -6 -6 -6 -6 -5
-16 -16 -14 -11 -10 -10 -9 -9 -9 -9 -8 -8 -8 -8 -8 -8 -8 -8 -8 -7 -7 -8 -8 -8 -8 -8 -8 -8 -7 -7 -7 -7 -7 -7 -7 -5 -5 -5

GFSNE_850_dewp_021.txt.gz
Dewpoint
-2 -4 -10 -13 -15 -16 -15 -13 -11 -10 -12 -16 -16 -18 -18 -17 -16 -13 -11 -12 -8 -8 -7 -6 -6 -7 -7 -7 -6 -6 -5 -4 -4 -4 -4 -4 -3 -3
-3 -7 -13 -15 -17 -15 -13 -13 -14 -14 -12 -16 -16 -15 -16 -15 -12 -11 -11 -13 -13 -11 -7 -7 -8 -7 -7 -7 -6 -6 -5 -5 -5 -4 -4 -4 -3 -3
-7 -13 -16 -17 -15 -12 -13 -14 -16 -15 -13 -14 -14 -14 -12 -12 -14 -13 -13 -11 -11 -13 -9 -8 -8 -8 -7 -7 -7 -6 -6 -6 -5 -5 -4 -4 -4 -4
-13 -17 -17 -13 -12 -12 -14 -16 -15 -14 -13 -12 -11 -11 -11 -12 -12 -11 -10 -11 -13 -13 -10 -9 -9 -8 -8 -7 -6 -6 -7 -6 -5 -5 -5 -5 -5 -4
-17 -16 -13 -13 -14 -15 -15 -14 -13 -12 -10 -9 -9 -9 -10 -11 -9 -9 -11 -12 -12 -12 -11 -13 -11 -11 -8 -7 -7 -7 -7 -7 -7 -6 -6 -6 -5 -5
-15 -15 -16 -18 -16 -14 -13 -12 -10 -8 -8 -8 -8 -9 -10 -9 -9 -11 -11 -11 -12 -12 -11 -12 -10 -13 -13 -12 -11 -11 -11 -8 -7 -7 -6 -6 -6 -6
-18 -23 -23 -19 -15 -14 -11 -8 -8 -8 -8 -8 -9 -10 -8 -9 -11 -10 -10 -11 -11 -11 -10 -9 -12 -13 -13 -12 -12 -12 -11 -8 -7 -7 -6 -6 -6 -6
-24 -23 -22 -19 -17 -13 -10 -9 -8 -8 -8 -9 -9 -8 -10 -11 -10 -10 -10 -10 -9 -10 -9 -10 -13 -13 -13 -12 -12 -10 -9 -8 -8 -7 -7 -6 -6 -5
-23 -24 -22 -16 -12 -11 -10 -9 -9 -8 -8 -8 -10 -11 -10 -10 -10 -10 -9 -9 -9 -11 -11 -10 -13 -12 -12 -12 -12 -12 -12 -10 -8 -7 -6 -6 -6 -5
-26 -26 -19 -13 -11 -10 -9 -8 -8 -9 -10 -10 -11 -10 -10 -10 -9 -9 -10 -10 -10 -11 -11 -10 -11 -11 -11 -12 -12 -13 -12 -12 -8 -8 -7 -7 -7 -6
-29 -22 -16 -13 -13 -9 -8 -8 -9 -10 -10 -12 -12 -10 -9 -10 -10 -10 -10 -10 -11 -11 -11 -10 -11 -11 -11 -12 -12 -12 -11 -11 -11 -11 -9 -8 -7 -7
-19 -15 -14 -10 -9 -9 -8 -9 -9 -10 -11 -10 -10 -12 -12 -12 -11 -10 -10 -10 -10 -11 -11 -10 -11 -11 -10 -11 -11 -11 -12 -12 -12 -11 -11 -10 -9 -8
-13 -16 -14 -12 -9 -9 -9 -9 -9 -10 -9 -10 -12 -12 -12 -11 -10 -10 -10 -10 -10 -10 -10 -10 -11 -11 -11 -11 -11 -11 -11 -11 -11 -11 -11 -10 -9 -9
-19 -15 -12 -10 -9 -10 -10 -11 -10 -10 -12 -12 -12 -11 -11 -10 -10 -10 -10 -10 -10 -9 -10 -10 -10 -10 -10 -11 -11 -11 -11 -11 -11 -11 -11 -11 -10 -10
-16 -10 -9 -10 -14 -16 -15 -11 -13 -13 -12 -11 -11 -11 -10 -10 -10 -10 -10 -10 -9 -10 -10 -9 -9 -9 -10 -10 -10 -10 -10 -11 -11 -11 -10 -10 -9 -9
-11 -9 -10 -15 -17 -16 -16 -14 -12 -12 -11 -10 -10 -10 -10 -10 -10 -10 -9 -9 -9 -10 -10 -9 -9 -9 -10 -9 -9 -9 -10 -10 -10 -10 -9 -9 -9 -8
-9 -12 -16 -18 -18 -17 -15 -12 -12 -11 -11 -10 -10 -10 -10 -9 -9 -9 -9 -9 -9 -9 -9 -10 -9 -9 -9 -9 -9 -10 -10 -10 -10 -9 -8 -8 -8 -8
-13 -16 -17 -17 -16 -16 -13 -12 -11 -11 -10 -10 -9 -9 -9 -9 -9 -9 -9 -9 -9 -9 -9 -9 -9 -9 -10 -10 -9 -9 -10 -9 -9 -8 -8 -8 -8 -8
-17 -16 -16 -16 -16 -14 -12 -11 -11 -10 -10 -9 -9 -9 -9 -9 -9 -9 -9 -9 -9 -9 -9 -9 -9 -9 -9 -9 -9 -8 -8 -8 -8 -8 -8 -7 -7 -7
-16 -16 -16 -16 -15 -12 -11 -11 -10 -10 -9 -9 -9 -9 -9 -9 -9 -9 -9 -9 -9 -9 -9 -9 -8 -8 -8 -8 -8 -9 -8 -8 -8 -7 -7 -7 -7 -7
-16 -16 -16 -15 -12 -11 -10 -10 -10 -10 -9 -8 -8 -8 -9 -9 -9 -9 -9 -8 -8 -8 -9 -9 -9 -8 -8 -8 -8 -8 -8 -8 -7 -7 -7 -7 -6 -6
-16 -16 -15 -11 -10 -10 -10 -10 -9 -9 -8 -8 -8 -8 -9 -9 -8 -8 -8 -8 -9 -9 -9 -9 -9 -8 -8 -8 -8 -8 -8 -8 -8 -8 -7 -6 -6 -6
-15 -15 -11 -10 -10 -9 -9 -9 -9 -9 -8 -8 -8 -8 -9 -9 -8 -8 -8 -8 -9 -9 -8 -9 -9 -8 -8 -8 -8 -8 -8 -8 -7 -7 -9 -7 -6 -6

GFSNE_850_dewp_024.txt.gz
Dewpoint
-1 -1 -3 -6 -11 -14 -16 -16 -13 -11 -12 -15 -18 -19 -19 -18 -19 -18 -17 -17 -18 -13 -10 -7 -6 -6 -6 -6 -6 -5 -5 -5 -4 -4 -3 -3 -3 -3
-2 -2 -4 -10 -14 -17 -15 -13 -12 -12 -12 -15 -17 -17 -17 -18 -16 -15 -16 -16 -15 -13 -11 -7 -7 -7 -7 -6 -6 -6 -6 -5 -5 -4 -4 -4 -3 -3
-2 -3 -8 -14 -17 -14 -12 -13 -14 -15 -14 -14 -14 -14 -13 -15 -16 -16 -16 -14 -15 -17 -10 -8 -7 -7 -7 -7 -7 -6 -6 -6 -5 -5 -4 -4 -4 -3
-3 -7 -13 -17 -14 -13 -14 -16 -16 -15 -13 -12 -10 -11 -11 -13 -12 -13 -14 -17 -15 -15 -13 -8 -8 -8 -7 -7 -7 -6 -6 -6 -6 -5 -5 -5 -5 -4
-8 -13 -14 -14 -14 -16 -18 -16 -15 -13 -12 -9 -9 -9 -10 -12 -12 -13 -14 -14 -14 -14 -13 -12 -13 -13 -9 -7 -7 -7 -7 -7 -7 -7 -6 -6 -5 -5
-12 -15 -15 -18 -21 -20 -17 -15 -13 -10 -9 -9 -9 -9 -9 -11 -11 -11 -12 -13 -13 -12 -13 -12 -13 -12 -12 -14 -14 -13 -12 -12 -9 -7 -7 -6 -6 -6
-15 -17 -22 -23 -21 -17 -15 -12 -9 -9 -9 -8 -8 -9 -10 -10 -11 -12 -11 -11 -11 -12 -12 -10 -13 -12 -14 -14 -14 -13 -13 -11 -7 -7 -7 -6 -6 -6
-20 -23 -23 -22 -20 -18 -13 -10 -9 -8 -8 -8 -8 -9 -10 -11 -12 -11 -10 -9 -9 -11 -11 -11 -12 -12 -13 -12 -12 -12 -12 -8 -8 -7 -7 -7 -6 -7
-23 -23 -24 -24 -21 -17 -14 -12 -10 -9 -8 -9 -9 -10 -10 -12 -10 -10 -9 -9 -10 -12 -11 -11 -11 -11 -12 -12 -12 -12 -12 -12 -9 -8 -7 -7 -7 -6
-23 -25 -27 -23 -20 -16 -12 -10 -9 -9 -9 -10 -10 -10 -9 -9 -9 -9 -10 -11 -11 -11 -10 -10 -11 -11 -11 -11 -12 -12 -12 -12 -12 -8 -8 -7 -7 -7
-26 -25 -20 -21 -18 -10 -9 -8 -9 -9 -10 -11 -11 -10 -10 -10 -11 -11 -11 -10 -10 -10 -10 -10 -11 -10 -11 -11 -12 -12 -12 -12 -11 -11 -9 -8 -8 -7
-25 -25 -25 -20 -12 -9 -8 -8 -9 -11 -11 -10 -12 -12 -13 -12 -11 -11 -10 -10 -10 -10 -10 -10 -10 -11 -10 -11 -11 -11 -11 -12 -12 -12 -11 -9 -8 -8
-26 -27 -24 -16 -9 -9 -9 -9 -10 -10 -10 -11 -13 -13 -12 -12 -11 -10 -10 -10 -10 -10 -10 -10 -10 -11 -11 -10 -10 -11 -11 -11 -11 -11 -11 -11 -10 -9
-24 -20 -13 -9 -9 -10 -13 -15 -10 -11 -14 -13 -12 -12 -11 -11 -11 -10 -10 -10 -10 -9 -9 -9 -10 -10 -10 -11 -11 -10 -10 -11 -10 -11 -11 -11 -11 -11
-16 -11 -9 -10 -13 -18 -18 -18 -16 -13 -12 -12 -11 -11 -10 -10 -10 -10 -10 -10 -10 -10 -9 -8 -9 -9 -9 -10 -10 -9 -10 -10 -10 -10 -11 -10 -10 -9
-11 -10 -10 -13 -16 -18 -18 -16 -13 -12 -11 -11 -10 -10 -10 -10 -10 -10 -10 -9 -9 -10 -10 -9 -9 -9 -9 -9 -9 -9 -10 -9 -10 -11 -10 -9 -9 -9
-9 -11 -16 -19 -19 -18 -16 -13 -12 -11 -11 -10 -10 -10 -9 -9 -9 -9 -10 -9 -9 -9 -10 -10 -10 -9 -9 -9 -9 -9 -10 -10 -10 -10 -8 -8 -9 -8
-12 -16 -18 -18 -17 -17 -14 -12 -11 -11 -10 -10 -9 -9 -9 -9 -9 -10 -9 -9 -9 -9 -10 -10 -9 -9 -10 -10 -9 -10 -10 -9 -9 -8 -8 -8 -8 -8
-17 -17 -17 -17 -17 -14 -12 -11 -11 -10 -10 -9 -9 -9 -9 -9 -9 -9 -9 -9 -9 -9 -10 -9 -9 -9 -10 -10 -10 -8 -8 -8 -8 -8 -8 -8 -8 -8
-17 -17 -17 -17 -15 -11 -11 -10 -10 -10 -9 -9 -8 -9 -9 -9 -9 -9 -9 -9 -9 -9 -9 -9 -9 -9 -9 -9 -8 -9 -9 -8 -8 -8 -8 -8 -8 -8
-17 -17 -16 -14 -11 -10 -10 -10 -9 -9 -9 -8 -8 -9 -8 -9 -9 -8 -9 -9 -9 -9 -9 -9 -9 -8 -8 -8 -8 -8 -9 -9 -8 -8 -8 -8 -8 -8
-16 -16 -13 -11 -10 -10 -9 -9 -9 -9 -8 -8 -8 -9 -8 -8 -8 -8 -8 -8 -9 -9 -9 -9 -9 -8 -8 -8 -9 -9 -8 -8 -8 -8 -8 -7 -7 -7
-15 -13 -10 -10 -10 -9 -9 -9 -9 -9 -8 -8 -9 -8 -7 -8 -8 -8 -8 -9 -9 -9 -9 -9 -8 -8 -8 -8 -9 -9 -8 -8 -7 -7 -8 -8 -6 -6

GFSNE_850_dewp_027.txt.gz
Dewpoint
-1 -1 -1 -1 -3 -6 -10 -14 -16 -14 -13 -14 -16 -18 -18 -18 -19 -19 -19 -19 -20 -21 -20 -17 -8 -6 -6 -6 -6 -5 -5 -5 -4 -4 -4 -3 -3 -3
-0 -2 -2 -2 -6 -10 -14 -16 -15 -13 -12 -14 -16 -17 -18 -19 -19 -17 -17 -17 -18 -17 -18 -19 -9 -7 -6 -6 -6 -6 -6 -5 -5 -4 -4 -4 -3 -3
-2 -3 -2 -3 -8 -15 -16 -14 -13 -14 -14 -15 -15 -15 -14 -16 -18 -17 -18 -18 -19 -21 -20 -15 -7 -7 -7 -7 -6 -6 -6 -5 -5 -5 -4 -4 -4 -3
1 0 -5 -7 -13 -14 -13 -14 -16 -17 -15 -15 -13 -12 -12 -13 -13 -13 -15 -19 -19 -18 -16 -13 -8 -9 -7 -7 -6 -6 -6 -6 -6 -6 -5 -5 -5 -4
-2 -6 -9 -11 -14 -14 -16 -19 -19 -16 -15 -12 -10 -10 -10 -12 -12 -14 -15 -18 -17 -15 -14 -13 -13 -12 -8 -7 -7 -7 -7 -7 -7 -7 -7 -6 -6 -5
-6 -7 -13 -14 -16 -20 -21 -19 -17 -16 -13 -10 -10 -9 -9 -11 -11 -12 -14 -16 -13 -13 -14 -12 -13 -12 -12 -13 -13 -14 -14 -14 -13 -8 -7 -7 -6 -6
-11 -13 -16 -20 -22 -21 -19 -17 -14 -10 -11 -9 -8 -8 -9 -10 -11 -12 -13 -11 -11 -12 -13 -12 -12 -12 -13 -13 -12 -13 -13 -13 -12 -8 -7 -6 -6 -6
-6 -18 -22 -22 -21 -21 -19 -15 -12 -10 -8 -7 -8 -8 -9 -10 -12 -12 -10 -9 -10 -11 -12 -12 -12 -12 -12 -12 -12 -13 -12 -12 -8 -7 -7 -7 -7 -6
-20 -22 -22 -22 -23 -22 -20 -18 -15 -13 -8 -8 -9 -9 -10 -13 -11 -9 -9 -9 -10 -11 -11 -11 -11 -12 -12 -12 -12 -12 -12 -12 -10 -8 -7 -7 -7 -7
-21 -22 -23 -23 -23 -21 -18 -12 -10 -10 -10 -11 -11 -12 -11 -10 -9 -9 -9 -10 -11 -11 -11 -11 -11 -11 -11 -12 -12 -13 -12 -12 -12 -10 -8 -7 -7 -7
-21 -22 -22 -22 -25 -23 -9 -8 -9 -11 -12 -13 -13 -12 -10 -11 -11 -11 -11 -11 -11 -11 -11 -11 -11 -10 -11 -11 -12 -12 -11 -11 -11 -11 -10 -8 -8 -8
-20 -21 -24 -24 -16 -9 -8 -9 -10 -13 -13 -13 -15 -13 -13 -13 -12 -11 -11 -10 -10 -10 -10 -10 -10 -10 -10 -11 -11 -10 -11 -11 -11 -11 -11 -10 -9 -8
-25 -26 -23 -19 -12 -9 -9 -11 -13 -10 -10 -13 -14 -13 -12 -12 -11 -11 -10 -10 -10 -10 -10 -10 -10 -10 -11 -10 -10 -10 -11 -11 -11 -11 -11 -11 -10 -9
-22 -21 -19 -13 -9 -10 -14 -18 -14 -11 -16 -14 -12 -12 -11 -11 -11 -10 -10 -10 -10 -10 -10 -9 -10 -9 -10 -11 -11 -10 -10 -10 -10 -10 -10 -10 -11 -10
-21 -17 -10 -11 -13 -18 -19 -20 -18 -16 -13 -12 -12 -11 -10 -10 -10 -10 -10 -10 -10 -10 -10 -10 -9 -9 -10 -10 -10 -10 -10 -10 -9 -10 -10 -10 -10 -10
-12 -10 -10 -12 -17 -19 -19 -18 -15 -12 -11 -11 -11 -10 -10 -10 -10 -10 -10 -10 -10 -10 -10 -10 -10 -9 -9 -9 -9 -9 -9 -9 -10 -11 -10 -9 -9 -8
-10 -12 -15 -18 -19 -19 -18 -15 -12 -11 -11 -10 -10 -10 -9 -9 -10 -10 -10 -10 -9 -10 -10 -10 -10 -9 -9 -9 -9 -9 -10 -10 -10 -10 -9 -8 -9 -9
-16 -18 -18 -18 -18 -18 -15 -12 -11 -11 -10 -10 -9 -9 -9 -9 -9 -9 -9 -9 -9 -9 -9 -9 -9 -9 -10 -10 -10 -10 -10 -10 -10 -9 -8 -8 -8 -8
-19 -18 -18 -17 -17 -15 -12 -11 -10 -10 -10 -9 -9 -9 -9 -9 -9 -8 -8 -8 -9 -9 -9 -9 -9 -10 -10 -10 -11 -9 -9 -9 -8 -9 -9 -8 -8 -8
-18 -17 -17 -16 -14 -11 -11 -10 -10 -9 -9 -9 -9 -9 -9 -9 -8 -8 -8 -8 -9 -9 -9 -9 -9 -9 -10 -10 -9 -10 -9 -8 -9 -9 -9 -9 -9 -9
-17 -17 -16 -13 -11 -10 -10 -10 -9 -9 -9 -9 -8 -9 -9 -9 -8 -8 -8 -8 -8 -8 -8 -9 -10 -9 -9 -9 -9 -9 -9 -9 -8 -8 -8 -8 -8 -8
-16 -15 -12 -10 -10 -10 -9 -9 -9 -9 -9 -9 -9 -9 -9 -9 -8 -8 -8 -8 -8 -8 -8 -9 -9 -8 -9 -9 -9 -9 -8 -8 -8 -8 -7 -7 -7 -8
-15 -13 -11 -10 -10 -9 -9 -9 -9 -9 -9 -9 -9 -9 -8 -8 -8 -8 -8 -8 -9 -8 -8 -8 -8 -8 -8 -8 -9 -8 -8 -8 -7 -8 -8 -7 -6 -6

GFSNE_850_dewp_030.txt.gz
Dewpoint
3 1 -1 -1 -1 -1 -1 -1 -8 -14 -15 -13 -14 -15 -17 -18 -18 -19 -20 -21 -22 -22 -22 -23 -22 -17 -9 -6 -5 -5 -5 -5 -4 -5 -4 -4 -3 -2
1 1 -1 -0 -2 -4 -4 -5 -12 -14 -13 -13 -14 -17 -17 -18 -19 -19 -21 -20 -20 -21 -22 -22 -17 -7 -7 -6 -6 -5 -5 -5 -5 -4 -4 -3 -3 -3
-2 1 -0 -1 -1 -1 -9 -12 -13 -13 -12 -14 -16 -17 -17 -18 -19 -21 -19 -19 -20 -22 -22 -20 -13 -7 -7 -6 -6 -6 -5 -5 -5 -4 -4 -4 -4 -4
-0 2 2 -3 -1 -1 -3 -11 -13 -13 -14 -16 -16 -16 -16 -18 -17 -15 -16 -17 -19 -21 -18 -15 -14 -13 -11 -8 -7 -6 -6 -6 -5 -5 -5 -5 -5 -4
1 1 1 -6 -8 -9 -12 -13 -15 -17 -17 -15 -15 -14 -14 -14 -13 -14 -14 -19 -20 -17 -14 -14 -14 -14 -14 -10 -7 -7 -7 -7 -7 -7 -6 -6 -6 -6
2 0 -2 -5 -4 -5 -14 -19 -20 -18 -17 -15 -13 -12 -10 -11 -11 -12 -13 -16 -14 -14 -14 -13 -14 -13 -13 -13 -12 -12 -12 -12 -9 -7 -7 -7 -6 -6
0 -1 -6 -7 -3 -11 -21 -21 -18 -18 -15 -13 -11 -8 -9 -11 -11 -11 -12 -12 -12 -14 -14 -13 -13 -13 -13 -13 -12 -12 -12 -12 -12 -8 -7 -6 -6 -6
-0 -2 -2 -9 -21 -21 -20 -18 -17 -16 -14 -9 -8 -9 -10 -10 -10 -12 -10 -9 -10 -13 -12 -12 -12 -13 -12 -12 -12 -12 -12 -13 -12 -8 -7 -7 -7 -6
-1 -4 -20 -21 -21 -22 -22 -21 -20 -18 -12 -9 -9 -10 -9 -11 -10 -9 -9 -10 -11 -12 -12 -11 -12 -12 -12 -12 -12 -12 -13 -13 -12 -12 -9 -7 -7 -7
-19 -20 -21 -22 -23 -25 -26 -19 -13 -11 -11 -11 -11 -11 -10 -9 -9 -9 -11 -11 -11 -12 -11 -10 -12 -11 -11 -12 -12 -12 -12 -12 -11 -11 -8 -7 -7 -7
-20 -20 -21 -23 -26 -26 -12 -9 -9 -10 -11 -12 -13 -12 -12 -13 -13 -12 -12 -11 -11 -11 -11 -10 -11 -10 -11 -12 -12 -11 -11 -11 -11 -11 -11 -10 -8 -8
-19 -22 -23 -25 -22 -13 -8 -8 -9 -12 -15 -16 -17 -16 -14 -13 -12 -11 -10 -10 -10 -10 -10 -10 -10 -10 -10 -11 -11 -10 -11 -11 -11 -11 -11 -10 -9 -9
-25 -25 -22 -19 -12 -8 -9 -10 -14 -12 -12 -16 -17 -13 -12 -12 -11 -11 -10 -10 -9 -9 -10 -10 -11 -10 -11 -10 -10 -11 -11 -11 -11 -11 -10 -10 -9 -9
-24 -19 -14 -9 -9 -12 -15 -18 -16 -14 -18 -16 -13 -12 -12 -11 -11 -10 -10 -10 -10 -10 -10 -10 -10 -9 -9 -10 -10 -11 -10 -10 -10 -9 -9 -10 -10 -10
-15 -12 -12 -11 -13 -16 -19 -20 -19 -18 -14 -12 -12 -11 -11 -10 -10 -10 -10 -10 -10 -10 -9 -9 -9 -9 -9 -9 -10 -10 -10 -10 -9 -9 -10 -10 -10 -10
-14 -13 -15 -17 -19 -19 -19 -19 -17 -13 -12 -11 -11 -10 -10 -10 -10 -9 -9 -9 -9 -10 -9 -9 -9 -9 -9 -9 -10 -10 -9 -9 -11 -11 -10 -10 -9 -9
-17 -19 -19 -19 -19 -20 -19 -16 -12 -11 -11 -10 -10 -10 -9 -9 -9 -9 -8 -8 -8 -9 -9 -10 -10 -9 -10 -10 -10 -10 -10 -10 -11 -10 -9 -9 -9 -9
-20 -20 -20 -19 -19 -18 -16 -12 -11 -11 -10 -10 -10 -9 -9 -9 -9 -9 -8 -8 -9 -9 -9 -10 -10 -10 -10 -11 -11 -10 -10 -11 -10 -9 -9 -9 -9 -9
-21 -20 -19 -19 -18 -15 -11 -11 -10 -10 -9 -9 -9 -9 -9 -9 -9 -9 -8 -9 -9 -9 -9 -10 -9 -8 -9 -10 -11 -9 -9 -9 -9 -9 -9 -9 -9 -9
-19 -18 -18 -17 -14 -11 -10 -10 -10 -9 -9 -9 -9 -9 -9 -9 -9 -9 -8 -8 -8 -9 -9 -10 -10 -8 -9 -9 -9 -10 -10 -9 -9 -9 -9 -9 -9 -9
-18 -18 -16 -13 -11 -10 -10 -9 -9 -9 -9 -9 -9 -9 -10 -9 -9 -9 -8 -8 -8 -8 -8 -10 -10 -9 -9 -8 -8 -9 -9 -8 -7 -8 -8 -8 -8 -8
-18 -17 -14 -11 -10 -10 -9 -9 -9 -9 -9 -9 -9 -10 -9 -8 -8 -8 -8 -8 -8 -8 -9 -10 -9 -9 -8 -8 -8 -8 -8 -8 -8 -7 -6 -7 -7 -8
-18 -16 -12 -11 -10 -10 -9 -9 -9 -9 -9 -9 -9 -9 -9 -8 -8 -8 -9 -8 -8 -8 -8 -8 -8 -8 -8 -8 -8 -8 -8 -7 -7 -7 -8 -7 -6 -6

GFSNE_850_dewp_033.txt.gz
Dewpoint
9 5 0 -1 2 3 -0 -1 -4 -4 -5 -9 -11 -10 -13 -14 -16 -18 -19 -20 -22 -26 -26 -25 -25 -25 -20 -12 -6 -5 -5 -5 -4 -4 -3 -3 -3 -3
6 4 1 2 3 1 -1 -1 -3 -5 -11 -8 -9 -12 -14 -17 -18 -18 -19 -21 -24 -23 -25 -25 -24 -21 -12 -7 -6 -5 -5 -4 -4 -4 -4 -3 -3 -3
3 1 2 2 1 -1 -0 -0 -5 -9 -8 -11 -10 -13 -18 -19 -19 -20 -21 -21 -22 -25 -25 -24 -22 -14 -8 -6 -6 -6 -6 -5 -5 -4 -4 -4 -3 -3
1 1 1 -1 1 1 -0 -1 -3 -5 -6 -11 -15 -19 -18 -20 -19 -21 -19 -21 -20 -24 -24 -21 -16 -15 -14 -14 -12 -7 -6 -5 -6 -6 -5 -5 -5 -4
1 1 0 1 1 1 1 -4 -4 -4 -6 -11 -17 -17 -17 -19 -19 -18 -17 -18 -21 -24 -19 -15 -14 -14 -14 -14 -10 -9 -10 -9 -8 -7 -6 -6 -6 -6
0 1 1 1 0 -2 -1 -1 -1 -8 -17 -15 -15 -14 -15 -16 -14 -13 -14 -17 -20 -19 -14 -14 -14 -14 -14 -13 -13 -13 -13 -13 -13 -13 -8 -7 -6 -6
1 1 0 -0 -0 -0 -0 -4 -16 -19 -19 -16 -13 -13 -11 -11 -9 -10 -12 -14 -14 -14 -14 -14 -14 -14 -14 -13 -13 -13 -12 -12 -12 -12 -7 -7 -6 -6
1 0 -0 -0 -1 -3 -17 -19 -19 -21 -19 -11 -11 -11 -9 -11 -11 -12 -12 -10 -9 -13 -13 -11 -13 -13 -13 -12 -12 -12 -13 -12 -13 -12 -8 -7 -6 -6
-1 -1 -1 -4 -17 -20 -20 -21 -22 -20 -17 -10 -9 -11 -9 -10 -12 -11 -10 -10 -11 -13 -11 -10 -12 -12 -12 -12 -12 -12 -12 -13 -12 -12 -11 -7 -7 -6
-0 -4 -17 -19 -20 -22 -25 -27 -25 -18 -14 -11 -10 -10 -12 -12 -9 -9 -11 -10 -10 -11 -11 -10 -12 -11 -11 -12 -12 -12 -12 -12 -11 -12 -9 -7 -7 -7
-19 -19 -19 -20 -25 -29 -26 -19 -13 -11 -10 -11 -14 -16 -13 -14 -13 -12 -11 -10 -10 -10 -10 -10 -11 -10 -11 -12 -12 -12 -11 -11 -11 -11 -11 -11 -9 -8
-18 -20 -25 -31 -27 -21 -8 -8 -9 -11 -15 -19 -18 -18 -16 -13 -12 -11 -10 -10 -10 -10 -10 -10 -10 -10 -10 -11 -11 -11 -11 -11 -11 -11 -11 -10 -10 -9
-26 -27 -23 -19 -14 -9 -9 -9 -13 -12 -14 -17 -19 -14 -12 -12 -11 -10 -10 -9 -9 -10 -10 -10 -10 -10 -10 -10 -11 -10 -10 -10 -10 -10 -10 -9 -9 -10
-22 -18 -15 -12 -9 -11 -13 -17 -20 -18 -19 -17 -13 -12 -12 -11 -11 -10 -10 -10 -9 -9 -9 -9 -9 -9 -9 -10 -10 -10 -10 -10 -10 -10 -10 -10 -11 -10
-18 -15 -13 -14 -17 -19 -20 -20 -20 -19 -15 -12 -12 -11 -11 -10 -10 -10 -10 -9 -9 -9 -9 -9 -9 -9 -9 -9 -10 -10 -10 -11 -10 -10 -11 -11 -10 -10
-17 -17 -20 -21 -21 -20 -19 -19 -17 -13 -12 -11 -11 -10 -10 -10 -10 -9 -9 -9 -9 -10 -9 -10 -10 -9 -9 -9 -9 -10 -11 -10 -10 -11 -10 -10 -9 -9
-21 -21 -21 -20 -20 -19 -18 -15 -12 -11 -11 -10 -10 -10 -10 -9 -10 -9 -9 -9 -9 -9 -10 -10 -10 -10 -10 -10 -10 -11 -10 -9 -10 -10 -9 -9 -10 -10
-21 -20 -20 -19 -19 -18 -14 -11 -11 -10 -10 -10 -10 -10 -10 -9 -9 -9 -9 -9 -9 -9 -10 -10 -10 -10 -10 -10 -10 -10 -9 -9 -9 -9 -9 -9 -9 -9
-20 -19 -19 -19 -17 -13 -11 -11 -10 -10 -9 -9 -9 -9 -9 -9 -9 -9 -9 -9 -9 -9 -9 -9 -9 -9 -10 -10 -10 -9 -9 -9 -8 -9 -9 -8 -8 -9
-20 -19 -19 -17 -14 -11 -10 -10 -10 -9 -9 -9 -9 -9 -9 -9 -9 -9 -9 -8 -8 -9 -9 -9 -9 -9 -9 -9 -9 -10 -9 -8 -8 -8 -8 -8 -8 -8
-20 -19 -18 -15 -11 -10 -10 -10 -9 -9 -9 -9 -9 -9 -9 -9 -9 -9 -8 -8 -8 -8 -8 -9 -10 -9 -9 -9 -9 -8 -10 -8 -8 -8 -7 -7 -8 -8
-20 -19 -17 -13 -11 -10 -10 -10 -10 -9 -9 -9 -9 -9 -9 -9 -9 -8 -8 -8 -9 -9 -8 -9 -9 -9 -8 -8 -8 -8 -9 -10 -9 -8 -7 -7 -7 -8
-19 -19 -17 -13 -11 -10 -10 -10 -10 -9 -9 -9 -9 -9 -9 -9 -9 -9 -8 -8 -8 -8 -8 -8 -8 -8 -8 -9 -8 -8 -9 -9 -9 -8 -8 -7 -6 -6

GFSNE_850_dewp_036.txt.gz
Dewpoint
10 10 9 8 4 -0 -1 -2 -2 -2 -2 -6 -8 -8 -11 -12 -12 -13 -15 -18 -20 -22 -25 -30 -32 -33 -33 -31 -30 -19 -7 -5 -4 -4 -3 -2 -3 -2
10 10 8 4 3 -0 -2 0 2 3 -5 -6 -10 -9 -6 -8 -12 -9 -17 -20 -21 -25 -27 -27 -28 -28 -27 -22 -10 -5 -5 -4 -4 -3 -3 -3 -3 -2
9 8 6 7 2 -1 0 2 2 -1 -1 -0 -4 -7 -3 -1 -5 -17 -18 -18 -21 -25 -26 -25 -25 -26 -21 -10 -9 -7 -6 -5 -5 -4 -4 -4 -3 -3
8 7 5 3 -0 1 0 0 1 2 -0 -1 -0 0 -0 -2 -7 -18 -19 -23 -23 -25 -24 -25 -25 -21 -17 -16 -15 -14 -6 -6 -5 -5 -5 -5 -5 -4
7 5 1 -1 1 0 1 1 1 0 -0 -0 -1 -2 -8 -17 -18 -20 -19 -17 -20 -24 -25 -25 -18 -15 -15 -15 -15 -13 -10 -12 -9 -8 -7 -6 -5 -5
3 1 1 1 1 1 1 0 -0 -1 -2 -2 -4 -11 -15 -16 -19 -15 -10 -9 -10 -22 -21 -15 -15 -15 -15 -15 -14 -14 -14 -13 -13 -13 -13 -10 -7 -6
0 -1 0 1 1 0 -0 -0 -1 -1 -2 -10 -14 -15 -11 -8 -8 -8 -8 -9 -10 -19 -13 -10 -10 -13 -13 -14 -14 -14 -13 -13 -13 -13 -12 -9 -6 -6
-1 0 1 0 -0 -1 -1 -1 -3 -11 -17 -13 -10 -8 -8 -8 -8 -9 -9 -9 -9 -14 -9 -8 -9 -10 -12 -13 -13 -13 -13 -12 -12 -12 -10 -7 -6 -6
0 -0 -0 -1 -1 -1 -5 -17 -20 -20 -20 -8 -7 -8 -8 -8 -8 -10 -9 -9 -9 -10 -8 -8 -11 -10 -11 -12 -12 -12 -12 -12 -12 -12 -12 -9 -7 -6
-1 -1 -2 -3 -9 -19 -20 -22 -24 -27 -20 -14 -9 -8 -8 -9 -9 -9 -9 -9 -8 -9 -9 -9 -10 -9 -9 -10 -12 -12 -12 -12 -12 -12 -12 -9 -7 -7
-5 -14 -18 -19 -21 -24 -25 -24 -20 -11 -8 -11 -12 -15 -16 -15 -14 -10 -11 -9 -9 -9 -9 -9 -10 -9 -9 -11 -11 -11 -11 -11 -11 -11 -11 -10 -10 -8
-19 -20 -24 -28 -26 -20 -13 -8 -8 -10 -11 -16 -10 -12 -19 -18 -13 -12 -11 -10 -9 -9 -9 -9 -9 -9 -9 -10 -10 -10 -10 -10 -10 -10 -11 -10 -10 -8
-25 -27 -22 -21 -21 -17 -12 -10 -12 -15 -15 -17 -19 -18 -13 -12 -11 -11 -10 -10 -10 -10 -10 -9 -9 -9 -9 -9 -10 -10 -10 -11 -10 -10 -10 -10 -10 -9
-23 -22 -22 -20 -20 -19 -16 -15 -17 -19 -16 -19 -16 -12 -11 -11 -11 -10 -10 -9 -9 -9 -9 -9 -9 -9 -9 -9 -9 -11 -11 -11 -11 -11 -10 -10 -11 -11
-21 -19 -19 -18 -18 -19 -21 -21 -21 -20 -18 -14 -12 -11 -11 -10 -10 -10 -10 -9 -9 -9 -9 -9 -9 -9 -9 -9 -9 -10 -10 -11 -11 -11 -10 -10 -10 -9
-18 -19 -20 -21 -21 -21 -21 -20 -19 -16 -12 -11 -11 -11 -10 -10 -10 -10 -10 -9 -9 -10 -9 -10 -10 -9 -9 -10 -10 -10 -10 -10 -11 -10 -10 -9 -9 -9
-19 -20 -20 -20 -19 -19 -19 -17 -13 -11 -11 -11 -10 -10 -10 -10 -10 -10 -9 -9 -9 -9 -9 -10 -9 -9 -9 -10 -10 -10 -10 -10 -9 -9 -9 -8 -8 -8
-20 -21 -20 -20 -20 -19 -15 -12 -11 -10 -10 -10 -10 -9 -9 -9 -10 -9 -10 -9 -9 -9 -9 -10 -9 -9 -9 -9 -9 -10 -10 -9 -10 -8 -8 -8 -8 -8
-20 -20 -20 -19 -18 -15 -11 -11 -10 -10 -10 -9 -9 -9 -9 -9 -9 -10 -10 -9 -9 -9 -9 -9 -8 -9 -9 -9 -9 -8 -9 -10 -9 -9 -9 -8 -8 -8
-19 -20 -19 -18 -16 -12 -11 -10 -10 -10 -9 -9 -9 -9 -9 -9 -9 -9 -9 -9 -9 -9 -9 -9 -9 -8 -8 -8 -9 -9 -9 -9 -8 -8 -8 -8 -8 -8
-19 -19 -19 -18 -15 -12 -11 -10 -10 -10 -9 -9 -9 -9 -9 -9 -9 -9 -9 -9 -9 -9 -8 -9 -10 -9 -8 -9 -8 -8 -8 -8 -8 -8 -8 -8 -7 -8
-19 -19 -19 -17 -15 -12 -11 -11 -10 -10 -10 -9 -9 -9 -9 -9 -9 -9 -9 -9 -9 -9 -9 -9 -10 -9 -8 -8 -8 -8 -9 -9 -9 -8 -8 -8 -7 -7
-19 -19 -20 -19 -16 -13 -12 -11 -11 -11 -10 -10 -9 -9 -9 -9 -9 -9 -9 -9 -9 -9 -9 -9 -9 -8 -7 -7 -7 -8 -8 -9 -8 -9 -9 -8 -7 -7

GFSNE_850_dewp_042.txt.gz
Dewpoint
9 9 8 8 8 8 7 5 5 4 2 -1 -1 -1 -5 -4 -2 -0 -4 -8 -9 -10 -7 -2 1 1 -0 -15 -25 -33 -34 -32 -28 -9 -3 -3 -2 -2
9 8 8 7 7 8 7 6 5 4 3 1 -0 2 4 2 1 -1 -2 -6 -8 -1 1 1 1 -5 -17 -22 -26 -32 -31 -28 -13 -4 -3 -3 -3 -2
8 8 7 7 7 7 6 6 5 3 2 3 3 3 0 -0 -2 -1 -5 -3 1 1 2 0 -10 -14 -18 -23 -29 -30 -31 -19 -8 -5 -4 -3 -3 -2
7 7 6 6 6 5 5 4 3 2 2 2 2 2 1 1 -2 -3 -0 1 1 0 -1 -5 -18 -23 -24 -23 -21 -24 -18 -17 -8 -6 -5 -4 -4 -3
6 6 5 4 4 4 3 2 2 2 2 2 2 1 1 -0 -0 -0 -1 -0 -1 -4 -13 -18 -14 -19 -22 -21 -16 -14 -14 -15 -9 -7 -7 -6 -5 -5
6 4 4 3 2 2 1 1 1 1 1 1 1 0 -0 -1 -1 -1 -3 -13 -17 -19 -17 -16 -19 -22 -22 -15 -12 -11 -13 -13 -12 -9 -7 -7 -7 -8
3 2 1 1 0 -0 0 0 0 0 0 -0 -0 -1 -1 -2 -7 -14 -15 -14 -12 -17 -15 -21 -20 -17 -16 -14 -13 -13 -12 -12 -8 -7 -6 -6 -6 -5
0 0 -0 -1 -1 -1 -0 -0 -1 -1 -1 -2 -2 -3 -11 -13 -10 -9 -9 -9 -13 -20 -16 -23 -15 -14 -13 -12 -12 -12 -11 -8 -6 -6 -6 -6 -6 -6
-1 -1 -1 -2 -2 -2 -2 -2 -2 -2 -6 -13 -17 -12 -9 -8 -9 -9 -9 -11 -16 -17 -13 -15 -12 -12 -12 -12 -12 -12 -11 -11 -10 -10 -10 -8 -7 -6
-1 -2 -2 -2 -2 -2 -3 -9 -17 -21 -17 -14 -14 -14 -14 -13 -12 -11 -13 -16 -17 -18 -13 -12 -12 -12 -12 -12 -12 -11 -11 -11 -10 -10 -11 -10 -8 -6
-2 -2 -5 -11 -17 -21 -23 -22 -17 -12 -9 -9 -10 -12 -16 -18 -18 -18 -20 -18 -19 -14 -13 -11 -11 -11 -12 -12 -11 -11 -11 -11 -11 -11 -11 -9 -7 -7
-19 -20 -22 -24 -25 -21 -18 -16 -10 -9 -9 -10 -12 -17 -17 -19 -19 -15 -15 -13 -12 -11 -10 -10 -11 -10 -10 -12 -12 -12 -12 -12 -11 -11 -11 -12 -8 -8
-22 -21 -22 -21 -21 -21 -21 -18 -15 -14 -15 -17 -21 -20 -19 -17 -12 -12 -11 -11 -11 -11 -11 -9 -10 -10 -9 -9 -12 -12 -11 -11 -11 -12 -13 -12 -11 -10
-21 -20 -19 -21 -21 -21 -21 -21 -20 -21 -22 -21 -20 -19 -14 -12 -12 -11 -11 -11 -10 -11 -10 -10 -10 -10 -9 -9 -9 -11 -11 -11 -11 -11 -13 -12 -11 -11
-22 -22 -21 -20 -21 -22 -22 -23 -22 -22 -22 -20 -17 -13 -12 -11 -11 -11 -10 -10 -11 -11 -10 -10 -9 -9 -9 -8 -9 -10 -9 -11 -11 -10 -11 -11 -11 -11
-19 -18 -21 -20 -21 -21 -21 -20 -21 -20 -17 -14 -12 -12 -11 -11 -10 -10 -10 -10 -10 -10 -10 -10 -10 -9 -9 -9 -9 -9 -9 -9 -10 -10 -10 -10 -11 -10
-22 -21 -21 -20 -21 -21 -20 -19 -18 -14 -12 -12 -11 -11 -11 -10 -10 -9 -9 -9 -9 -10 -10 -10 -10 -9 -9 -9 -9 -8 -9 -10 -10 -9 -9 -10 -10 -10
-21 -20 -20 -20 -20 -20 -20 -19 -16 -13 -11 -11 -11 -10 -10 -10 -9 -9 -9 -9 -9 -9 -9 -9 -9 -10 -9 -9 -9 -9 -9 -9 -9 -9 -9 -9 -9 -10
-19 -20 -20 -21 -21 -21 -20 -18 -15 -11 -11 -11 -10 -10 -10 -10 -9 -9 -9 -9 -9 -9 -9 -9 -10 -10 -10 -10 -10 -9 -9 -9 -9 -9 -10 -9 -9 -10
-19 -20 -20 -20 -21 -20 -19 -17 -15 -12 -11 -11 -11 -10 -10 -10 -10 -9 -9 -9 -9 -9 -10 -10 -9 -10 -10 -10 -10 -11 -10 -10 -10 -9 -9 -9 -8 -8
-20 -20 -20 -20 -21 -20 -20 -18 -16 -14 -12 -11 -11 -12 -11 -11 -11 -10 -9 -9 -10 -10 -10 -10 -10 -10 -10 -10 -11 -10 -10 -11 -10 -9 -9 -8 -8 -7
-20 -20 -21 -21 -20 -20 -20 -19 -18 -17 -15 -15 -14 -14 -13 -13 -12 -9 -10 -9 -9 -10 -10 -10 -10 -10 -11 -11 -10 -10 -10 -11 -10 -9 -8 -8 -7 -7
-20 -21 -21 -20 -20 -20 -20 -20 -19 -18 -17 -17 -16 -15 -13 -11 -9 -9 -9 -9 -10 -10 -10 -10 -10 -10 -10 -10 -10 -10 -10 -9 -9 -8 -8 -8 -8 -10

GFSNE_850_dewp_045.txt.gz
Dewpoint
8 8 7 7 8 8 8 7 7 5 4 2 0 0 1 0 2 -2 1 1 2 2 1 -1 -2 -10 -1 2 1 -0 -9 -17 -19 -26 -28 -7 -2 -2
7 7 8 9 8 8 7 7 6 5 4 4 4 4 4 3 2 2 4 3 3 1 -0 -2 -2 1 1 -1 -8 -12 -13 -18 -26 -13 -4 -3 -2 -2
7 7 7 7 7 7 7 5 5 5 4 4 3 3 2 2 3 1 1 1 0 -0 -1 -2 -0 -0 -6 -9 -11 -21 -24 -24 -13 -6 -4 -4 -3 -2
5 5 6 6 5 5 6 5 5 3 2 2 2 2 2 1 2 1 1 0 -1 -1 -1 -1 -0 -2 -10 -13 -16 -12 -17 -14 -9 -5 -5 -4 -4 -3
5 5 5 5 4 4 4 4 3 2 1 1 1 1 1 1 1 -1 -1 -1 -2 -1 -1 -2 -6 -14 -17 -21 -21 -12 -7 -8 -8 -6 -5 -4 -4 -4
4 4 4 4 4 3 2 2 2 1 1 0 1 0 0 0 -1 -1 -2 -2 -2 -6 -12 -14 -16 -17 -21 -23 -15 -12 -13 -13 -13 -11 -7 -7 -6 -6
3 3 3 2 1 1 0 -0 -0 -0 -0 -0 -0 -0 -1 -1 -2 -2 -3 -10 -14 -14 -14 -19 -20 -21 -22 -19 -15 -14 -13 -13 -13 -10 -6 -5 -5 -5
1 0 0 -0 -0 -1 -1 -1 -2 -1 -2 -1 -2 -2 -2 -3 -7 -12 -12 -13 -12 -13 -13 -22 -18 -19 -15 -13 -13 -13 -12 -12 -9 -6 -6 -6 -5 -5
-1 -1 -1 -1 -1 -1 -1 -2 -2 -3 -3 -4 -5 -8 -12 -12 -12 -11 -10 -10 -10 -14 -16 -23 -16 -14 -12 -12 -12 -12 -11 -11 -10 -9 -8 -7 -6 -6
-1 -2 -2 -2 -2 -2 -2 -4 -9 -14 -17 -17 -15 -13 -13 -12 -12 -12 -12 -13 -15 -18 -17 -15 -14 -12 -12 -12 -11 -11 -11 -10 -10 -10 -10 -11 -11 -8
-5 -9 -13 -18 -22 -24 -25 -24 -21 -15 -13 -10 -10 -11 -11 -12 -10 -13 -15 -16 -18 -17 -13 -12 -11 -12 -12 -12 -11 -11 -11 -11 -12 -11 -11 -11 -11 -11
-24 -25 -25 -26 -24 -23 -23 -20 -18 -13 -9 -8 -9 -10 -15 -18 -15 -16 -16 -13 -11 -11 -10 -11 -11 -11 -11 -12 -11 -11 -11 -11 -11 -11 -11 -11 -13 -13
-25 -23 -21 -21 -22 -21 -20 -19 -16 -13 -17 -17 -19 -21 -19 -19 -16 -12 -11 -11 -11 -11 -10 -10 -10 -10 -9 -10 -11 -12 -11 -11 -11 -11 -11 -11 -12 -12
-23 -21 -20 -20 -20 -21 -21 -21 -22 -21 -21 -22 -22 -20 -18 -14 -12 -12 -11 -11 -11 -11 -10 -10 -10 -10 -9 -9 -10 -11 -11 -11 -10 -11 -11 -11 -11 -11
-22 -21 -19 -19 -20 -21 -21 -21 -21 -21 -21 -21 -19 -15 -12 -12 -12 -11 -11 -10 -10 -10 -10 -10 -10 -9 -9 -9 -9 -10 -10 -11 -10 -10 -11 -10 -10 -11
-23 -22 -22 -21 -20 -20 -21 -20 -20 -19 -17 -15 -12 -12 -11 -11 -11 -10 -10 -10 -10 -10 -10 -10 -10 -9 -9 -9 -9 -9 -10 -9 -10 -10 -10 -10 -10 -11
-22 -22 -21 -21 -21 -21 -20 -19 -19 -16 -13 -12 -11 -11 -11 -10 -10 -10 -10 -10 -9 -10 -10 -10 -10 -9 -10 -10 -10 -9 -10 -10 -10 -10 -10 -10 -11 -11
-21 -20 -21 -21 -21 -21 -20 -20 -19 -17 -14 -11 -11 -10 -10 -10 -10 -10 -9 -9 -9 -9 -9 -9 -9 -9 -9 -10 -9 -9 -10 -10 -10 -10 -10 -9 -10 -11
-21 -20 -21 -21 -21 -21 -21 -20 -19 -17 -12 -11 -11 -11 -11 -11 -10 -10 -10 -10 -9 -9 -9 -9 -10 -10 -10 -10 -10 -10 -10 -10 -10 -10 -10 -9 -10 -11
-20 -20 -21 -20 -20 -21 -21 -21 -19 -18 -15 -13 -12 -11 -12 -12 -12 -12 -11 -11 -10 -10 -10 -10 -10 -10 -10 -10 -10 -10 -10 -10 -10 -11 -11 -11 -11 -11
-21 -21 -20 -21 -21 -21 -21 -21 -20 -19 -18 -16 -15 -15 -15 -15 -14 -13 -13 -11 -10 -10 -10 -10 -10 -10 -10 -10 -10 -10 -11 -11 -11 -10 -11 -10 -9 -9
-21 -21 -21 -21 -21 -21 -21 -21 -21 -20 -19 -18 -17 -17 -16 -16 -14 -12 -10 -10 -10 -10 -10 -10 -10 -10 -10 -10 -10 -10 -11 -12 -12 -12 -11 -11 -9 -9
-22 -21 -22 -21 -21 -21 -21 -21 -20 -20 -19 -18 -17 -16 -15 -12 -9 -9 -9 -9 -10 -10 -10 -10 -10 -10 -10 -10 -11 -10 -11 -11 -11 -11 -11 -11 -11 -10

GFSNE_850_dewp_048.txt.gz
Dewpoint
7 7 8 9 9 8 8 8 7 6 6 6 6 5 4 2 2 2 0 -0 2 2 2 2 2 1 1 2 0 -1 1 2 -1 -6 -11 -10 -6 -5
7 6 5 6 8 6 6 6 6 6 5 5 5 4 3 2 1 0 -0 2 2 2 1 1 -0 0 0 -0 -0 -0 0 -2 -4 -9 -6 -3 -2 -2
4 6 6 6 5 6 6 5 5 6 5 4 4 3 3 3 2 2 1 1 1 -0 -1 -0 -1 -1 -1 -1 -1 -2 -3 -6 -7 -8 -4 -3 -3 -3
5 4 6 5 5 5 5 5 4 4 4 4 3 3 2 1 1 1 1 -0 -0 -0 -1 -1 -1 -2 -2 -2 -2 -4 -5 -10 -11 -11 -6 -4 -4 -3
2 3 4 4 4 4 3 3 3 2 1 1 1 1 0 0 -0 -0 -0 -1 -1 -2 -2 -2 -2 -2 -2 -5 -7 -10 -10 -8 -6 -6 -5 -4 -4 -4
2 3 3 3 3 3 3 2 1 1 0 0 -0 -0 -0 -0 -1 -1 -2 -2 -2 -2 -2 -3 -7 -11 -13 -15 -17 -19 -16 -19 -15 -11 -8 -7 -6 -5
2 2 2 2 1 1 1 0 -0 -0 -0 -1 -1 -1 -1 -1 -2 -2 -3 -3 -3 -4 -9 -12 -14 -16 -19 -21 -23 -22 -20 -16 -14 -13 -11 -6 -5 -5
-0 -0 -0 -0 -0 -0 -0 -0 -0 -1 -1 -1 -1 -2 -2 -2 -3 -3 -3 -8 -10 -11 -12 -16 -14 -21 -24 -19 -17 -15 -14 -13 -12 -9 -7 -6 -5 -5
-1 -1 -1 -1 -1 -2 -2 -2 -2 -2 -2 -2 -3 -3 -5 -9 -10 -10 -11 -10 -10 -11 -11 -20 -22 -22 -15 -13 -12 -12 -12 -12 -11 -11 -10 -9 -8 -6
-2 -2 -2 -3 -4 -4 -5 -8 -12 -15 -18 -18 -17 -14 -13 -13 -13 -12 -12 -12 -12 -13 -14 -21 -18 -14 -13 -12 -12 -12 -11 -11 -11 -11 -11 -11 -11 -12
-22 -22 -23 -25 -26 -28 -28 -26 -24 -20 -15 -13 -13 -11 -11 -11 -12 -14 -13 -13 -17 -21 -15 -14 -13 -12 -13 -13 -12 -12 -11 -11 -11 -11 -11 -11 -11 -11
-28 -28 -26 -24 -24 -23 -24 -23 -22 -20 -17 -14 -13 -12 -12 -15 -19 -17 -14 -16 -14 -12 -11 -11 -12 -11 -12 -12 -11 -11 -11 -11 -11 -11 -11 -11 -11 -11
-25 -24 -23 -24 -24 -23 -23 -23 -22 -21 -22 -21 -22 -22 -22 -20 -19 -17 -13 -11 -11 -11 -11 -10 -10 -10 -10 -11 -12 -11 -11 -11 -11 -10 -10 -11 -11 -11
-22 -22 -22 -23 -23 -22 -22 -21 -21 -22 -22 -22 -22 -20 -19 -17 -14 -12 -11 -11 -11 -11 -10 -10 -10 -10 -10 -10 -11 -12 -11 -11 -11 -11 -10 -10 -10 -10
-23 -22 -20 -20 -20 -20 -21 -21 -21 -21 -21 -21 -20 -17 -14 -12 -12 -11 -11 -11 -10 -10 -10 -10 -10 -9 -10 -10 -10 -11 -10 -12 -11 -11 -11 -11 -11 -11
-21 -21 -21 -21 -20 -20 -20 -20 -20 -19 -18 -16 -14 -12 -12 -11 -11 -11 -10 -10 -10 -10 -9 -9 -9 -9 -10 -10 -10 -10 -11 -10 -11 -11 -11 -11 -11 -11
-19 -19 -20 -21 -21 -21 -21 -21 -20 -19 -17 -15 -13 -12 -11 -11 -10 -10 -10 -10 -10 -9 -9 -9 -9 -9 -9 -9 -9 -10 -10 -10 -10 -10 -10 -10 -10 -11
-20 -20 -19 -21 -21 -21 -22 -22 -21 -20 -18 -15 -12 -11 -11 -11 -10 -10 -10 -10 -10 -10 -9 -9 -9 -10 -10 -10 -10 -10 -10 -10 -10 -10 -10 -10 -10 -10
-21 -21 -21 -21 -21 -21 -22 -22 -22 -20 -18 -16 -13 -12 -11 -11 -11 -11 -12 -12 -11 -11 -10 -10 -10 -10 -10 -10 -10 -10 -10 -10 -10 -10 -10 -10 -11 -11
-22 -22 -22 -21 -21 -22 -22 -22 -22 -21 -20 -18 -16 -15 -13 -14 -14 -14 -14 -14 -13 -11 -10 -10 -10 -9 -10 -10 -10 -10 -10 -10 -11 -11 -11 -11 -11 -12
-22 -22 -22 -22 -22 -22 -22 -22 -22 -22 -21 -20 -19 -18 -17 -17 -16 -16 -15 -14 -12 -10 -10 -10 -10 -10 -10 -10 -10 -11 -11 -11 -11 -11 -11 -11 -11 -11
-22 -22 -22 -22 -22 -23 -22 -22 -22 -22 -21 -20 -19 -18 -18 -17 -16 -14 -12 -9 -9 -9 -9 -10 -10 -10 -10 -10 -10 -10 -11 -12 -12 -11 -11 -11 -10 -10
-23 -23 -23 -22 -22 -22 -22 -22 -22 -21 -20 -19 -18 -17 -15 -12 -10 -9 -9 -9 -9 -9 -10 -10 -10 -10 -10 -10 -10 -10 -11 -11 -11 -11 -12 -12 -12 -11

GFSNE_850_dewp_051.txt.gz
Dewpoint
5 7 7 7 6 5 6 7 7 6 6 5 6 5 5 4 4 4 5 3 3 2 2 1 1 1 1 1 -0 0 0 -0 -0 0 0 1 -1 -2
7 8 8 7 7 8 7 6 6 6 5 5 5 5 5 4 4 3 3 3 2 1 1 1 1 1 1 -0 -1 -0 -0 -1 -0 -0 -1 -2 -1 -1
4 4 5 5 5 6 6 6 5 5 4 4 4 4 4 3 3 2 0 -0 0 -0 -1 -0 -0 -0 -0 -1 -1 -1 -1 -1 -1 -2 -3 -2 -2 -2
3 5 4 4 4 4 4 4 4 3 4 3 3 3 2 2 2 -0 -1 -1 -1 -1 -1 -1 -1 -1 -1 -2 -2 -2 -1 -2 -3 -3 -5 -5 -3 -3
1 1 1 2 3 3 3 3 3 2 2 2 2 1 1 1 1 -0 -0 -0 -1 -1 -1 -2 -2 -1 -2 -2 -3 -3 -3 -4 -9 -7 -5 -4 -4 -4
2 2 2 2 2 2 2 2 2 1 1 0 0 -0 -0 -0 -0 -1 -1 -2 -2 -2 -2 -2 -2 -2 -2 -3 -5 -9 -13 -15 -18 -15 -11 -8 -8 -6
1 2 2 1 1 1 0 0 0 -0 -0 -0 -1 -1 -1 -1 -1 -2 -2 -2 -2 -3 -3 -3 -4 -8 -11 -13 -16 -20 -21 -22 -20 -16 -14 -14 -9 -5
-1 -1 -1 -1 -1 -1 -1 -1 -1 -1 -1 -1 -1 -2 -2 -2 -3 -3 -3 -4 -6 -7 -11 -13 -13 -15 -17 -19 -23 -26 -22 -19 -18 -15 -9 -6 -5 -5
-2 -2 -2 -2 -2 -2 -2 -2 -2 -2 -3 -3 -3 -4 -4 -7 -9 -11 -11 -11 -12 -13 -14 -19 -19 -21 -24 -25 -22 -17 -14 -13 -12 -11 -9 -6 -6 -5
-22 -22 -21 -21 -23 -25 -26 -25 -24 -23 -21 -21 -21 -18 -16 -15 -14 -14 -14 -14 -14 -15 -16 -21 -26 -23 -15 -14 -13 -12 -12 -12 -11 -11 -11 -10 -9 -10
-30 -29 -28 -27 -25 -27 -26 -26 -24 -23 -19 -16 -14 -11 -11 -11 -11 -13 -16 -19 -18 -20 -18 -15 -14 -13 -12 -12 -12 -12 -12 -11 -11 -10 -11 -11 -11 -12
-29 -27 -26 -25 -25 -25 -26 -24 -23 -22 -20 -17 -15 -14 -14 -15 -16 -18 -18 -17 -16 -13 -12 -11 -11 -11 -12 -11 -11 -10 -10 -10 -10 -10 -11 -11 -11 -11
-26 -25 -24 -24 -24 -24 -23 -23 -22 -21 -21 -23 -23 -23 -23 -22 -20 -19 -18 -14 -12 -11 -11 -10 -10 -10 -9 -11 -12 -11 -10 -10 -10 -11 -11 -10 -10 -10
-24 -24 -23 -24 -24 -23 -23 -22 -22 -23 -23 -23 -23 -22 -21 -20 -17 -14 -13 -12 -12 -11 -11 -10 -10 -10 -10 -10 -10 -12 -12 -12 -11 -11 -11 -11 -11 -10
-24 -23 -22 -22 -22 -22 -22 -22 -23 -22 -22 -21 -21 -19 -17 -14 -13 -12 -12 -12 -11 -11 -10 -10 -10 -9 -10 -10 -10 -11 -11 -12 -12 -12 -12 -11 -11 -10
-23 -22 -21 -21 -22 -22 -22 -22 -22 -21 -20 -19 -16 -14 -13 -12 -12 -11 -11 -10 -10 -10 -9 -9 -9 -9 -9 -9 -9 -10 -10 -10 -10 -10 -10 -10 -10 -11
-23 -22 -21 -21 -22 -22 -22 -22 -22 -21 -21 -19 -18 -15 -12 -12 -11 -11 -10 -10 -10 -10 -10 -10 -9 -9 -9 -10 -10 -10 -10 -10 -10 -10 -10 -10 -10 -10
-23 -23 -22 -22 -22 -22 -22 -22 -22 -22 -21 -20 -18 -14 -12 -12 -12 -11 -11 -11 -11 -12 -11 -11 -11 -10 -10 -10 -10 -10 -10 -10 -10 -10 -10 -10 -10 -10
-23 -22 -22 -22 -22 -22 -22 -22 -23 -22 -22 -21 -19 -17 -15 -14 -13 -12 -13 -13 -14 -13 -13 -12 -11 -10 -9 -9 -10 -10 -10 -10 -10 -10 -11 -11 -11 -12
-23 -23 -23 -23 -23 -23 -23 -23 -23 -23 -22 -22 -21 -20 -19 -17 -17 -16 -16 -16 -16 -14 -12 -10 -9 -9 -10 -10 -10 -10 -11 -11 -11 -10 -11 -11 -12 -12
-24 -23 -23 -24 -24 -24 -23 -23 -23 -23 -22 -22 -22 -21 -20 -19 -18 -18 -17 -16 -15 -12 -9 -9 -9 -9 -10 -10 -10 -11 -11 -10 -11 -11 -11 -11 -11 -12
-24 -24 -24 -24 -23 -23 -23 -23 -23 -22 -22 -21 -21 -20 -19 -19 -18 -16 -14 -11 -9 -9 -9 -9 -9 -10 -10 -10 -10 -10 -11 -11 -11 -11 -11 -11 -10 -10
-23 -24 -24 -24 -23 -23 -23 -22 -22 -21 -20 -19 -18 -17 -16 -13 -11 -9 -9 -9 -9 -9 -9 -9 -10 -10 -10 -10 -10 -10 -11 -11 -11 -11 -12 -12 -12 -12

GFSNE_850_dewp_057.txt.gz
Dewpoint
10 9 9 7 7 6 8 6 6 6 5 5 4 4 3 3 4 3 3 3 3 2 2 3 4 4 5 3 4 3 3 2 2 2 1 1 1 1
8 7 8 7 6 6 6 6 5 5 5 5 4 3 3 3 2 2 2 2 2 2 2 2 3 4 3 3 2 2 2 2 1 1 0 1 1 1
4 4 4 5 6 5 4 4 4 4 4 3 3 2 2 2 1 1 2 2 1 1 2 2 3 3 2 1 2 0 1 0 0 -0 0 0 0 0
2 2 1 1 2 3 3 3 3 3 2 2 2 2 2 1 1 1 1 1 2 1 1 2 2 1 1 1 -1 -0 -0 -0 -1 -1 -1 -1 -1 -0
1 1 1 2 2 2 2 1 1 1 1 1 1 1 0 0 0 0 0 0 0 -0 -0 0 -0 -1 -1 -1 -1 -1 -1 -2 -2 -2 -2 -1 -1 -2
2 2 1 2 2 1 1 1 1 1 1 0 0 -0 -0 -0 -0 -0 0 -0 -1 -1 -1 -1 -1 -1 -1 -2 -2 -2 -2 -2 -2 -2 -2 -2 -3 -9
1 0 -0 -1 -0 -0 -0 -0 -1 -1 -1 -1 -1 -1 -1 -1 -1 -2 -2 -2 -2 -3 -2 -2 -3 -3 -3 -3 -3 -2 -2 -3 -3 -6 -11 -15 -17 -12
-2 -3 -3 -3 -4 -4 -4 -6 -7 -5 -4 -3 -3 -3 -4 -4 -4 -5 -7 -9 -11 -13 -13 -14 -15 -15 -15 -16 -17 -18 -18 -19 -19 -20 -22 -24 -22 -13
-20 -24 -24 -25 -28 -28 -28 -29 -29 -29 -29 -27 -24 -23 -22 -21 -21 -20 -19 -19 -18 -19 -21 -24 -25 -25 -25 -26 -26 -26 -25 -25 -25 -24 -20 -16 -11 -7
-31 -30 -30 -30 -29 -29 -29 -28 -27 -26 -25 -25 -24 -22 -21 -20 -18 -18 -18 -19 -20 -23 -24 -25 -23 -19 -16 -16 -16 -16 -16 -16 -14 -14 -11 -7 -5 -5
-28 -27 -28 -27 -27 -28 -27 -26 -25 -25 -24 -24 -24 -24 -23 -22 -22 -21 -20 -22 -23 -22 -18 -14 -14 -14 -13 -13 -13 -13 -13 -13 -12 -11 -10 -10 -9 -9
-27 -26 -25 -26 -26 -27 -26 -25 -25 -24 -23 -23 -24 -24 -25 -25 -25 -24 -23 -22 -21 -15 -13 -13 -13 -12 -12 -12 -11 -12 -12 -12 -11 -11 -11 -11 -10 -10
-26 -25 -25 -25 -25 -25 -26 -25 -25 -25 -25 -25 -25 -25 -25 -24 -23 -23 -20 -17 -14 -13 -12 -12 -12 -11 -11 -11 -12 -11 -11 -11 -11 -12 -11 -10 -10 -11
-25 -25 -26 -26 -25 -24 -24 -24 -24 -24 -24 -24 -24 -24 -23 -22 -19 -16 -14 -13 -13 -12 -12 -12 -11 -11 -10 -10 -10 -10 -10 -10 -10 -10 -11 -11 -11 -10
-26 -25 -26 -25 -24 -23 -23 -24 -24 -24 -24 -24 -24 -23 -20 -17 -15 -14 -13 -13 -12 -12 -11 -10 -10 -10 -10 -10 -10 -10 -10 -10 -10 -10 -10 -10 -10 -11
-26 -25 -24 -24 -24 -24 -23 -24 -23 -24 -24 -24 -24 -23 -21 -18 -15 -13 -13 -13 -12 -11 -11 -10 -11 -11 -11 -11 -11 -11 -10 -10 -10 -10 -10 -10 -10 -10
-28 -24 -23 -24 -24 -24 -24 -24 -24 -24 -24 -25 -25 -24 -22 -19 -17 -15 -14 -13 -13 -13 -12 -12 -13 -13 -13 -13 -12 -11 -10 -10 -10 -10 -10 -10 -10 -10
-26 -23 -23 -24 -25 -25 -24 -24 -24 -24 -24 -24 -24 -24 -23 -22 -21 -19 -18 -17 -16 -15 -15 -15 -15 -15 -14 -12 -11 -10 -10 -10 -10 -10 -10 -11 -11 -12
-24 -24 -24 -25 -25 -25 -24 -24 -24 -24 -24 -24 -23 -23 -23 -22 -22 -21 -20 -20 -19 -18 -17 -16 -16 -14 -11 -10 -10 -10 -10 -10 -10 -10 -10 -10 -11 -11
-23 -24 -25 -25 -25 -25 -25 -25 -24 -24 -24 -23 -23 -22 -22 -22 -21 -21 -20 -19 -19 -18 -16 -14 -11 -9 -10 -9 -10 -10 -10 -10 -10 -10 -10 -10 -11 -11
-22 -23 -24 -24 -25 -25 -24 -24 -24 -23 -23 -22 -22 -21 -20 -20 -19 -18 -17 -16 -15 -13 -11 -9 -9 -9 -10 -10 -10 -10 -10 -10 -10 -10 -10 -10 -11 -11
-21 -21 -21 -21 -21 -21 -20 -19 -18 -17 -16 -15 -15 -14 -13 -12 -12 -11 -11 -10 -9 -9 -9 -9 -10 -10 -10 -10 -10 -10 -10 -11 -11 -11 -11 -11 -11 -10
-21 -20 -19 -18 -17 -15 -13 -11 -10 -10 -10 -9 -9 -9 -9 -9 -9 -9 -9 -9 -9 -10 -10 -10 -10 -11 -11 -11 -11 -11 -11 -11 -11 -12 -12 -12 -12 -12

GFSNE_850_dewp_060.txt.gz
Dewpoint
8 8 8 9 9 9 8 7 7 7 6 5 4 4 4 3 3 3 3 2 2 2 2 2 2 2 4 6 5 5 5 4 4 3 3 2 2 2
7 7 8 7 8 8 8 7 6 6 5 5 4 5 4 3 2 2 1 1 2 1 1 2 2 2 3 4 4 4 4 3 3 3 2 1 2 1
6 5 6 6 5 6 6 5 5 4 4 4 4 3 2 2 2 2 0 1 2 1 1 2 2 3 3 3 3 3 2 2 2 2 1 1 0 1
2 3 3 2 1 1 3 4 3 3 2 2 2 2 2 1 1 1 1 0 0 1 1 2 2 2 2 2 2 2 1 1 0 0 -0 -0 0 1
1 1 1 1 1 1 2 2 2 1 1 1 1 1 1 0 0 0 0 0 0 -0 -0 -0 1 1 1 1 1 1 0 -2 -2 -2 -1 -1 -1 -1
1 1 1 1 1 1 1 1 1 1 1 1 1 0 -0 -1 -1 -1 -1 -1 -1 -1 -1 -1 -1 -1 -1 -1 -1 -1 -2 -2 -2 -2 -2 -2 -2 -2
1 1 0 -1 -1 -0 -0 -0 -0 -1 -1 -1 -1 -2 -2 -2 -2 -2 -3 -3 -4 -3 -3 -3 -2 -2 -2 -2 -2 -2 -2 -2 -2 -2 -2 -2 -2 -3
-1 -2 -5 -9 -10 -15 -15 -13 -15 -14 -9 -7 -6 -5 -6 -8 -12 -14 -18 -21 -13 -20 -23 -23 -24 -24 -24 -24 -21 -18 -16 -13 -11 -11 -12 -15 -18 -20
-15 -21 -25 -27 -30 -29 -30 -30 -30 -30 -30 -29 -26 -23 -21 -22 -22 -21 -20 -20 -17 -18 -24 -25 -25 -26 -27 -28 -28 -28 -28 -27 -26 -25 -25 -24 -23 -20
-32 -31 -30 -29 -27 -29 -28 -27 -26 -26 -26 -26 -25 -23 -22 -22 -21 -20 -20 -21 -21 -18 -26 -20 -17 -16 -15 -16 -16 -17 -17 -17 -18 -17 -16 -15 -9 -5
-29 -28 -28 -27 -27 -27 -28 -26 -25 -25 -25 -25 -25 -25 -25 -25 -25 -23 -21 -21 -17 -15 -19 -15 -13 -14 -13 -13 -13 -13 -13 -13 -13 -13 -12 -8 -7 -6
-27 -26 -27 -27 -28 -28 -27 -25 -25 -24 -23 -23 -24 -24 -25 -25 -26 -25 -24 -23 -21 -13 -15 -14 -13 -13 -11 -11 -12 -12 -12 -12 -12 -12 -12 -12 -12 -11
-25 -26 -26 -27 -27 -28 -27 -26 -24 -24 -24 -24 -25 -25 -25 -25 -24 -23 -21 -17 -15 -14 -13 -13 -13 -12 -11 -11 -12 -11 -11 -11 -10 -11 -12 -12 -12 -11
-25 -26 -26 -27 -27 -27 -26 -25 -25 -25 -24 -24 -24 -24 -24 -24 -21 -17 -15 -14 -13 -13 -12 -12 -12 -11 -11 -11 -10 -10 -10 -10 -10 -10 -10 -10 -11 -12
-25 -26 -28 -27 -26 -25 -24 -25 -25 -24 -24 -24 -24 -24 -23 -21 -18 -16 -15 -14 -13 -13 -12 -12 -11 -11 -10 -11 -11 -11 -11 -11 -11 -10 -10 -10 -10 -10
-25 -25 -26 -26 -25 -25 -24 -24 -24 -24 -24 -24 -25 -24 -24 -21 -19 -16 -14 -14 -13 -13 -12 -12 -11 -11 -11 -12 -12 -12 -12 -12 -11 -10 -10 -10 -10 -10
-26 -26 -24 -24 -24 -25 -25 -24 -24 -25 -25 -25 -25 -25 -24 -23 -21 -20 -18 -17 -16 -15 -12 -12 -13 -13 -14 -14 -14 -13 -12 -11 -10 -10 -10 -10 -10 -10
-24 -23 -22 -24 -24 -24 -24 -25 -25 -25 -25 -25 -25 -24 -24 -23 -23 -22 -21 -20 -19 -18 -17 -16 -16 -16 -16 -15 -13 -12 -10 -10 -10 -10 -10 -10 -10 -10
-23 -21 -22 -24 -25 -25 -25 -25 -25 -25 -24 -24 -24 -24 -23 -23 -22 -22 -21 -21 -20 -19 -19 -18 -17 -16 -14 -11 -10 -10 -10 -10 -10 -10 -10 -10 -10 -10
-22 -21 -22 -23 -24 -25 -25 -24 -24 -24 -24 -23 -23 -23 -22 -21 -21 -20 -20 -19 -19 -18 -17 -16 -14 -12 -9 -9 -10 -10 -10 -10 -10 -10 -10 -10 -10 -10
-23 -22 -21 -22 -22 -23 -23 -23 -22 -22 -21 -21 -20 -19 -19 -18 -17 -15 -14 -13 -13 -12 -11 -10 -9 -9 -9 -10 -10 -10 -10 -10 -10 -10 -11 -11 -11 -11
-25 -23 -21 -20 -20 -20 -20 -19 -17 -14 -12 -11 -11 -11 -11 -10 -10 -9 -9 -9 -9 -9 -9 -10 -10 -10 -10 -10 -10 -11 -11 -12 -12 -11 -11 -11 -11 -11
-24 -24 -22 -20 -19 -18 -16 -13 -11 -10 -10 -9 -9 -9 -9 -9 -9 -10 -10 -10 -10 -10 -10 -11 -11 -12 -12 -11 -11 -11 -11 -11 -11 -12 -12 -12 -12 -12

GFSNE_850_dewp_063.txt.gz
Dewpoint
5 8 8 8 7 8 9 9 8 8 7 6 6 5 4 4 4 3 2 2 2 1 1 2 2 2 2 2 2 4 6 5 3 4 5 4 4 4
6 6 8 8 8 7 7 8 7 7 7 6 5 4 4 4 3 3 2 2 1 1 1 1 1 1 2 2 3 4 4 4 4 4 3 3 3 2
6 6 6 6 6 6 6 6 6 5 5 4 4 4 4 3 2 2 1 1 1 1 1 1 2 2 2 3 3 3 4 4 4 4 3 3 3 2
3 3 3 4 4 3 2 3 3 3 3 3 3 2 2 2 1 1 0 0 0 0 0 0 1 2 2 3 3 3 3 3 2 1 1 1 1 1
2 2 2 2 1 1 1 2 2 2 1 1 1 1 1 1 1 -0 0 0 0 0 -0 -0 -0 1 1 1 1 2 1 0 0 0 -1 -2 -1 -1
2 1 1 1 1 1 1 1 1 1 1 1 1 1 0 -0 -1 -1 -1 -1 -1 -1 -1 -1 -1 -1 -1 -1 -0 -1 -1 -1 -1 -2 -2 -2 -2 -2
1 1 1 1 0 0 -0 -0 -0 -0 -1 -1 -1 -1 -2 -3 -3 -3 -4 -5 -6 -10 -7 -4 -3 -3 -3 -3 -3 -2 -2 -2 -2 -2 -2 -2 -2 -2
0 -1 -2 -8 -11 -13 -16 -13 -12 -15 -13 -9 -6 -3 -4 -7 -10 -15 -19 -22 -15 -15 -20 -24 -26 -26 -26 -25 -26 -25 -23 -17 -12 -8 -6 -5 -4 -5
-4 -12 -20 -25 -31 -30 -31 -32 -32 -31 -31 -29 -21 -18 -16 -18 -20 -20 -19 -20 -17 -17 -24 -28 -25 -27 -28 -27 -29 -28 -29 -29 -29 -28 -27 -26 -25 -24
-25 -29 -30 -29 -28 -29 -30 -30 -30 -29 -28 -27 -26 -26 -25 -23 -22 -22 -22 -23 -22 -14 -21 -24 -19 -18 -17 -16 -17 -17 -17 -17 -18 -18 -20 -20 -20 -20
-29 -28 -27 -27 -27 -29 -29 -28 -27 -26 -27 -27 -27 -28 -27 -27 -26 -25 -25 -23 -22 -14 -19 -16 -15 -15 -15 -14 -14 -14 -13 -13 -14 -14 -14 -14 -14 -11
-27 -26 -26 -27 -29 -29 -29 -26 -25 -23 -24 -25 -26 -27 -27 -27 -27 -27 -26 -25 -23 -16 -12 -14 -15 -14 -14 -11 -13 -13 -13 -12 -12 -12 -13 -13 -12 -13
-26 -25 -26 -27 -29 -30 -28 -26 -25 -23 -25 -26 -25 -26 -26 -27 -26 -25 -23 -20 -17 -15 -15 -14 -14 -14 -13 -13 -13 -12 -11 -11 -11 -11 -11 -11 -12 -12
-25 -25 -26 -27 -30 -28 -27 -26 -26 -26 -26 -25 -25 -25 -25 -25 -25 -22 -18 -16 -15 -14 -14 -14 -13 -13 -12 -12 -12 -11 -11 -11 -11 -11 -11 -10 -10 -10
-24 -25 -28 -29 -28 -26 -25 -25 -26 -26 -26 -25 -25 -25 -26 -25 -23 -20 -18 -16 -15 -14 -14 -13 -13 -12 -12 -12 -12 -13 -12 -13 -12 -11 -10 -11 -10 -10
-24 -24 -25 -27 -26 -26 -26 -25 -25 -25 -25 -25 -25 -25 -25 -25 -23 -21 -19 -17 -16 -15 -15 -14 -13 -12 -12 -12 -13 -14 -13 -13 -13 -12 -11 -10 -10 -10
-24 -24 -25 -23 -23 -25 -25 -25 -25 -25 -25 -25 -25 -25 -24 -24 -23 -22 -21 -20 -19 -19 -17 -15 -15 -15 -15 -15 -15 -14 -14 -14 -12 -11 -10 -10 -10 -10
-25 -24 -22 -21 -22 -23 -24 -25 -25 -25 -25 -25 -25 -24 -24 -23 -23 -23 -22 -22 -21 -20 -18 -17 -14 -14 -16 -16 -15 -14 -12 -11 -10 -10 -10 -9 -10 -11
-26 -23 -22 -20 -21 -23 -24 -24 -24 -24 -25 -25 -24 -24 -24 -23 -23 -22 -22 -21 -20 -20 -19 -18 -16 -14 -13 -14 -13 -10 -10 -9 -9 -10 -10 -10 -10 -10
-24 -23 -22 -21 -21 -22 -23 -24 -24 -24 -24 -23 -23 -23 -22 -22 -21 -20 -19 -19 -17 -16 -15 -15 -14 -13 -12 -10 -9 -10 -10 -10 -10 -10 -10 -11 -11 -11
-21 -22 -23 -22 -22 -21 -21 -22 -22 -22 -21 -20 -18 -17 -16 -15 -15 -14 -12 -11 -11 -10 -10 -10 -10 -10 -10 -10 -10 -11 -11 -12 -12 -12 -12 -11 -12 -11
-20 -20 -22 -23 -23 -21 -20 -20 -19 -18 -16 -13 -11 -10 -10 -10 -10 -10 -10 -10 -10 -10 -10 -11 -11 -10 -11 -11 -11 -12 -12 -12 -11 -11 -11 -11 -11 -10
-8 -6 -12 -23 -24 -22 -20 -18 -17 -15 -12 -11 -10 -10 -9 -9 -9 -9 -10 -11 -11 -12 -12 -12 -12 -11 -12 -11 -11 -10 -11 -12 -11 -12 -12 -12 -12 -12

GFSNE_850_dewp_066.txt.gz
Dewpoint
2 4 4 7 7 7 7 6 8 8 8 7 7 6 6 5 4 4 4 3 2 1 1 0 1 1 2 2 2 2 2 3 5 6 3 4 6 5
5 6 6 6 7 6 8 6 8 8 7 7 6 6 5 5 4 3 3 2 1 1 0 1 1 2 2 3 3 3 4 4 4 3 4 5 5 5
5 5 5 5 5 6 6 6 6 6 6 6 5 5 4 3 3 3 2 1 0 0 0 0 1 2 2 2 3 3 3 4 4 4 4 4 4 3
3 4 5 5 4 4 4 5 5 5 4 4 3 3 2 2 2 1 1 0 0 0 0 0 0 1 1 2 2 3 3 3 3 3 2 1 1 0
2 2 3 3 3 2 1 1 2 2 2 2 2 2 1 1 1 1 -0 -1 -0 -0 -0 -0 -0 -0 0 1 0 1 0 0 1 1 0 0 0 -1
2 2 1 1 1 1 1 1 1 1 1 1 1 0 0 -0 -0 -1 -1 -1 -2 -2 -2 -2 -1 -1 -1 -1 -1 -1 -0 -0 -0 -1 -1 -1 -1 -2
2 2 1 1 1 1 1 0 0 0 0 -0 -1 -1 -3 -7 -7 -7 -6 -7 -11 -16 -18 -17 -14 -10 -7 -5 -4 -3 -3 -2 -2 -2 -2 -2 -2 -2
1 1 0 -0 -3 -4 -6 -9 -9 -11 -12 -9 -10 -13 -10 -11 -18 -20 -21 -24 -24 -23 -23 -21 -26 -27 -26 -26 -28 -29 -29 -28 -26 -23 -17 -12 -9 -8
-0 -1 -5 -15 -24 -29 -30 -31 -32 -32 -31 -29 -23 -20 -17 -18 -20 -22 -23 -24 -25 -24 -27 -27 -28 -25 -27 -25 -24 -22 -24 -25 -26 -28 -29 -29 -28 -27
-7 -17 -26 -29 -28 -28 -29 -29 -29 -28 -27 -27 -25 -24 -23 -24 -24 -24 -24 -25 -25 -25 -23 -26 -23 -20 -18 -18 -17 -17 -17 -16 -17 -17 -18 -19 -20 -21
-29 -30 -27 -26 -25 -27 -29 -28 -28 -27 -27 -27 -27 -27 -27 -28 -28 -28 -28 -28 -28 -22 -21 -18 -18 -17 -16 -16 -15 -14 -14 -14 -14 -14 -14 -14 -14 -14
-27 -26 -25 -26 -27 -28 -29 -29 -27 -27 -25 -25 -24 -26 -27 -28 -28 -29 -28 -28 -26 -21 -15 -15 -16 -15 -15 -15 -14 -14 -13 -13 -13 -13 -12 -13 -13 -13
-25 -24 -24 -25 -27 -28 -29 -29 -27 -26 -26 -25 -26 -27 -27 -27 -27 -27 -26 -23 -19 -17 -16 -15 -15 -14 -14 -15 -15 -13 -13 -12 -12 -12 -11 -11 -11 -11
-25 -24 -24 -25 -28 -29 -29 -28 -27 -26 -26 -26 -26 -26 -26 -26 -26 -25 -22 -19 -17 -16 -15 -14 -14 -14 -14 -14 -15 -14 -13 -13 -13 -13 -12 -11 -11 -11
-26 -24 -25 -27 -28 -27 -26 -26 -28 -27 -26 -26 -26 -26 -26 -26 -25 -25 -22 -19 -17 -16 -15 -14 -14 -14 -14 -14 -14 -15 -15 -15 -13 -12 -12 -12 -12 -11
-25 -24 -23 -24 -26 -26 -25 -25 -26 -26 -26 -26 -26 -26 -24 -25 -25 -25 -24 -21 -20 -19 -18 -17 -16 -15 -14 -14 -14 -15 -15 -15 -14 -14 -13 -12 -11 -11
-26 -25 -23 -23 -23 -22 -23 -24 -26 -26 -26 -26 -26 -26 -25 -25 -25 -24 -24 -23 -22 -22 -21 -20 -19 -18 -18 -17 -16 -16 -16 -15 -14 -12 -11 -10 -11 -11
-27 -27 -25 -24 -22 -21 -22 -23 -24 -25 -26 -26 -26 -25 -25 -25 -24 -24 -23 -23 -22 -21 -21 -20 -19 -18 -18 -16 -15 -15 -14 -13 -11 -10 -10 -9 -10 -11
-23 -25 -25 -24 -22 -21 -22 -23 -24 -24 -25 -25 -25 -25 -24 -24 -23 -23 -22 -22 -21 -20 -19 -19 -18 -17 -15 -14 -13 -12 -11 -11 -10 -10 -10 -10 -10 -12
-22 -22 -22 -23 -23 -21 -21 -21 -22 -23 -24 -24 -23 -23 -22 -21 -20 -19 -19 -18 -16 -15 -13 -12 -12 -12 -11 -11 -10 -12 -11 -11 -11 -11 -12 -12 -13 -13
-20 -20 -20 -21 -22 -23 -23 -21 -20 -21 -22 -22 -21 -18 -15 -13 -11 -11 -11 -11 -11 -10 -10 -11 -11 -11 -10 -11 -10 -12 -12 -13 -13 -12 -11 -11 -11 -12
-17 -13 -13 -11 -18 -21 -23 -23 -20 -19 -19 -19 -16 -12 -11 -10 -10 -10 -9 -9 -9 -10 -11 -12 -12 -12 -12 -11 -11 -13 -14 -12 -12 -12 -12 -12 -11 -11
-6 -4 -5 -10 -5 -5 -12 -10 -14 -19 -15 -17 -13 -11 -9 -10 -10 -10 -10 -9 -9 -10 -10 -11 -11 -12 -12 -12 -12 -11 -11 -11 -12 -12 -12 -12 -12 -12

GFSNE_850_dewp_069.txt.gz
Dewpoint
-0 2 2 5 6 6 7 7 8 8 6 7 7 7 7 6 5 4 4 4 3 2 1 0 1 2 3 3 4 2 2 1 2 3 6 6 6 5
-1 1 3 6 5 6 6 6 7 8 7 7 7 7 5 4 4 4 4 2 2 1 0 1 1 2 3 3 3 3 3 4 4 5 5 4 4 5
-0 1 4 5 5 5 6 6 7 7 7 6 6 5 5 5 3 2 2 1 1 0 0 -0 1 1 1 2 2 2 2 2 3 4 3 3 4 5
-0 1 3 4 4 4 5 5 5 6 6 6 5 4 4 2 2 2 1 1 -0 0 0 -0 -0 -0 1 1 1 2 2 3 3 4 4 3 3 3
2 2 2 2 2 3 3 2 2 3 3 3 3 3 2 2 1 1 1 -0 -1 -1 -1 -1 -1 -1 -1 -0 1 0 0 0 0 0 2 1 0 0
2 2 2 2 2 2 2 1 1 1 1 2 2 1 1 0 0 -0 -1 -1 -1 -2 -3 -3 -3 -3 -2 -1 -1 -1 -1 -1 -1 -1 -0 -0 -0 -0
2 2 2 2 1 1 1 1 1 1 1 0 0 -0 -2 -4 -8 -6 -5 -6 -9 -13 -17 -19 -21 -21 -19 -16 -9 -4 -3 -2 -2 -2 -2 -2 -2 -1
1 2 1 1 1 -0 -0 -1 -2 -3 -4 -5 -3 -8 -12 -11 -12 -15 -20 -22 -24 -24 -23 -21 -24 -26 -26 -27 -28 -30 -31 -31 -30 -28 -27 -26 -23 -19
1 1 0 -2 -10 -18 -25 -29 -31 -31 -32 -27 -22 -18 -18 -18 -16 -22 -25 -26 -25 -25 -27 -26 -28 -27 -25 -24 -22 -20 -21 -22 -24 -25 -26 -28 -29 -29
-0 -1 -6 -18 -28 -27 -28 -28 -28 -27 -27 -27 -26 -25 -24 -23 -22 -24 -25 -25 -25 -26 -24 -25 -24 -20 -18 -17 -17 -16 -17 -16 -16 -16 -16 -17 -18 -18
-7 -17 -26 -26 -25 -25 -26 -27 -27 -26 -25 -27 -28 -28 -28 -27 -28 -28 -28 -28 -27 -26 -21 -19 -18 -17 -17 -16 -15 -15 -15 -15 -14 -14 -14 -14 -14 -15
-28 -27 -26 -25 -25 -26 -27 -28 -26 -25 -24 -24 -24 -26 -27 -27 -28 -29 -28 -28 -27 -24 -17 -16 -17 -16 -15 -15 -14 -14 -14 -14 -13 -13 -12 -12 -12 -12
-26 -24 -23 -23 -25 -26 -29 -29 -27 -27 -25 -26 -26 -27 -27 -27 -27 -27 -26 -25 -22 -19 -18 -16 -16 -15 -15 -15 -15 -15 -14 -13 -12 -12 -12 -12 -12 -11
-24 -23 -23 -23 -25 -28 -29 -29 -28 -28 -27 -27 -26 -26 -26 -27 -27 -26 -25 -22 -20 -17 -16 -16 -15 -15 -15 -15 -16 -15 -14 -14 -14 -14 -14 -13 -12 -11
-26 -24 -24 -25 -26 -27 -27 -26 -27 -26 -26 -26 -25 -26 -26 -28 -27 -26 -25 -23 -20 -18 -16 -15 -15 -15 -15 -15 -15 -16 -16 -15 -15 -13 -13 -13 -13 -12
-27 -25 -24 -23 -24 -25 -25 -24 -24 -25 -26 -26 -25 -25 -25 -25 -25 -26 -26 -25 -23 -20 -19 -19 -18 -18 -17 -17 -17 -16 -16 -16 -16 -15 -15 -14 -13 -12
-23 -23 -24 -23 -23 -22 -21 -22 -23 -24 -26 -26 -25 -25 -25 -25 -25 -25 -25 -24 -23 -23 -22 -21 -21 -19 -19 -18 -18 -17 -16 -16 -15 -14 -13 -12 -12 -11
-23 -24 -26 -25 -24 -22 -21 -20 -22 -24 -25 -25 -25 -25 -25 -25 -25 -24 -24 -23 -23 -22 -22 -21 -20 -19 -18 -16 -15 -15 -14 -14 -12 -12 -11 -10 -12 -13
-22 -22 -24 -25 -24 -23 -21 -21 -21 -22 -23 -24 -24 -25 -24 -24 -24 -23 -23 -22 -22 -21 -20 -19 -18 -17 -15 -13 -13 -12 -14 -13 -12 -12 -12 -12 -12 -15
-21 -22 -22 -22 -21 -22 -22 -22 -21 -22 -21 -22 -23 -23 -23 -22 -20 -19 -19 -17 -16 -14 -13 -13 -12 -11 -10 -10 -10 -14 -12 -13 -13 -13 -13 -14 -13 -12
-19 -20 -18 -19 -20 -20 -20 -11 -14 -23 -21 -20 -21 -21 -20 -17 -13 -12 -10 -10 -10 -10 -10 -10 -10 -10 -11 -11 -12 -15 -16 -14 -14 -13 -12 -11 -12 -13
-16 -15 -17 -14 -9 -9 -5 -5 -12 -23 -20 -13 -19 -18 -16 -13 -10 -8 -9 -10 -10 -9 -9 -10 -10 -11 -11 -11 -12 -13 -16 -15 -12 -11 -12 -12 -11 -11
-3 -3 -3 -6 -6 -5 -11 -8 -5 -9 -9 -9 -14 -8 -14 -7 -6 -7 -8 -11 -10 -10 -10 -10 -9 -10 -10 -11 -12 -12 -13 -11 -11 -12 -13 -12 -12 -12

GFSNE_850_dewp_072.txt.gz
Dewpoint
-1 -1 -1 1 3 3 6 6 7 7 6 7 7 7 6 6 6 5 4 4 3 3 2 1 0 1 4 4 4 4 3 2 2 2 3 5 7 6
-1 -0 1 3 3 4 5 5 6 7 7 7 7 6 7 6 6 4 4 4 4 2 1 0 -0 1 2 3 3 3 3 4 4 5 6 7 6 6
0 -0 1 2 3 5 5 5 7 5 6 7 6 5 5 5 5 4 4 2 1 1 0 0 -0 1 1 1 2 2 3 2 2 4 5 5 5 5
1 1 1 2 4 4 4 4 5 5 5 5 6 5 5 4 3 3 1 1 1 -0 -0 -0 -0 0 0 1 1 2 2 2 2 3 1 1 2 2
1 2 2 2 3 3 3 4 4 4 4 4 5 4 3 3 2 1 1 1 -0 -1 -1 -1 -1 -1 -1 -0 0 1 1 1 1 1 1 2 3 2
2 2 2 2 2 3 3 3 3 2 2 3 3 3 2 1 1 -0 -0 -0 -1 -2 -2 -3 -3 -3 -3 -2 -1 0 -0 -1 -1 -1 -1 -1 -0 -0
2 2 2 2 2 2 2 1 1 1 1 1 2 2 1 0 -3 -3 -2 -3 -4 -7 -9 -14 -18 -20 -20 -16 -9 -4 -3 -2 -1 -1 -1 -1 -1 -1
2 1 2 2 2 1 1 1 0 0 -0 -0 -0 -1 -3 -10 -12 -12 -14 -16 -20 -23 -19 -19 -21 -24 -26 -25 -26 -27 -29 -29 -27 -22 -17 -15 -13 -10
0 0 1 1 -0 -4 -10 -15 -18 -18 -19 -20 -17 -13 -15 -14 -13 -17 -20 -22 -23 -24 -23 -24 -25 -26 -24 -24 -23 -20 -21 -22 -24 -26 -26 -28 -30 -31
-0 -0 0 -1 -7 -21 -27 -28 -27 -26 -27 -28 -27 -22 -21 -19 -19 -21 -23 -23 -24 -24 -25 -24 -25 -22 -20 -18 -17 -17 -18 -17 -17 -16 -16 -17 -17 -18
-1 -1 -3 -16 -26 -25 -25 -25 -25 -26 -26 -27 -27 -27 -26 -26 -26 -26 -27 -27 -28 -27 -24 -22 -20 -18 -17 -16 -16 -16 -16 -16 -15 -14 -14 -15 -15 -15
-2 -11 -24 -26 -24 -24 -25 -26 -26 -25 -25 -23 -23 -24 -26 -26 -27 -28 -28 -28 -29 -28 -24 -18 -17 -17 -16 -15 -14 -15 -15 -15 -14 -14 -13 -13 -13 -13
-24 -26 -24 -24 -24 -25 -27 -28 -26 -26 -24 -24 -24 -25 -26 -26 -26 -26 -26 -26 -26 -23 -18 -18 -17 -16 -15 -15 -15 -15 -15 -14 -13 -13 -13 -13 -13 -13
-25 -24 -22 -23 -23 -25 -28 -29 -28 -28 -26 -26 -26 -26 -25 -25 -25 -25 -25 -24 -22 -20 -18 -17 -16 -16 -15 -15 -15 -15 -15 -14 -14 -14 -14 -14 -14 -14
-24 -22 -22 -22 -23 -26 -28 -27 -26 -25 -25 -25 -25 -25 -25 -25 -26 -26 -25 -24 -22 -20 -19 -17 -16 -16 -16 -16 -16 -16 -16 -15 -15 -15 -14 -13 -13 -13
-26 -25 -24 -24 -23 -22 -24 -24 -24 -23 -24 -25 -25 -25 -25 -24 -24 -25 -25 -25 -24 -23 -22 -20 -20 -20 -19 -19 -18 -17 -17 -17 -16 -16 -16 -16 -15 -14
-22 -22 -22 -22 -22 -21 -21 -20 -21 -22 -23 -25 -25 -25 -25 -25 -25 -24 -24 -24 -24 -23 -22 -22 -22 -21 -20 -19 -18 -18 -17 -16 -16 -15 -15 -15 -14 -13
-20 -22 -22 -22 -24 -22 -21 -20 -20 -21 -22 -24 -25 -26 -25 -25 -25 -25 -24 -24 -24 -23 -23 -22 -21 -21 -20 -18 -16 -15 -15 -15 -14 -13 -12 -12 -14 -14
-20 -21 -22 -23 -24 -24 -23 -21 -20 -21 -21 -21 -21 -23 -24 -25 -25 -24 -23 -23 -22 -22 -21 -21 -20 -18 -17 -14 -13 -12 -14 -14 -14 -14 -13 -13 -14 -17
-20 -21 -21 -21 -22 -22 -22 -22 -21 -20 -21 -21 -21 -22 -23 -23 -23 -22 -20 -19 -17 -15 -13 -13 -12 -12 -11 -10 -10 -12 -13 -14 -14 -15 -16 -15 -16 -16
-19 -19 -19 -20 -20 -19 -19 -20 -21 -19 -7 -8 -20 -20 -17 -21 -21 -19 -15 -12 -11 -10 -10 -10 -10 -10 -10 -10 -11 -13 -13 -13 -14 -15 -15 -13 -12 -12
-16 -16 -13 -8 -6 -8 -10 -15 -15 -8 -4 -9 -20 -15 -12 -19 -19 -13 -9 -7 -7 -7 -9 -10 -9 -9 -9 -10 -10 -11 -12 -14 -14 -13 -11 -11 -11 -11
-6 -3 -3 -5 -5 -3 -5 -6 -5 -6 -7 -6 -8 -13 -7 -12 -10 -8 -7 -7 -7 -8 -8 -8 -9 -9 -10 -10 -10 -10 -12 -15 -15 -12 -12 -12 -12 -12

GFSNE_850_dewp_075.txt.gz
Dewpoint
-1 -1 -0 0 0 1 4 3 5 6 6 7 7 6 7 6 6 6 6 5 4 4 3 2 0 -0 4 4 4 4 5 5 4 1 2 4 6 7
-0 -0 -0 -0 1 2 2 3 5 5 5 5 6 6 6 6 6 6 5 4 4 3 2 0 -0 -1 2 3 3 3 3 4 5 4 1 3 6 7
0 0 0 1 1 2 4 5 4 5 6 5 6 6 6 5 5 5 5 4 3 2 1 0 -0 -1 1 1 2 2 3 3 3 4 5 5 6 6
0 1 1 1 2 3 3 3 4 5 5 5 5 5 5 5 4 4 3 3 1 1 0 -0 -0 -0 -1 1 1 1 2 2 2 3 4 5 5 5
1 1 2 2 2 2 3 3 3 3 3 4 4 4 4 4 4 3 2 1 1 0 -1 -1 -1 -1 -1 -0 0 0 1 1 1 2 1 1 1 2
1 1 2 2 2 2 2 3 3 2 3 3 2 3 3 3 2 2 0 0 0 -1 -1 -2 -3 -3 -2 -2 -1 -0 -0 0 -0 -0 -1 -0 -0 1
1 2 2 2 2 2 2 2 2 2 2 2 2 2 2 2 1 0 -2 -1 -2 -2 -4 -7 -11 -16 -19 -15 -8 -5 -2 -1 -1 -1 -1 -1 -1 -1
1 1 1 1 1 2 2 1 1 1 1 1 1 1 1 1 -1 -8 -9 -8 -10 -17 -18 -21 -21 -20 -22 -23 -25 -26 -27 -23 -11 -4 -3 -2 -2 -1
0 -0 0 -0 0 1 -1 -6 -5 -3 -4 -2 -2 -3 -5 -8 -10 -10 -12 -16 -19 -22 -23 -22 -24 -25 -25 -24 -25 -25 -25 -27 -29 -30 -30 -30 -31 -31
-1 -1 -1 -1 -0 -3 -12 -23 -26 -26 -27 -28 -27 -15 -12 -14 -14 -15 -17 -20 -21 -23 -24 -24 -24 -25 -24 -21 -19 -19 -19 -19 -19 -18 -18 -19 -20 -21
-1 -1 -1 -1 -5 -19 -25 -25 -24 -23 -24 -24 -25 -24 -20 -22 -22 -22 -23 -23 -25 -26 -24 -23 -22 -21 -19 -17 -17 -17 -17 -17 -16 -15 -15 -15 -15 -16
-1 -1 -1 -7 -21 -21 -20 -23 -23 -24 -23 -22 -22 -24 -25 -26 -27 -27 -27 -27 -28 -28 -24 -21 -19 -18 -16 -15 -15 -15 -15 -15 -15 -15 -14 -14 -14 -14
-2 -5 -16 -24 -23 -24 -24 -24 -23 -23 -22 -22 -21 -23 -24 -26 -26 -26 -26 -27 -27 -27 -20 -16 -17 -17 -16 -15 -15 -14 -15 -16 -15 -15 -14 -14 -14 -14
-18 -23 -23 -22 -21 -22 -24 -25 -26 -26 -24 -23 -23 -24 -25 -25 -25 -25 -25 -25 -25 -23 -21 -19 -17 -17 -16 -16 -16 -16 -16 -16 -15 -14 -14 -15 -15 -15
-24 -23 -21 -20 -21 -22 -25 -27 -27 -27 -25 -24 -25 -25 -25 -25 -26 -27 -27 -27 -26 -23 -21 -19 -18 -17 -16 -16 -16 -16 -16 -16 -16 -16 -15 -15 -15 -15
-27 -24 -23 -22 -22 -23 -22 -22 -23 -24 -23 -24 -25 -25 -25 -26 -25 -25 -25 -26 -26 -25 -24 -22 -20 -19 -19 -19 -19 -19 -18 -17 -17 -16 -15 -15 -15 -15
-25 -25 -24 -24 -24 -22 -21 -21 -21 -20 -21 -23 -24 -24 -24 -25 -25 -24 -24 -24 -24 -25 -24 -23 -22 -22 -21 -21 -20 -19 -18 -18 -17 -16 -16 -16 -16 -15
-17 -21 -21 -20 -20 -21 -22 -21 -21 -20 -20 -21 -23 -24 -24 -24 -24 -25 -24 -24 -24 -24 -23 -23 -22 -22 -21 -20 -19 -17 -15 -14 -13 -13 -13 -14 -16 -14
-16 -19 -20 -21 -21 -22 -24 -23 -22 -20 -19 -21 -22 -22 -22 -21 -23 -24 -24 -24 -23 -22 -22 -21 -21 -20 -18 -16 -14 -13 -12 -12 -13 -14 -13 -13 -16 -18
-16 -19 -21 -21 -21 -21 -22 -23 -22 -21 -20 -20 -21 -20 -20 -21 -22 -23 -23 -22 -22 -20 -18 -15 -11 -10 -10 -10 -10 -10 -9 -10 -12 -14 -14 -14 -16 -18
-17 -19 -20 -20 -19 -20 -20 -20 -19 -19 -20 -21 -16 -8 -6 -13 -20 -20 -21 -21 -19 -15 -11 -8 -7 -8 -8 -9 -10 -10 -10 -10 -10 -12 -13 -15 -15 -16
-18 -19 -19 -17 -17 -18 -17 -9 -6 -9 -12 -14 -12 -5 -9 -18 -17 -16 -17 -19 -14 -8 -7 -7 -7 -8 -8 -9 -9 -9 -9 -9 -10 -11 -14 -14 -12 -11
-17 -17 -17 -14 -5 -4 -4 -6 -6 -11 -13 -6 -5 -5 -7 -12 -12 -8 -8 -9 -7 -7 -7 -8 -8 -8 -9 -9 -9 -9 -10 -10 -10 -12 -15 -12 -11 -12

GFSNE_850_dewp_078.txt.gz
Dewpoint
-1 -1 -0 -0 0 1 2 2 6 5 5 5 4 5 7 7 7 6 6 6 6 5 4 3 2 0 3 4 4 4 4 5 5 4 3 4 5 5
-1 -0 0 0 1 1 2 3 3 5 6 5 5 4 6 6 6 6 6 5 5 4 4 2 1 -0 -1 2 3 3 3 3 4 4 4 1 4 7
0 1 0 0 1 1 2 3 3 4 4 4 4 5 4 6 5 5 5 5 4 4 2 1 0 -0 -2 1 2 2 2 2 3 4 4 5 4 6
0 -0 0 1 1 1 2 3 3 3 4 4 5 5 5 5 4 4 4 4 4 2 1 0 -0 -0 -1 -0 1 1 1 2 2 3 4 4 5 6
-1 -0 0 1 2 2 2 3 3 3 2 3 3 3 4 4 4 4 4 3 3 1 0 -0 -1 -1 -1 -1 -1 0 1 1 1 2 2 3 4 4
-1 -0 1 1 2 3 2 2 2 2 2 2 2 2 2 3 3 3 2 2 0 0 -0 -1 -2 -2 -2 -2 -1 -0 -0 -1 0 0 1 1 0 1
-1 0 1 2 1 1 1 1 1 1 1 2 1 1 1 2 2 1 1 1 -1 -0 -1 -2 -4 -6 -9 -10 -7 -4 -3 -1 -0 -0 -0 -1 -1 -1
-1 1 0 0 0 0 -0 1 1 1 1 0 0 -0 1 1 0 0 -0 -4 -3 -4 -5 -9 -15 -19 -21 -21 -22 -24 -24 -17 -7 -2 -1 -1 -1 -2
-1 -0 -0 -0 -0 -1 -0 -1 -4 -2 -0 -0 -0 -0 -1 -0 -2 -3 -8 -10 -12 -16 -21 -23 -22 -23 -24 -24 -26 -27 -27 -29 -30 -30 -28 -17 -10 -8
-1 -1 -1 -1 -1 -1 -2 -9 -19 -24 -25 -22 -16 -11 -10 -5 -11 -11 -9 -13 -17 -19 -21 -23 -24 -24 -24 -23 -23 -22 -20 -20 -21 -21 -22 -24 -26 -28
-1 -1 -1 -1 -1 -1 -9 -21 -23 -22 -22 -23 -24 -23 -21 -15 -16 -17 -17 -19 -21 -23 -23 -23 -22 -23 -23 -19 -18 -18 -17 -18 -17 -17 -16 -16 -17 -17
-1 -1 -2 -2 -2 -11 -22 -21 -22 -23 -22 -21 -22 -23 -25 -26 -27 -27 -26 -26 -27 -28 -27 -22 -21 -19 -17 -17 -17 -16 -16 -16 -16 -15 -15 -15 -14 -15
-1 -1 -1 -3 -15 -22 -23 -22 -23 -23 -22 -22 -22 -21 -22 -24 -26 -26 -27 -27 -28 -29 -25 -22 -19 -17 -17 -16 -16 -15 -15 -15 -16 -16 -15 -15 -14 -14
-3 -6 -12 -21 -21 -21 -22 -23 -25 -26 -25 -23 -22 -22 -24 -26 -26 -26 -25 -26 -26 -26 -25 -22 -20 -19 -17 -17 -16 -16 -16 -16 -16 -16 -15 -14 -15 -15
-9 -18 -22 -22 -20 -20 -22 -24 -27 -26 -24 -23 -23 -24 -24 -25 -25 -26 -26 -27 -27 -26 -24 -22 -21 -19 -18 -17 -16 -16 -16 -16 -16 -16 -16 -15 -16 -16
-12 -23 -23 -21 -20 -19 -20 -23 -23 -22 -21 -21 -23 -23 -24 -25 -25 -26 -25 -25 -24 -23 -23 -24 -23 -21 -20 -19 -19 -19 -19 -19 -18 -17 -17 -17 -16 -16
-11 -20 -24 -24 -22 -22 -22 -21 -21 -21 -20 -21 -22 -23 -24 -24 -24 -24 -24 -23 -23 -24 -24 -24 -23 -22 -22 -22 -21 -21 -20 -19 -18 -18 -17 -17 -17 -16
-10 -17 -23 -24 -22 -22 -22 -21 -20 -20 -19 -19 -21 -23 -24 -25 -24 -24 -23 -24 -23 -24 -24 -24 -23 -23 -22 -20 -16 -14 -15 -15 -14 -13 -14 -14 -15 -15
-7 -16 -18 -21 -20 -19 -19 -20 -22 -21 -20 -19 -19 -21 -22 -23 -21 -20 -22 -23 -20 -23 -23 -22 -22 -22 -21 -17 -12 -10 -9 -10 -10 -11 -12 -13 -15 -16
-5 -15 -19 -20 -20 -20 -20 -20 -22 -22 -21 -20 -20 -20 -20 -20 -19 -16 -17 -22 -22 -22 -22 -21 -20 -17 -13 -8 -7 -8 -9 -8 -8 -9 -10 -11 -13 -14
-3 -15 -19 -19 -20 -20 -20 -20 -20 -21 -21 -20 -21 -20 -21 -14 -7 -5 -13 -20 -18 -16 -20 -19 -14 -9 -7 -7 -8 -8 -8 -8 -8 -8 -8 -9 -10 -12
-2 -4 -17 -18 -18 -19 -18 -18 -19 -19 -17 -13 -10 -12 -12 -12 -7 -7 -17 -17 -13 -11 -18 -14 -8 -8 -8 -8 -8 -8 -9 -8 -8 -8 -9 -9 -11 -13
-2 -3 -14 -17 -18 -17 -16 -16 -17 -14 -8 -5 -6 -9 -8 -6 -6 -8 -15 -15 -10 -8 -11 -9 -8 -8 -8 -9 -9 -9 -9 -9 -9 -9 -10 -11 -13 -13

GFSNE_850_dewp_081.txt.gz
Dewpoint
1 0 -1 -1 -1 -0 0 2 4 5 4 4 4 5 5 5 6 6 6 6 6 6 6 5 4 2 0 3 4 4 4 5 5 5 3 3 3 4
1 -1 -1 -0 -0 -0 0 1 2 5 4 4 4 4 4 4 5 6 6 5 5 5 5 4 4 1 0 -0 2 3 3 3 4 5 5 4 4 3
-0 -0 -0 0 -0 -0 0 1 2 4 4 4 4 3 3 5 4 5 5 5 4 4 4 4 1 1 0 -1 0 2 2 2 3 4 5 6 4 5
-0 0 0 -0 -1 0 1 1 2 4 4 4 3 4 4 5 5 5 4 4 4 4 3 3 1 1 0 -1 -0 1 1 2 2 3 4 4 6 7
0 -0 -1 -1 -1 0 2 2 3 3 2 2 2 2 2 3 3 4 4 3 3 3 3 1 0 0 -0 -1 -1 0 1 1 1 1 2 4 5 5
-0 -1 -1 -1 -0 0 2 2 2 2 2 2 2 2 2 2 2 3 3 3 2 2 1 -0 -1 -1 -1 -1 -1 -1 -1 -0 -0 0 1 2 3 3
-2 -2 -2 -1 0 1 1 1 1 2 1 1 1 1 1 1 2 2 2 2 1 1 -0 -1 -1 -2 -3 -4 -4 -3 -2 -1 -1 -1 -0 0 0 -0
-2 -4 -3 -1 0 0 0 -0 -0 0 0 1 1 0 0 0 1 1 1 0 0 -4 -2 -2 -3 -6 -11 -16 -20 -21 -21 -12 -5 -2 -1 -1 -1 -1
-3 -4 -2 -0 0 0 -0 -1 -1 -0 -0 -0 -0 -0 -0 -0 -0 -0 -0 -1 -6 -8 -14 -20 -20 -21 -21 -20 -22 -24 -26 -27 -27 -25 -11 -4 -2 -1
-3 -1 -0 -0 -0 -0 -0 -0 -5 -11 -19 -19 -11 -6 -3 -3 -4 -4 -7 -9 -10 -14 -18 -20 -23 -24 -24 -23 -23 -24 -23 -22 -23 -24 -27 -29 -29 -24
-1 -0 -0 -0 -0 -1 -1 -2 -11 -21 -23 -23 -24 -23 -21 -16 -12 -12 -13 -15 -15 -20 -22 -23 -24 -24 -24 -23 -22 -20 -19 -17 -18 -18 -17 -18 -19 -19
-1 -0 -0 -1 -1 -2 -2 -15 -22 -22 -22 -22 -22 -23 -24 -22 -23 -24 -22 -22 -24 -26 -28 -26 -25 -23 -20 -20 -19 -17 -17 -16 -17 -16 -15 -15 -15 -15
-1 -1 -1 -1 -2 -2 -17 -21 -21 -22 -22 -22 -21 -21 -21 -22 -23 -24 -26 -26 -27 -28 -26 -25 -24 -21 -19 -18 -17 -16 -16 -15 -15 -15 -16 -15 -15 -15
-1 -1 -1 -1 -4 -17 -23 -23 -23 -24 -23 -22 -21 -21 -22 -24 -25 -25 -25 -26 -27 -27 -28 -26 -19 -19 -19 -18 -17 -17 -17 -15 -15 -15 -16 -16 -16 -15
-1 -3 -6 -12 -21 -22 -22 -22 -23 -24 -25 -24 -23 -23 -23 -24 -25 -25 -26 -26 -26 -26 -25 -24 -22 -19 -18 -18 -18 -17 -16 -16 -16 -17 -17 -16 -16 -16
-2 -3 -14 -21 -22 -21 -20 -21 -22 -24 -22 -21 -22 -23 -24 -24 -25 -25 -25 -25 -25 -24 -20 -19 -22 -23 -21 -20 -19 -19 -20 -20 -19 -19 -18 -18 -17 -17
-1 -2 -15 -21 -21 -21 -20 -19 -20 -20 -21 -21 -20 -21 -22 -23 -24 -24 -24 -23 -21 -23 -23 -23 -24 -23 -22 -22 -21 -21 -18 -14 -18 -19 -18 -18 -18 -17
-2 -2 -7 -19 -23 -22 -21 -21 -21 -20 -20 -19 -19 -20 -22 -23 -23 -23 -22 -20 -19 -20 -19 -21 -23 -23 -22 -22 -19 -16 -10 -9 -12 -13 -13 -12 -12 -13
-2 -2 -2 -13 -22 -23 -22 -22 -21 -20 -19 -19 -19 -19 -20 -22 -23 -22 -19 -18 -19 -20 -19 -21 -22 -22 -21 -19 -16 -13 -9 -8 -8 -8 -8 -9 -10 -12
-2 -2 -2 -4 -17 -21 -20 -19 -19 -19 -21 -21 -21 -19 -19 -20 -20 -20 -19 -15 -13 -16 -21 -22 -21 -21 -20 -17 -13 -8 -7 -7 -8 -8 -8 -8 -8 -9
-2 -2 -2 -2 -15 -17 -17 -18 -19 -19 -20 -22 -22 -21 -20 -19 -20 -20 -10 -7 -7 -14 -19 -13 -17 -18 -16 -11 -8 -8 -8 -8 -8 -8 -8 -8 -9 -9
-2 -2 -2 -2 -15 -17 -16 -18 -19 -19 -20 -20 -21 -20 -19 -16 -13 -15 -11 -7 -8 -16 -16 -11 -15 -16 -11 -8 -8 -8 -8 -9 -9 -9 -9 -9 -9 -9
-2 -2 -2 -2 -7 -16 -16 -17 -17 -18 -18 -19 -19 -14 -8 -5 -7 -7 -8 -6 -9 -14 -15 -10 -8 -11 -9 -9 -9 -9 -9 -9 -10 -10 -9 -9 -10 -10

GFSNE_850_dewp_084.txt.gz
Dewpoint
9 5 1 1 -1 -1 -1 -0 2 5 4 4 5 3 5 5 5 5 6 6 6 6 5 6 5 5 5 1 3 4 4 5 4 5 5 2 2 2
5 2 2 1 -1 -1 -0 -0 1 4 5 4 4 3 3 4 4 4 5 5 5 5 5 5 5 4 3 0 1 3 3 3 4 3 4 5 4 3
3 3 1 -0 -0 -0 0 -0 0 1 4 4 4 4 4 3 3 4 5 4 4 4 4 4 4 3 1 0 -0 1 2 1 2 3 4 5 6 4
2 1 0 -0 -0 -0 -0 -0 0 1 3 3 4 3 3 3 4 4 4 4 4 4 3 3 3 2 0 0 -0 -1 1 1 1 2 4 4 5 5
1 0 -0 -0 -0 -1 -1 0 1 2 4 3 3 2 2 2 2 3 3 3 3 3 3 3 2 0 0 0 -0 -0 0 1 1 1 2 4 5 6
0 -0 -0 -1 -1 -1 -0 0 1 2 2 2 2 2 2 2 2 2 2 2 3 2 2 2 1 -0 -1 -1 -1 -1 -1 -0 0 0 0 2 4 5
0 -0 -1 -2 -2 -2 -0 1 1 2 1 2 2 2 1 1 1 1 2 2 2 2 1 1 -0 -1 -2 -3 -3 -3 -3 -2 -1 -1 -0 0 2 3
-0 -1 -2 -3 -3 -1 0 0 1 1 1 1 1 1 1 1 1 1 1 1 1 0 1 -1 -1 -1 -3 -5 -10 -15 -18 -16 -8 -3 -2 -1 -1 0
-1 -2 -3 -4 -2 -0 0 0 0 -0 -0 0 0 0 0 0 0 0 0 0 -0 -0 -6 -11 -10 -11 -14 -17 -20 -21 -23 -25 -25 -24 -10 -3 -1 -1
-2 -3 -3 -3 -1 -0 0 0 -0 -1 -5 -9 -6 -2 -1 -1 -1 -1 -1 -1 -2 -7 -10 -15 -19 -21 -23 -23 -23 -25 -25 -24 -24 -28 -28 -28 -17 -7
-2 -3 -2 -1 -0 0 0 -0 -0 -5 -13 -23 -24 -23 -19 -14 -9 -6 -6 -6 -9 -12 -16 -18 -22 -23 -23 -23 -23 -23 -21 -20 -19 -20 -20 -21 -23 -26
-2 -2 -1 -1 -0 -0 -1 -1 -1 -11 -21 -23 -22 -23 -23 -21 -17 -13 -13 -12 -15 -19 -23 -22 -23 -24 -22 -22 -21 -19 -18 -18 -18 -18 -17 -16 -16 -16
-2 -2 -1 -0 -1 -1 -2 -1 -13 -20 -22 -22 -22 -21 -21 -22 -21 -22 -23 -22 -24 -23 -27 -25 -25 -23 -19 -17 -16 -17 -17 -16 -16 -17 -17 -16 -16 -15
-2 -1 -1 -1 -1 -2 -2 -12 -21 -20 -22 -22 -21 -21 -21 -21 -22 -23 -25 -25 -26 -26 -26 -27 -21 -18 -17 -18 -17 -17 -17 -15 -15 -15 -16 -17 -17 -17
-1 -1 -1 -2 -2 -2 -7 -20 -21 -22 -23 -23 -22 -21 -21 -22 -24 -25 -25 -25 -24 -25 -26 -25 -23 -20 -20 -17 -17 -17 -17 -17 -17 -17 -17 -17 -17 -16
-1 -1 -1 -4 -5 -7 -16 -19 -19 -20 -22 -23 -23 -22 -22 -23 -24 -25 -25 -25 -26 -25 -24 -21 -19 -18 -20 -21 -20 -19 -18 -18 -19 -19 -19 -19 -18 -18
-1 -1 -1 -5 -14 -18 -17 -11 -14 -18 -21 -21 -20 -21 -22 -23 -24 -25 -25 -25 -23 -21 -21 -21 -20 -22 -24 -23 -22 -21 -21 -20 -16 -13 -12 -13 -15 -17
-1 -1 -1 -2 -10 -18 -20 -19 -17 -17 -18 -19 -19 -19 -20 -21 -23 -23 -23 -22 -18 -17 -18 -17 -15 -18 -22 -22 -22 -21 -19 -15 -11 -9 -9 -9 -8 -9
-2 -1 -1 -1 -2 -15 -21 -21 -20 -19 -19 -19 -19 -19 -19 -21 -22 -23 -22 -21 -17 -17 -18 -17 -16 -18 -21 -20 -18 -17 -14 -12 -9 -8 -7 -7 -7 -7
-2 -1 -1 -1 -2 -5 -14 -22 -21 -20 -19 -19 -19 -19 -18 -19 -20 -22 -20 -19 -18 -17 -14 -13 -17 -21 -20 -20 -20 -19 -13 -8 -8 -8 -8 -8 -8 -8
-1 -1 -1 -2 -2 -2 -7 -19 -20 -19 -19 -19 -20 -20 -20 -18 -19 -20 -20 -20 -18 -10 -9 -9 -17 -15 -13 -16 -17 -15 -10 -8 -8 -8 -8 -8 -8 -9
-1 -1 -1 -2 -2 -2 -5 -16 -16 -15 -16 -17 -19 -21 -21 -20 -19 -18 -19 -16 -14 -9 -7 -12 -16 -13 -11 -14 -15 -11 -9 -9 -9 -9 -9 -9 -9 -9
-1 -1 -2 -2 -2 -2 -4 -16 -16 -18 -18 -19 -19 -19 -20 -19 -18 -16 -8 -8 -11 -8 -6 -11 -15 -13 -9 -9 -11 -9 -9 -9 -9 -10 -10 -10 -10 -10

GFSNE_850_dewp_087.txt.gz
Dewpoint
8 8 7 7 5 1 0 -0 0 2 4 4 5 4 2 3 4 5 5 5 6 5 5 5 5 5 5 5 4 2 5 3 4 4 4 5 5 0
8 7 7 7 2 2 0 -0 0 1 5 4 4 3 3 2 3 4 3 4 4 5 5 4 5 5 5 4 2 0 2 3 3 3 3 4 5 5
8 8 8 3 2 1 0 0 0 1 3 4 4 4 4 2 3 3 3 3 4 4 4 4 4 4 3 2 1 0 0 2 2 0 2 3 4 5
8 7 4 3 2 0 0 0 -0 -0 1 4 4 4 4 3 3 3 4 4 4 4 4 3 3 3 2 1 0 0 -1 -2 0 1 2 3 4 6
7 5 4 2 1 0 0 -0 -0 1 2 2 3 3 3 2 2 2 2 2 3 3 3 3 3 2 2 0 0 -0 -1 -0 1 1 1 3 5 6
6 4 2 1 0 -0 -0 -0 0 2 3 2 2 2 2 2 2 2 2 1 2 2 2 2 2 1 1 -1 -1 -1 -1 -1 -0 0 0 2 3 4
4 2 1 0 -0 -0 -0 -1 -0 1 1 1 2 2 1 1 1 1 1 1 2 2 1 1 1 1 0 -1 -2 -3 -3 -3 -2 -2 -1 -0 1 3
1 1 0 0 -1 -2 -2 -1 -1 0 1 1 1 1 1 1 1 1 1 1 1 1 1 0 0 -0 -1 -2 -4 -6 -12 -16 -13 -6 -2 -1 0 0
1 1 -0 -1 -2 -3 -4 -3 -2 0 0 -0 0 0 1 1 0 0 0 0 0 0 0 -1 -6 -5 -4 -7 -12 -18 -22 -23 -24 -24 -18 -6 -3 -1
1 -0 -1 -2 -3 -4 -3 -2 -0 -0 -0 -0 -1 -1 -0 -0 -1 -1 -1 -1 -1 -1 -1 -3 -10 -16 -19 -22 -22 -21 -25 -26 -25 -27 -28 -28 -17 -5
-0 -1 -2 -3 -3 -2 -1 -0 -0 -1 -1 -6 -14 -18 -16 -11 -9 -4 -4 -3 -3 -6 -9 -11 -16 -20 -22 -23 -22 -23 -25 -23 -21 -21 -22 -24 -26 -29
-1 -1 -2 -3 -2 -1 -0 -0 -1 -1 -3 -11 -19 -23 -23 -22 -20 -12 -9 -8 -7 -9 -17 -18 -21 -23 -22 -23 -22 -22 -20 -19 -18 -18 -18 -17 -17 -17
-0 -1 -2 -2 -1 -1 -1 -1 -1 -1 -7 -19 -21 -22 -21 -21 -19 -18 -17 -16 -17 -17 -23 -26 -24 -23 -22 -16 -17 -19 -18 -17 -17 -17 -17 -16 -16 -16
0 -1 -1 -1 -1 -1 -1 -1 -2 -4 -17 -21 -21 -21 -21 -21 -22 -22 -23 -25 -26 -25 -25 -28 -24 -22 -20 -18 -18 -18 -17 -17 -16 -16 -15 -16 -16 -17
1 -0 -1 -1 -1 -1 -2 -2 -2 -14 -18 -21 -22 -21 -21 -21 -21 -22 -24 -25 -26 -26 -27 -27 -26 -20 -19 -19 -18 -16 -16 -17 -17 -17 -17 -17 -17 -17
1 -0 -1 -1 -1 -1 -2 -2 -6 -18 -20 -21 -22 -21 -21 -20 -22 -24 -25 -25 -25 -26 -26 -25 -24 -21 -18 -17 -18 -18 -19 -18 -19 -18 -18 -19 -18 -18
1 0 -1 -1 -1 -3 -3 -3 -10 -17 -18 -20 -21 -22 -21 -21 -22 -24 -25 -25 -25 -25 -22 -19 -18 -18 -18 -19 -23 -22 -21 -21 -21 -20 -14 -10 -10 -10
0 -0 -0 -1 -1 -2 -5 -7 -12 -15 -17 -19 -20 -20 -20 -21 -23 -23 -24 -25 -24 -22 -17 -14 -14 -13 -13 -15 -18 -22 -22 -21 -18 -14 -10 -7 -7 -7
-0 -1 -1 -1 -1 -2 -3 -11 -16 -16 -16 -17 -18 -19 -18 -18 -20 -22 -23 -23 -22 -18 -14 -13 -15 -14 -13 -15 -15 -19 -19 -16 -14 -12 -9 -7 -7 -7
-1 -1 -1 -1 -1 -1 -2 -5 -16 -18 -18 -17 -17 -18 -19 -18 -19 -21 -22 -22 -21 -18 -15 -15 -13 -11 -12 -19 -18 -17 -18 -18 -13 -9 -8 -8 -8 -8
-2 -1 -1 -1 -1 -1 -2 -2 -9 -17 -21 -18 -18 -18 -18 -18 -18 -19 -20 -22 -20 -19 -18 -15 -10 -9 -13 -16 -13 -11 -14 -15 -11 -9 -9 -9 -9 -9
-1 -1 -1 -1 -1 -1 -2 -2 -3 -6 -20 -19 -19 -19 -19 -19 -19 -18 -18 -19 -20 -20 -18 -11 -9 -7 -13 -14 -11 -10 -13 -13 -11 -9 -9 -9 -9 -9
-1 -1 -1 -1 -1 -2 -2 -3 -3 -5 -17 -19 -17 -18 -18 -20 -20 -19 -18 -18 -18 -13 -10 -11 -7 -7 -11 -13 -11 -9 -9 -10 -9 -9 -9 -9 -10 -10

GFSNE_850_dewp_090.txt.gz
Dewpoint
9 9 10 9 8 8 8 5 1 2 2 3 4 4 4 3 3 3 3 5 5 5 5 5 5 5 5 5 4 4 3 2 3 2 4 4 4 5
9 9 9 8 8 8 5 2 1 0 1 3 4 4 4 3 2 2 3 3 3 3 4 4 4 4 5 4 4 3 2 0 1 2 2 2 2 4
9 10 9 9 8 8 2 2 1 0 1 3 4 4 4 4 3 3 3 3 3 3 4 4 3 3 4 4 2 2 0 0 1 1 0 1 2 2
10 10 10 8 8 5 3 2 1 0 1 1 4 5 4 3 3 3 2 2 3 3 4 3 4 4 3 2 2 1 0 -0 -2 -1 1 2 4 5
10 8 8 8 7 4 3 1 1 0 0 3 4 3 3 2 3 2 2 2 1 1 2 2 3 3 3 1 1 -0 0 -1 -1 0 1 1 4 5
9 9 8 6 4 3 1 1 1 1 0 1 4 3 2 3 2 2 1 1 1 1 1 1 2 2 2 1 1 -1 -1 -1 -1 -1 0 1 2 4
9 8 6 4 3 2 1 0 0 0 0 3 3 3 1 2 1 1 1 1 1 1 1 1 1 0 0 0 -0 -2 -3 -3 -3 -2 -2 -1 1 2
7 6 5 3 2 1 0 -0 -1 -1 -1 0 1 1 1 1 1 1 1 1 0 1 1 1 0 -0 -0 -0 -2 -2 -5 -9 -13 -10 -5 -3 -2 1
5 4 2 1 1 0 -0 -1 -2 -2 -0 -0 -0 0 0 1 1 1 1 0 -0 0 0 -0 -1 -1 -8 -5 -4 -7 -16 -22 -23 -23 -23 -11 -5 -3
3 2 1 1 0 -0 -2 -3 -3 -2 -1 -0 -0 0 0 0 0 0 -0 -1 -1 -0 -1 -1 -1 -5 -13 -18 -20 -21 -23 -24 -25 -25 -28 -26 -19 -7
2 1 1 0 -0 -2 -3 -3 -1 -1 -1 -0 0 -1 -6 -5 -4 -3 -2 -2 -2 -2 -2 -2 -7 -13 -19 -22 -23 -24 -24 -25 -21 -20 -23 -25 -28 -29
1 1 0 -0 -1 -2 -3 -2 -1 -1 -0 -0 -3 -10 -19 -20 -15 -16 -11 -9 -5 -5 -9 -11 -13 -18 -24 -24 -23 -23 -23 -21 -19 -18 -19 -18 -19 -19
1 1 -0 -1 -1 -2 -2 -1 -1 -1 -1 -1 -6 -13 -20 -21 -20 -18 -15 -13 -10 -10 -18 -24 -23 -24 -25 -19 -20 -22 -20 -18 -17 -17 -18 -17 -17 -16
1 1 -0 -1 -1 -2 -1 -1 -0 -1 -1 -2 -11 -19 -21 -22 -21 -19 -16 -15 -19 -14 -19 -24 -28 -26 -27 -24 -19 -18 -18 -17 -17 -16 -16 -16 -17 -16
2 1 0 -0 -1 -1 -1 -1 -1 -1 -2 -4 -16 -20 -21 -21 -21 -21 -22 -23 -24 -25 -25 -27 -28 -24 -23 -21 -19 -19 -17 -14 -16 -18 -17 -16 -16 -17
2 1 1 0 -1 -1 -1 -1 -1 -2 -2 -8 -18 -19 -19 -21 -21 -20 -22 -24 -25 -25 -26 -27 -28 -25 -22 -21 -17 -16 -15 -18 -19 -19 -18 -18 -18 -18
1 0 -0 -0 -1 -1 -1 -2 -2 -2 -2 -13 -18 -19 -20 -20 -20 -21 -22 -24 -24 -25 -26 -26 -25 -19 -16 -17 -16 -20 -23 -22 -21 -20 -20 -19 -12 -9
-0 -0 -1 -1 -1 -1 -1 -1 -2 -2 -3 -15 -19 -20 -20 -21 -20 -21 -22 -24 -24 -25 -25 -21 -18 -17 -14 -12 -12 -13 -19 -22 -22 -21 -17 -11 -8 -7
-2 -1 -1 -1 -1 -0 -1 -1 -1 -3 -5 -15 -17 -19 -21 -21 -20 -21 -22 -24 -24 -24 -23 -16 -14 -14 -13 -12 -11 -12 -18 -20 -19 -15 -13 -11 -10 -8
-2 -2 -1 -1 -1 -1 -1 -1 -2 -4 -9 -13 -15 -16 -18 -18 -18 -19 -21 -22 -23 -23 -20 -15 -13 -15 -12 -11 -12 -15 -15 -16 -17 -17 -14 -11 -10 -10
-2 -2 -2 -1 -1 -1 -1 -2 -1 -2 -4 -13 -16 -16 -16 -17 -18 -18 -18 -20 -21 -22 -20 -17 -16 -14 -10 -9 -10 -13 -12 -11 -12 -14 -13 -10 -10 -10
-2 -2 -2 -1 -2 -2 -2 -2 -2 -2 -3 -11 -18 -18 -16 -17 -18 -18 -18 -19 -21 -22 -20 -19 -18 -13 -9 -7 -10 -14 -11 -9 -11 -12 -11 -10 -9 -9
-3 -2 -2 -2 -2 -2 -2 -2 -2 -2 -2 -4 -8 -19 -18 -18 -18 -18 -18 -17 -18 -19 -19 -20 -16 -11 -9 -6 -10 -13 -12 -10 -8 -8 -9 -9 -9 -9

GFSNE_850_dewp_093.txt.gz
Dewpoint
9 9 9 7 7 8 7 7 7 8 5 3 2 2 3 4 3 2 2 2 4 5 5 5 5 4 4 4 5 4 3 3 3 2 1 1 0 1
10 9 9 8 8 9 7 7 8 7 3 2 1 2 3 4 4 3 2 2 3 3 4 4 4 3 3 4 4 4 3 2 1 0 -0 0 -0 -1
8 7 8 8 9 9 8 8 8 5 2 2 2 3 4 4 4 4 2 2 2 3 3 3 3 3 2 2 3 3 2 1 0 -0 -0 -1 -0 4
9 8 9 9 9 9 9 8 5 2 2 1 2 3 4 5 5 4 2 2 2 3 3 2 3 3 3 3 3 2 1 0 -0 -1 -1 0 2 4
10 10 10 10 10 9 8 8 3 2 1 1 2 3 3 4 3 3 2 2 1 1 1 1 2 2 2 3 2 1 0 -0 -0 -1 -2 0 1 3
9 10 9 10 9 9 8 6 3 2 1 1 1 2 4 4 3 2 2 2 1 1 1 1 1 1 1 2 1 0 0 -1 -1 -2 -2 -1 1 2
9 9 9 9 9 8 7 4 2 2 1 1 1 2 3 3 3 2 2 1 1 1 1 1 1 0 0 0 -0 0 -1 -2 -3 -3 -3 -3 -1 1
8 8 8 8 8 7 4 3 2 1 0 1 1 1 2 2 2 1 1 1 1 1 1 0 0 0 -0 -1 -0 -1 -2 -3 -6 -10 -9 -5 -4 -1
8 8 7 7 6 5 4 2 1 0 -0 0 -1 -1 0 0 0 1 1 1 0 0 0 -0 0 -0 -1 -1 -7 -3 -4 -11 -20 -22 -23 -22 -10 -4
6 6 6 6 5 3 2 1 0 -0 -1 -2 -3 -3 -2 -1 0 0 1 0 -0 -0 -0 -0 -1 -1 -1 -5 -15 -19 -22 -23 -25 -26 -26 -26 -25 -12
4 4 3 3 2 2 1 0 -1 -2 -2 -3 -3 -2 -1 -0 -0 -0 -0 -0 -1 -1 -1 -2 -3 -4 -6 -14 -19 -21 -23 -24 -25 -23 -26 -28 -29 -28
3 3 3 2 1 1 1 -0 -2 -2 -3 -2 -1 -0 -0 -3 -9 -11 -5 -6 -2 -4 -6 -4 -6 -10 -17 -21 -22 -23 -23 -25 -22 -20 -20 -20 -21 -23
3 3 2 2 1 1 0 -1 -2 -2 -1 -1 -1 -1 -5 -12 -16 -16 -15 -14 -13 -11 -11 -12 -13 -15 -18 -21 -23 -23 -23 -21 -19 -19 -18 -18 -18 -17
3 2 2 1 1 0 -0 -1 -1 -1 -1 -1 -1 -2 -8 -14 -20 -20 -17 -15 -13 -11 -9 -14 -25 -27 -24 -25 -19 -19 -20 -19 -18 -17 -17 -17 -18 -17
2 2 2 1 1 -0 -1 -1 -1 -1 -0 -1 -1 -2 -10 -18 -21 -20 -19 -17 -17 -19 -17 -18 -20 -27 -25 -24 -22 -19 -19 -17 -17 -17 -16 -16 -16 -17
0 1 1 1 1 0 -1 -1 -1 -1 -1 -1 -1 -4 -16 -20 -21 -20 -21 -22 -22 -24 -25 -23 -26 -27 -21 -21 -19 -19 -15 -12 -14 -16 -18 -17 -17 -17
-1 -0 -0 -0 -0 -1 -0 -1 -1 -1 -1 -1 -2 -6 -16 -19 -20 -20 -21 -21 -23 -25 -26 -26 -27 -27 -23 -21 -17 -16 -17 -20 -21 -20 -19 -19 -19 -18
-2 -1 -1 -1 -1 -1 -0 -1 -1 -1 -1 -2 -2 -6 -16 -19 -19 -19 -20 -22 -24 -25 -24 -24 -26 -25 -20 -16 -13 -11 -11 -15 -22 -22 -21 -21 -16 -9
-2 -2 -2 -1 -1 -1 -1 -1 -1 -1 -1 -2 -2 -5 -15 -18 -17 -19 -20 -22 -24 -24 -24 -25 -24 -19 -18 -13 -11 -11 -11 -16 -20 -21 -21 -19 -13 -10
-2 -2 -2 -2 -2 -1 -1 -1 -1 -1 -1 -2 -2 -4 -14 -16 -17 -19 -20 -22 -23 -24 -24 -24 -20 -15 -14 -14 -13 -10 -11 -13 -15 -17 -17 -16 -14 -11
-3 -3 -2 -2 -2 -2 -1 -1 -1 -1 -2 -2 -3 -5 -13 -13 -16 -18 -20 -21 -22 -23 -24 -24 -18 -14 -16 -15 -12 -9 -13 -14 -11 -11 -13 -15 -15 -13
-4 -3 -3 -3 -2 -2 -2 -2 -2 -2 -2 -3 -3 -5 -9 -12 -14 -16 -17 -17 -20 -22 -22 -22 -19 -16 -16 -13 -10 -6 -12 -13 -10 -9 -10 -11 -11 -10
-5 -4 -4 -3 -3 -2 -2 -2 -2 -2 -3 -3 -3 -4 -8 -13 -12 -14 -16 -17 -18 -20 -21 -21 -19 -18 -18 -12 -5 -5 -9 -13 -11 -9 -8 -9 -9 -9

GFSNE_850_dewp_096.txt.gz
Dewpoint
9 10 10 9 9 10 10 10 10 9 8 7 6 5 4 3 4 3 2 2 2 2 4 5 5 5 4 3 3 4 4 4 3 3 2 1 1 0
9 9 10 10 10 10 9 9 9 7 8 8 7 4 3 3 3 4 3 2 2 2 3 4 4 4 4 3 3 3 3 3 3 2 1 0 -0 -1
9 9 9 10 9 8 8 8 7 7 8 8 4 3 3 3 3 4 4 4 3 1 2 2 3 2 3 3 2 2 3 3 2 1 0 -1 -1 -0
9 10 9 8 8 9 9 9 8 8 9 9 6 3 2 3 4 4 4 4 2 2 2 3 3 2 2 2 3 3 3 2 1 0 -1 -1 -2 1
10 9 10 9 8 9 9 9 9 9 9 7 3 2 2 3 4 4 3 2 1 2 1 1 1 1 1 2 2 2 2 1 0 -0 -1 -3 -1 1
9 9 9 10 10 9 10 9 9 8 8 3 2 2 2 3 4 2 3 3 1 1 1 1 1 1 1 1 1 1 1 0 0 -1 -2 -2 -3 0
9 9 9 9 9 9 9 9 9 8 6 3 2 2 2 2 1 2 2 2 0 1 1 1 1 1 1 0 0 -0 -0 -0 -1 -2 -4 -4 -4 -2
7 7 8 9 9 8 9 9 9 8 5 3 2 2 1 1 1 1 2 1 1 0 1 1 1 1 0 0 -0 -1 -1 -1 -2 -4 -8 -12 -8 -5
6 6 7 8 8 8 9 8 7 5 4 3 3 3 1 1 1 1 1 0 1 1 1 0 0 0 -0 -0 -1 -1 -6 -3 -5 -14 -21 -23 -23 -11
5 6 6 7 6 7 7 6 6 4 4 3 2 2 2 1 -0 0 0 0 1 1 0 -0 -0 -1 -1 -1 -1 -3 -16 -20 -23 -25 -26 -26 -25 -23
4 5 5 6 5 5 5 5 4 4 2 2 1 1 -1 -1 -1 -0 0 0 0 0 -0 -1 -1 -1 -1 -2 -3 -12 -19 -23 -25 -25 -24 -27 -28 -27
3 3 4 4 4 4 4 3 2 1 1 0 0 -1 -2 -1 -1 -0 -0 0 -0 -1 -2 -3 -3 -4 -4 -7 -12 -19 -23 -25 -26 -22 -21 -22 -23 -25
2 3 3 3 3 3 2 2 1 1 -0 -1 -1 -1 -1 -1 -0 -1 -5 -6 -6 -9 -10 -7 -7 -5 -8 -23 -23 -22 -22 -24 -23 -20 -20 -19 -18 -18
1 1 2 2 2 2 2 2 1 0 -1 -1 -1 -1 -1 -1 -2 -8 -12 -14 -16 -14 -10 -11 -13 -14 -14 -16 -22 -22 -24 -22 -20 -19 -18 -18 -17 -17
-0 0 1 1 1 1 1 1 1 -0 -1 -1 -1 -1 -1 -2 -8 -14 -17 -17 -16 -15 -12 -9 -12 -22 -26 -21 -25 -20 -20 -19 -19 -18 -17 -17 -17 -17
-1 -0 -0 0 -0 0 0 0 0 -0 -1 -1 -1 -1 -1 -4 -11 -17 -20 -19 -16 -14 -14 -13 -12 -18 -26 -24 -24 -21 -19 -14 -11 -11 -16 -17 -16 -16
-2 -2 -1 -1 -0 -1 -1 -1 -0 -0 -1 -1 -1 -1 -1 -4 -13 -18 -20 -19 -18 -18 -19 -18 -19 -22 -25 -22 -22 -19 -18 -13 -14 -17 -18 -18 -18 -18
-3 -2 -2 -2 -1 -1 -1 -1 -1 -1 -1 -1 -1 -1 -2 -3 -12 -18 -19 -20 -20 -20 -22 -23 -25 -25 -25 -22 -19 -18 -14 -12 -15 -19 -22 -20 -20 -19
-4 -3 -2 -2 -2 -1 -1 -1 -1 -1 -1 -1 -1 -1 -2 -2 -11 -17 -18 -18 -19 -19 -22 -23 -24 -25 -26 -22 -17 -12 -10 -11 -13 -17 -22 -21 -20 -18
-5 -3 -2 -2 -2 -2 -2 -2 -1 -2 -2 -2 -2 -2 -2 -2 -8 -15 -16 -17 -18 -20 -22 -22 -23 -24 -24 -18 -13 -11 -11 -9 -12 -18 -20 -20 -18 -15
-6 -5 -4 -3 -3 -3 -2 -2 -2 -2 -2 -2 -2 -2 -3 -3 -5 -14 -16 -17 -18 -19 -22 -23 -24 -22 -20 -16 -13 -12 -10 -11 -12 -14 -15 -16 -16 -15
-7 -6 -5 -4 -3 -3 -3 -3 -2 -2 -3 -2 -2 -2 -3 -3 -4 -10 -16 -17 -18 -20 -22 -23 -21 -18 -16 -14 -15 -13 -9 -9 -12 -12 -10 -10 -11 -10
-8 -7 -6 -5 -4 -4 -3 -3 -3 -3 -3 -2 -2 -3 -3 -4 -4 -6 -9 -16 -18 -19 -20 -22 -21 -17 -15 -14 -15 -11 -6 -6 -9 -12 -11 -9 -9 -8

GFSNE_850_dewp_102.txt.gz
Dewpoint
10 9 9 10 10 10 9 10 9 10 9 8 9 8 9 9 8 7 7 7 5 2 0 1 1 2 3 5 3 4 4 3 2 2 2 3 2 1
7 9 9 9 8 9 8 9 9 9 9 10 9 9 9 9 8 8 8 5 4 2 2 1 0 -0 0 1 4 3 4 3 2 2 2 2 1 1
9 9 8 6 7 9 9 9 9 10 9 9 9 9 9 8 8 8 6 5 5 3 2 2 1 1 1 1 3 2 2 2 2 2 2 2 0 0
9 9 9 8 8 9 9 9 9 9 9 9 8 8 8 7 7 7 5 5 5 4 3 3 2 1 -0 1 2 2 2 2 1 2 2 1 0 -1
9 9 8 8 8 8 9 9 9 9 9 8 8 8 8 7 7 6 6 5 5 4 4 4 2 1 -1 1 2 2 1 1 1 1 1 0 -0 -2
6 8 8 9 9 9 9 9 8 9 8 9 8 8 8 8 7 7 6 5 5 5 4 3 2 0 0 1 1 0 0 0 0 0 -0 -0 -1 -3
2 4 5 7 8 8 9 9 9 9 9 9 9 9 8 8 7 6 6 5 5 5 4 2 1 0 0 1 1 1 0 0 -0 -0 -1 -1 -2 -6
-3 0 3 4 6 7 8 8 8 8 8 8 8 8 8 8 7 7 5 5 4 4 3 1 1 -1 -0 1 1 1 0 0 -0 -1 -3 -2 -5 -10
-11 -5 -1 3 4 5 5 7 7 7 7 7 8 8 8 7 8 8 6 4 3 3 1 -0 0 0 -0 1 1 0 0 -0 -1 -2 -8 -5 -12 -20
-17 -12 -4 -3 2 4 4 4 6 7 7 7 6 7 7 8 8 8 6 4 4 3 2 1 -0 0 1 1 0 0 -0 -1 -1 -6 -17 -22 -26 -26
-15 -15 -8 -3 -1 2 3 4 5 5 6 7 7 6 6 6 6 5 4 4 4 4 3 -0 -0 0 0 0 -0 -0 -1 -1 -1 -14 -23 -26 -28 -28
-18 -5 -2 -1 -0 0 2 3 4 4 5 5 5 5 5 5 5 4 4 4 5 3 2 -1 -0 0 0 -0 -1 -1 -1 -2 -5 -19 -25 -25 -28 -29
-11 -7 -4 -2 -1 -0 1 2 3 3 4 4 4 5 4 5 4 4 5 4 3 2 -0 -1 -0 0 -0 -7 -2 -2 -2 -4 -13 -23 -24 -22 -23 -25
-6 -5 -5 -4 -3 -2 -0 1 2 2 3 3 3 3 4 4 4 3 3 2 1 0 -0 -0 -2 -1 -0 -4 -18 -5 -5 -10 -19 -23 -23 -20 -20 -20
-6 -6 -6 -7 -5 -3 -2 -0 0 1 2 2 2 2 3 3 3 2 2 1 -0 0 0 -0 -0 -7 -4 -3 -7 -18 -20 -16 -21 -23 -21 -19 -19 -19
-7 -7 -6 -6 -6 -3 -2 -1 -0 -0 1 1 1 1 2 1 1 1 1 -0 -0 -1 -1 -1 -1 -6 -8 -6 -5 -10 -21 -22 -23 -23 -19 -18 -18 -17
-7 -7 -7 -7 -6 -6 -3 -2 -1 -1 -1 -0 -0 0 0 0 -0 0 -0 -0 -1 -1 -2 -2 -2 -5 -9 -18 -20 -16 -23 -21 -21 -21 -19 -18 -17 -15
-8 -8 -8 -7 -6 -6 -5 -3 -3 -2 -1 -1 -1 -0 -0 -0 -1 -1 -0 -1 -1 -2 -3 -4 -5 -7 -6 -11 -21 -23 -24 -18 -16 -18 -15 -13 -13 -13
-9 -9 -9 -8 -8 -7 -6 -4 -3 -3 -2 -2 -1 -2 -1 -1 -1 -2 -2 -2 -2 -6 -6 -6 -8 -9 -7 -7 -15 -24 -22 -19 -16 -13 -14 -16 -17 -18
-10 -9 -10 -9 -8 -8 -7 -6 -4 -4 -3 -3 -2 -2 -2 -2 -2 -2 -3 -3 -4 -7 -8 -8 -8 -9 -11 -14 -18 -23 -23 -19 -18 -14 -13 -15 -16 -19
-10 -10 -10 -9 -9 -9 -7 -6 -5 -4 -4 -4 -3 -3 -2 -2 -2 -2 -2 -3 -4 -7 -9 -10 -13 -14 -17 -17 -21 -24 -22 -18 -17 -13 -12 -14 -18 -19
-11 -9 -9 -9 -10 -9 -7 -7 -6 -5 -4 -4 -4 -4 -3 -3 -3 -2 -2 -3 -4 -4 -10 -14 -17 -19 -21 -21 -23 -23 -18 -18 -15 -13 -13 -16 -16 -18
-10 -10 -9 -9 -10 -9 -8 -8 -7 -5 -5 -5 -4 -4 -4 -4 -4 -3 -3 -3 -4 -5 -7 -13 -15 -19 -20 -21 -22 -20 -14 -12 -12 -11 -12 -13 -14 -13

GFSNE_850_dewp_105.txt.gz
Dewpoint
10 10 8 7 9 9 8 9 8 9 9 7 9 9 8 8 8 8 9 9 8 6 4 5 4 4 7 7 7 6 5 3 2 3 2 1 2 2
9 9 9 9 9 9 9 9 9 9 10 9 8 8 8 8 7 9 9 9 7 7 7 5 3 4 3 4 2 4 2 1 3 2 2 1 1 1
8 10 9 8 9 9 9 9 9 8 8 9 8 8 9 9 9 9 9 8 8 8 5 3 2 2 2 1 1 2 2 2 1 3 2 1 1 1
8 9 8 9 9 8 8 9 8 7 8 9 9 9 8 9 9 9 8 7 7 5 4 4 3 2 2 2 2 2 3 2 2 1 1 1 1 1
5 6 8 8 9 9 9 9 9 8 8 9 9 9 8 8 8 7 7 7 6 5 5 4 4 3 3 2 1 0 3 2 1 1 1 1 1 0
-2 2 4 6 8 8 8 9 8 9 9 9 9 8 8 8 7 6 7 7 6 6 5 5 4 4 4 2 1 1 3 1 -0 0 0 0 -0 -1
-19 -12 -6 -0 3 5 6 7 8 8 8 7 8 8 8 8 7 7 7 7 6 6 5 5 5 4 3 2 0 1 1 0 0 0 -0 -0 -1 -1
-17 -18 -20 -18 -8 -2 3 5 6 7 8 8 8 8 8 8 8 7 7 6 5 6 5 5 5 4 3 2 1 1 1 1 0 0 -0 -1 -2 -3
-19 -19 -18 -17 -19 -15 -7 1 4 5 6 7 7 7 8 8 8 8 7 7 7 6 5 5 4 4 3 2 1 1 1 1 0 -0 -1 -3 -4 -6
-23 -22 -20 -20 -17 -14 -10 -7 -3 2 4 5 6 6 7 7 7 8 8 7 6 5 5 5 4 3 2 1 1 0 1 1 0 -1 -1 -10 -10 -18
-23 -24 -20 -17 -16 -13 -3 -1 -2 0 2 3 3 6 6 7 7 7 6 5 4 4 4 4 3 2 0 1 1 1 1 0 -0 -1 -2 -20 -24 -25
-16 -18 -21 -17 -5 -3 -3 -2 -1 -1 1 2 3 4 5 6 5 6 6 5 3 4 4 3 3 3 1 0 1 1 0 -0 -1 -1 -7 -23 -25 -26
-7 -7 -9 -17 -13 -4 -5 -3 -2 -1 -0 1 3 3 4 5 5 5 5 5 5 4 4 4 4 2 0 -0 0 0 -0 -1 -1 -2 -14 -24 -24 -27
-7 -7 -7 -7 -7 -8 -6 -7 -4 -2 -1 0 1 2 3 3 4 5 5 5 5 4 4 4 4 3 0 -1 -3 -0 -1 -1 -3 -6 -21 -23 -22 -24
-7 -7 -7 -7 -7 -6 -7 -6 -7 -3 -2 -1 -0 1 2 3 3 4 4 4 4 4 4 3 2 -0 -0 -0 -2 -10 -2 -3 -4 -12 -22 -22 -20 -20
-8 -8 -8 -8 -7 -7 -7 -6 -5 -4 -2 -1 -1 -0 1 2 2 2 2 3 2 2 1 1 0 -0 -1 -0 -1 -12 -12 -6 -7 -15 -20 -20 -19 -18
-7 -8 -9 -9 -10 -8 -8 -7 -6 -5 -3 -2 -2 -1 -1 0 0 0 1 1 1 1 0 -0 -0 -1 -2 -6 -4 -4 -11 -18 -20 -18 -22 -19 -18 -18
-7 -7 -9 -10 -10 -10 -9 -8 -8 -5 -4 -3 -3 -2 -1 -1 -0 -0 -0 -0 0 -0 -0 -1 -1 -2 -3 -6 -6 -6 -10 -15 -21 -20 -21 -18 -18 -17
-7 -9 -10 -10 -10 -9 -9 -9 -8 -6 -5 -4 -3 -3 -2 -2 -1 -1 -1 -0 -1 -1 -1 -1 -2 -2 -4 -8 -14 -18 -15 -21 -20 -20 -19 -17 -17 -15
-9 -11 -11 -10 -10 -9 -9 -10 -9 -7 -6 -5 -4 -4 -3 -3 -2 -2 -2 -2 -2 -2 -2 -2 -2 -3 -4 -9 -12 -18 -22 -20 -18 -17 -18 -14 -13 -15
-9 -10 -11 -10 -9 -9 -9 -10 -8 -7 -6 -5 -5 -5 -4 -4 -3 -3 -3 -2 -2 -2 -3 -3 -3 -4 -5 -7 -8 -13 -19 -22 -16 -14 -13 -14 -15 -15
-10 -11 -11 -11 -10 -9 -9 -9 -9 -8 -8 -6 -5 -5 -5 -5 -4 -4 -4 -4 -3 -3 -3 -3 -4 -5 -6 -5 -9 -15 -20 -21 -16 -16 -16 -15 -14 -15
-12 -11 -11 -11 -11 -10 -10 -10 -9 -9 -7 -7 -6 -5 -5 -5 -5 -5 -4 -4 -4 -4 -4 -5 -5 -6 -5 -7 -15 -20 -21 -18 -17 -17 -15 -15 -16 -16

GFSNE_850_dewp_108.txt.gz
Dewpoint
10 9 10 9 10 10 10 10 10 9 9 9 9 8 8 8 8 8 7 7 9 9 9 9 6 6 3 6 6 8 8 7 7 6 4 3 2 1
9 9 10 9 10 10 10 9 8 9 9 8 8 9 8 8 8 6 7 8 8 8 8 9 7 5 4 5 6 8 7 5 6 4 1 3 2 1
8 8 9 8 9 10 9 8 9 10 10 9 8 8 9 8 8 7 8 8 8 8 9 9 7 5 5 6 7 7 3 3 4 2 2 2 2 1
2 4 6 8 8 9 9 9 9 9 9 9 9 9 8 8 7 8 8 9 9 9 9 8 7 6 6 6 5 3 2 1 3 2 1 2 1 1
-8 -4 -0 3 5 7 8 8 8 9 8 8 8 9 8 8 7 8 8 8 8 8 8 7 7 6 6 5 4 3 2 2 3 3 2 1 1 1
-17 -18 -16 -9 -4 1 3 6 7 8 8 8 7 8 8 8 8 8 8 7 6 7 6 6 6 5 4 5 4 3 2 1 2 3 2 0 1 0
-18 -17 -17 -17 -18 -15 -7 -1 2 5 6 7 8 8 8 8 8 8 8 7 6 6 6 6 6 5 5 5 4 3 2 1 2 2 -0 0 0 -0
-28 -27 -24 -20 -18 -17 -17 -16 -5 2 4 5 6 7 7 7 7 8 7 6 5 6 6 6 6 6 5 4 4 3 2 0 2 1 0 0 -0 -1
-27 -28 -28 -27 -26 -21 -19 -17 -15 -10 1 4 4 5 5 7 6 8 8 7 6 6 6 6 6 6 5 5 4 3 2 0 1 1 1 0 -0 -1
-20 -22 -23 -24 -21 -7 -4 -8 -7 -8 -9 -3 2 3 4 5 5 6 6 7 7 7 6 6 6 6 6 5 4 4 2 0 -0 0 0 -0 -1 -4
-7 -8 -13 -15 -11 -18 -8 -4 -4 -3 -2 -3 -5 0 3 4 5 5 6 5 4 5 6 6 6 5 5 4 5 4 2 -0 -0 1 0 -0 -1 -10
-7 -7 -7 -7 -8 -8 -7 -6 -6 -6 -5 -5 -2 -4 -1 3 4 4 5 5 5 4 5 5 5 5 3 3 4 2 1 1 0 1 0 -1 -2 -20
-8 -8 -7 -7 -7 -7 -6 -6 -6 -5 -5 -6 -5 -4 -2 -1 2 4 4 4 5 5 6 5 5 4 4 3 3 2 1 1 0 0 -0 -1 -5 -23
-7 -8 -7 -7 -7 -7 -7 -7 -7 -6 -6 -7 -7 -4 -3 -3 0 2 4 4 4 5 5 5 5 4 4 3 2 2 1 0 -0 -0 -0 -2 -10 -23
-7 -8 -8 -7 -7 -7 -7 -7 -8 -7 -6 -5 -6 -3 -2 -3 -3 1 1 2 3 3 4 4 4 4 4 4 3 2 1 -0 -0 -0 -1 -3 -17 -24
-7 -8 -8 -7 -7 -7 -8 -8 -7 -8 -7 -6 -5 -4 -2 -2 -1 -0 -0 1 2 2 2 2 3 3 4 4 3 1 -1 -0 -1 -1 -2 -7 -21 -20
-7 -8 -8 -7 -8 -8 -9 -8 -9 -9 -8 -8 -5 -5 -4 -3 -2 -1 -1 -1 0 1 1 1 0 1 3 4 1 -1 -2 -2 -2 -1 -3 -13 -20 -19
-8 -8 -7 -7 -8 -9 -9 -10 -9 -9 -10 -9 -7 -5 -4 -4 -2 -2 -2 -2 -1 -0 -0 0 0 -0 -0 -1 -0 -1 -3 -7 -4 -4 -4 -17 -19 -18
-8 -8 -8 -8 -8 -9 -10 -10 -9 -10 -10 -7 -7 -6 -5 -4 -4 -3 -3 -2 -2 -1 -0 -0 -0 -1 -2 -3 -3 -2 -3 -10 -6 -12 -7 -17 -19 -17
-8 -9 -8 -9 -9 -10 -10 -10 -9 -10 -9 -8 -7 -6 -5 -5 -4 -4 -4 -3 -2 -2 -2 -1 -1 -1 -1 -2 -3 -5 -4 -5 -11 -18 -12 -17 -17 -16
-9 -9 -9 -10 -10 -9 -10 -10 -9 -10 -9 -8 -7 -7 -6 -5 -5 -5 -4 -4 -4 -3 -2 -2 -2 -2 -2 -2 -4 -8 -8 -11 -14 -19 -19 -18 -16 -15
-10 -10 -10 -10 -10 -10 -10 -10 -10 -10 -10 -9 -8 -7 -6 -6 -6 -5 -5 -5 -5 -4 -3 -3 -3 -3 -3 -3 -4 -14 -16 -15 -15 -16 -15 -19 -16 -13
-11 -11 -11 -11 -11 -11 -10 -10 -10 -10 -10 -9 -8 -8 -7 -6 -6 -5 -5 -6 -5 -5 -5 -4 -4 -4 -4 -4 -4 -6 -16 -17 -15 -13 -12 -13 -14 -13

GFSNE_850_dewp_111.txt.gz
Dewpoint
9 9 10 10 10 10 10 10 10 10 9 9 9 9 9 9 8 6 6 7 7 7 6 5 5 7 8 9 8 9 9 9 9 9 8 6 4 2
8 8 8 9 9 8 9 10 10 10 10 10 9 9 9 8 8 7 6 7 8 8 7 6 5 6 8 9 8 8 9 9 7 9 8 6 4 1
1 4 4 5 7 8 8 8 9 10 10 9 9 8 9 9 9 8 8 8 8 7 7 7 6 7 8 9 9 8 8 8 7 8 7 4 3 1
-6 -5 -8 -1 3 2 5 8 8 8 8 9 8 9 9 9 9 8 8 8 7 7 6 6 6 8 9 9 8 8 7 6 8 7 5 3 1 1
-16 -16 -16 -16 -14 -10 -6 2 5 6 7 8 8 9 8 9 9 8 8 7 7 7 7 7 7 8 9 9 8 8 6 8 7 5 2 2 1 1
-22 -20 -19 -17 -16 -15 -16 -16 -12 -7 -0 3 6 7 8 8 8 7 8 8 8 8 8 8 8 8 8 8 7 7 8 6 4 2 2 2 2 2
-25 -24 -26 -29 -29 -24 -18 -17 -17 -15 -13 -6 -0 4 6 6 7 8 7 8 8 8 8 7 7 7 8 7 6 7 5 4 4 3 2 1 2 1
-22 -24 -26 -26 -22 -26 -15 -9 -13 -14 -12 -2 1 3 3 5 5 6 7 7 7 7 7 7 6 7 7 6 7 5 4 5 3 3 1 2 2 -0
-15 -17 -19 -16 -16 -12 -10 -11 -14 -8 -7 -3 -1 0 1 2 3 5 5 6 6 7 7 6 6 6 6 6 5 5 5 4 4 3 1 1 1 0
-8 -9 -10 -10 -11 -6 -9 -11 -13 -12 -10 -11 -6 -3 -1 0 2 3 4 4 5 6 6 5 6 6 6 6 6 6 5 5 4 3 0 0 0 0
-7 -7 -7 -7 -7 -12 -12 -12 -11 -11 -13 -14 -13 -7 -3 -3 -2 1 3 3 4 5 5 5 5 6 6 6 6 6 5 5 4 3 1 -0 0 0
-8 -8 -8 -7 -6 -7 -7 -6 -6 -8 -12 -16 -16 -21 -20 -19 -16 -7 0 1 3 4 4 4 5 5 4 5 5 5 4 4 4 4 1 -0 -0 0
-8 -8 -8 -8 -6 -7 -7 -7 -7 -7 -7 -7 -9 -18 -17 -10 -15 -8 -8 -0 1 3 4 4 5 4 4 4 4 3 3 3 2 3 1 -0 0 0
-7 -8 -8 -8 -8 -6 -6 -6 -7 -7 -8 -8 -7 -6 -5 -6 -6 -3 -5 -6 -2 1 3 4 4 4 4 3 4 4 2 3 3 3 0 -0 0 -0
-8 -8 -8 -8 -9 -10 -9 -8 -8 -9 -8 -9 -9 -9 -7 -6 -5 -6 -4 -2 -1 -1 1 2 3 4 4 3 4 4 3 2 2 2 0 -0 -0 -1
-8 -7 -7 -7 -8 -7 -7 -9 -10 -9 -8 -8 -9 -8 -9 -7 -7 -6 -5 -3 -2 -1 0 0 2 3 3 3 4 3 3 2 1 1 1 0 -0 -1
-7 -8 -8 -9 -9 -8 -8 -10 -10 -10 -9 -10 -10 -10 -9 -9 -6 -5 -5 -4 -3 -2 -1 -0 1 1 2 2 2 2 2 1 2 2 1 0 -0 -2
-9 -9 -10 -9 -9 -8 -10 -10 -10 -9 -9 -9 -10 -9 -8 -6 -6 -5 -5 -4 -4 -3 -2 -1 -1 -0 -1 -1 -0 1 1 2 1 1 0 0 -1 -3
-9 -9 -8 -8 -8 -9 -10 -10 -10 -10 -10 -10 -10 -9 -8 -7 -6 -6 -5 -5 -4 -4 -4 -3 -2 -1 -2 -3 -2 -1 0 1 0 0 -1 -1 -1 -4
-9 -9 -9 -9 -9 -10 -10 -10 -10 -10 -10 -10 -10 -9 -9 -8 -7 -6 -6 -5 -5 -5 -4 -3 -3 -2 -2 -3 -3 -2 -2 -0 -1 -1 -3 -3 -2 -9
-10 -10 -10 -10 -10 -11 -10 -10 -10 -10 -10 -10 -10 -10 -9 -8 -7 -6 -6 -6 -5 -5 -4 -4 -4 -3 -3 -2 -2 -4 -4 -4 -2 -2 -4 -3 -5 -12
-11 -11 -11 -11 -11 -11 -11 -11 -11 -11 -11 -11 -10 -10 -9 -8 -8 -7 -6 -6 -6 -5 -5 -5 -4 -4 -3 -2 -2 -3 -5 -6 -5 -4 -7 -7 -7 -15
-11 -12 -12 -12 -12 -11 -11 -11 -11 -10 -10 -10 -11 -10 -9 -9 -8 -7 -6 -6 -6 -6 -6 -5 -5 -5 -4 -3 -2 -4 -6 -7 -6 -7 -8 -8 -11 -17

GFSNE_850_dewp_114.txt.gz
Dewpoint
8 8 8 9 9 9 9 9 9 9 10 10 9 9 9 9 9 8 8 7 6 6 7 7 8 8 7 6 4 6 4 6 9 10 10 9 8 8
2 3 4 5 7 7 7 8 8 8 9 9 10 9 10 9 9 9 9 8 7 6 8 8 7 7 7 6 6 6 7 7 9 10 9 9 8 8
-7 -10 -4 -6 -1 -2 3 4 5 6 5 7 8 9 10 10 10 10 9 9 8 8 8 7 8 8 7 7 6 6 7 8 8 9 10 9 7 7
-4 -1 -5 -13 -12 -4 -4 -12 0 3 2 4 7 7 7 9 9 9 9 9 9 8 8 9 8 7 7 7 6 6 7 8 8 9 9 8 6 7
-24 -18 -15 -12 -14 -16 -16 -12 -14 -10 -10 -3 2 5 5 7 8 9 9 9 9 9 9 9 9 8 8 8 7 8 8 9 9 9 9 7 7 7
-23 -18 -17 -13 -17 -22 -22 -19 -17 -16 -15 -14 -11 -7 -1 3 6 6 7 8 7 8 8 8 8 8 8 8 8 8 8 8 9 9 7 7 7 3
-22 -19 -18 -20 -20 -17 -12 -6 -6 -12 -14 -14 -13 -9 -4 1 3 4 5 6 7 7 7 7 7 8 8 8 8 8 8 8 8 8 7 7 4 2
-21 -19 -18 -18 -14 -11 -10 -11 -8 -6 -4 -4 -6 -3 -3 -1 1 2 3 4 5 6 6 7 6 7 7 7 7 7 8 8 7 7 6 4 3 2
-14 -13 -11 -10 -8 -9 -8 -10 -14 -16 -12 -6 -5 -5 -5 -5 -2 -1 1 2 2 3 4 5 5 6 7 7 7 7 7 7 7 7 5 4 3 2
-12 -9 -8 -8 -8 -8 -8 -11 -13 -14 -12 -13 -12 -12 -12 -13 -12 -5 -2 -0 1 2 3 4 5 5 6 6 6 7 7 7 6 6 5 5 3 1
-8 -7 -8 -8 -7 -7 -7 -9 -9 -12 -13 -12 -12 -12 -15 -18 -17 -15 -16 -8 -3 -0 2 3 3 4 5 5 6 6 6 6 6 5 5 5 3 1
-7 -8 -10 -8 -7 -6 -7 -7 -7 -8 -8 -8 -14 -17 -16 -15 -13 -14 -9 -5 -4 -3 -0 2 3 4 4 5 5 6 6 6 5 5 5 5 4 1
-7 -7 -9 -7 -7 -7 -7 -7 -7 -7 -7 -9 -10 -10 -13 -11 -10 -5 -4 -6 -4 -3 -2 0 1 2 4 4 4 5 5 5 5 5 4 5 4 2
-7 -7 -8 -8 -7 -7 -7 -8 -7 -6 -7 -10 -9 -9 -9 -9 -8 -10 -8 -5 -6 -6 -4 -2 -1 1 2 3 4 4 4 4 4 4 4 4 3 2
-8 -8 -7 -7 -7 -7 -9 -8 -7 -7 -10 -10 -9 -10 -10 -10 -10 -10 -12 -12 -9 -8 -8 -4 -2 -1 0 2 3 3 3 2 2 3 3 3 3 3
-9 -9 -9 -9 -8 -10 -10 -11 -9 -10 -10 -10 -10 -10 -10 -10 -10 -9 -7 -6 -6 -7 -6 -6 -4 -1 -0 -0 2 3 3 2 2 2 2 2 2 2
-8 -8 -9 -10 -10 -11 -10 -9 -10 -11 -11 -11 -10 -10 -10 -10 -11 -10 -8 -7 -6 -5 -6 -5 -4 -2 -1 -1 0 1 2 3 2 3 1 1 1 2
-9 -9 -9 -9 -10 -9 -8 -9 -9 -9 -11 -11 -10 -10 -10 -10 -11 -10 -8 -7 -7 -6 -5 -5 -4 -3 -2 -1 -1 -0 1 2 2 1 1 -0 0 0
-10 -9 -8 -9 -9 -9 -9 -9 -9 -11 -11 -11 -11 -10 -10 -11 -10 -10 -9 -8 -7 -6 -5 -5 -5 -4 -3 -3 -2 -1 -0 0 0 -0 0 -0 0 0
-11 -11 -11 -12 -11 -11 -11 -11 -11 -11 -11 -11 -11 -11 -11 -11 -10 -10 -8 -8 -7 -6 -6 -6 -5 -5 -4 -3 -2 -2 -1 -1 -0 -0 -2 -2 -1 -0
-11 -11 -12 -12 -12 -12 -12 -12 -12 -12 -11 -11 -11 -11 -11 -11 -10 -9 -9 -8 -7 -6 -6 -6 -6 -5 -5 -4 -3 -3 -2 -3 -1 -0 -2 -2 -2 -2
-12 -12 -11 -11 -11 -12 -12 -12 -12 -12 -12 -12 -11 -10 -10 -11 -10 -9 -9 -8 -7 -7 -6 -6 -5 -5 -5 -5 -4 -3 -4 -4 -4 -3 -3 -2 -2 -4
-12 -12 -12 -12 -12 -12 -12 -12 -12 -12 -12 -11 -11 -10 -10 -10 -10 -10 -9 -8 -7 -7 -6 -6 -6 -6 -6 -5 -4 -4 -5 -5 -5 -5 -5 -4 -3 -2

GFSNE_850_dewp_117.txt.gz
Dewpoint
6 6 7 7 7 7 6 6 6 6 7 9 10 10 10 10 9 9 9 8 9 9 8 8 7 7 6 7 8 8 7 7 7 7 7 6 10 10
-4 -5 -4 -4 2 2 2 1 1 4 4 6 7 8 8 8 9 9 10 9 9 9 9 8 8 8 7 7 8 8 8 7 7 8 8 8 8 9
-5 -1 -0 -1 -3 -7 -8 -3 -2 -4 -2 2 4 4 6 7 8 9 9 9 9 9 9 8 8 7 7 8 8 9 8 7 8 8 7 9 8 10
-24 -21 -20 -15 -6 -2 0 -2 -14 -7 -4 -3 -1 -4 -3 2 6 7 8 9 9 10 10 9 9 8 7 8 8 8 8 8 7 8 8 8 9 9
-24 -23 -21 -21 -22 -19 -18 -11 -5 -11 -15 -14 -11 -12 -11 -8 -0 5 6 7 8 8 9 9 9 8 8 8 9 8 8 8 8 7 8 9 9 9
-23 -20 -19 -17 -17 -18 -15 -12 -8 -10 -12 -13 -14 -15 -15 -12 -6 -2 4 6 6 7 7 8 8 8 9 9 9 8 9 8 8 8 9 8 9 9
-20 -19 -18 -16 -15 -12 -9 -9 -10 -10 -11 -11 -9 -11 -12 -11 -6 -2 0 1 3 5 6 7 7 7 8 8 7 7 7 8 8 8 8 8 9 9
-19 -15 -11 -9 -8 -8 -8 -9 -10 -12 -14 -9 -8 -9 -10 -11 -12 -10 -8 -3 -1 -0 4 5 5 6 7 6 7 7 7 8 8 8 8 8 9 8
-14 -13 -11 -9 -8 -7 -7 -8 -9 -12 -12 -11 -11 -13 -13 -15 -12 -13 -14 -12 -10 -6 0 2 3 4 5 5 5 6 6 7 7 8 8 8 7 7
-13 -12 -10 -9 -8 -7 -7 -8 -9 -11 -9 -9 -10 -11 -11 -14 -14 -12 -12 -14 -14 -18 -18 -3 -1 2 3 4 5 6 6 7 7 7 7 7 7 6
-9 -9 -10 -11 -11 -8 -6 -6 -8 -9 -9 -9 -8 -10 -11 -12 -13 -9 -12 -8 -6 -7 -12 -5 -6 0 1 2 4 5 6 6 6 6 6 7 6 6
-9 -8 -8 -9 -10 -6 -6 -6 -7 -8 -9 -7 -8 -12 -14 -14 -13 -10 -8 -6 -5 -5 -5 -2 -2 -0 1 -1 1 4 5 5 5 6 6 6 6 5
-7 -7 -7 -8 -7 -7 -7 -6 -6 -8 -7 -6 -7 -11 -14 -14 -14 -12 -10 -9 -8 -7 -6 -6 -5 -3 -2 -1 1 3 4 5 5 5 5 6 6 5
-8 -8 -9 -9 -7 -7 -7 -6 -6 -7 -6 -7 -8 -12 -12 -12 -12 -12 -12 -12 -12 -11 -13 -9 -7 -7 -4 -2 -1 1 2 3 4 4 4 5 5 5
-9 -9 -8 -8 -8 -8 -10 -10 -8 -8 -9 -8 -10 -10 -11 -11 -11 -11 -11 -13 -12 -9 -7 -7 -6 -7 -7 -6 -3 -2 0 2 3 3 3 4 4 4
-10 -10 -9 -8 -9 -11 -11 -12 -11 -10 -8 -8 -9 -11 -11 -11 -11 -10 -10 -12 -11 -10 -9 -8 -6 -5 -5 -7 -6 -3 -1 0 1 3 3 3 3 3
-9 -9 -9 -9 -10 -11 -11 -11 -10 -9 -8 -9 -10 -11 -11 -11 -11 -10 -11 -11 -9 -8 -9 -8 -7 -6 -5 -5 -5 -4 -2 -1 0 2 2 2 2 2
-9 -9 -11 -10 -9 -9 -8 -9 -9 -9 -9 -10 -11 -10 -11 -11 -10 -11 -11 -11 -11 -10 -9 -8 -7 -6 -5 -6 -5 -4 -3 -2 -0 0 1 2 1 1
-12 -13 -12 -11 -11 -11 -12 -12 -12 -12 -12 -12 -12 -12 -12 -11 -11 -12 -11 -11 -10 -9 -8 -8 -7 -6 -6 -5 -6 -6 -3 -2 -1 -0 0 1 1 1
-13 -13 -13 -12 -12 -12 -12 -11 -12 -13 -13 -13 -13 -12 -11 -12 -12 -11 -11 -11 -10 -9 -8 -8 -7 -6 -5 -5 -5 -4 -4 -2 -2 -1 -1 -1 -0 0
-12 -12 -12 -12 -12 -12 -12 -12 -12 -12 -12 -11 -11 -12 -13 -12 -11 -11 -11 -10 -9 -9 -9 -8 -7 -6 -6 -6 -5 -5 -5 -3 -2 -2 -1 -1 -2 -2
-11 -11 -11 -11 -11 -11 -11 -11 -11 -12 -12 -12 -12 -12 -12 -11 -11 -10 -10 -10 -10 -9 -8 -8 -7 -6 -6 -6 -6 -5 -5 -4 -3 -3 -2 -1 -2 -4
-10 -10 -10 -10 -10 -10 -10 -11 -11 -11 -11 -11 -11 -11 -11 -11 -11 -11 -10 -10 -10 -9 -8 -7 -7 -6 -6 -6 -6 -6 -5 -5 -3 -4 -4 -4 -3 -2

GFSNE_850_dewp_120.txt.gz
Dewpoint
5 5 5 6 5 5 6 6 5 5 6 7 9 9 9 9 9 9 9 9 9 8 9 8 8 8 8 7 8 7 8 8 8 9 9 9 8 8
-1 -2 -4 -5 -3 -2 -3 -3 1 2 2 4 6 5 5 6 7 8 8 8 8 9 9 9 9 9 10 9 7 7 8 8 8 9 8 8 7 8
-15 -13 -10 -7 -2 -1 -1 -1 -4 -6 -7 -6 -4 -1 2 2 2 4 5 7 8 9 9 9 9 10 10 9 8 8 8 8 9 9 8 8 7 8
-25 -25 -25 -23 -21 -20 -19 -17 -11 -4 -1 -1 0 -2 -9 -13 -2 -4 -4 5 6 7 8 9 8 9 9 10 9 8 9 9 8 8 9 8 8 8
-24 -21 -20 -18 -17 -18 -17 -18 -18 -13 -11 -11 -10 -9 -13 -19 -19 -14 -12 -7 3 6 7 7 8 8 9 9 9 9 8 8 8 8 9 9 8 8
-23 -21 -20 -18 -17 -16 -16 -15 -14 -14 -15 -15 -15 -17 -17 -18 -18 -19 -22 -16 -10 -2 5 6 7 7 8 8 8 9 9 8 9 9 8 8 8 8
-18 -17 -15 -13 -11 -10 -10 -10 -11 -11 -13 -14 -16 -16 -16 -18 -18 -19 -20 -23 -26 -18 -8 2 5 6 7 7 8 8 8 9 9 9 8 8 8 8
-17 -15 -12 -9 -8 -8 -8 -8 -9 -9 -12 -13 -13 -13 -15 -15 -15 -15 -16 -19 -18 -28 -25 -19 -8 3 6 6 6 7 7 8 7 7 7 7 8 8
-13 -14 -13 -11 -9 -9 -8 -7 -7 -8 -9 -9 -9 -10 -10 -11 -12 -13 -14 -14 -14 -22 -22 -22 -29 -24 -5 2 4 5 6 7 7 7 7 7 8 8
-11 -11 -11 -11 -12 -11 -8 -6 -6 -7 -9 -9 -9 -9 -8 -11 -12 -10 -11 -9 -12 -15 -14 -8 -21 -23 -27 -18 -9 2 4 6 6 6 7 7 8 7
-12 -10 -10 -9 -10 -8 -7 -6 -6 -8 -9 -9 -10 -8 -8 -11 -13 -11 -12 -10 -10 -9 -17 -5 -4 -3 -7 -16 -23 -14 1 5 6 7 7 7 7 7
-12 -9 -8 -8 -7 -7 -7 -7 -7 -9 -8 -9 -9 -10 -8 -10 -13 -12 -11 -10 -9 -8 -10 -9 -8 -8 -6 -7 -6 -1 -5 0 4 5 6 6 6 6
-8 -9 -9 -10 -8 -7 -7 -6 -6 -7 -6 -6 -7 -8 -9 -10 -12 -13 -12 -11 -10 -11 -13 -11 -11 -13 -12 -8 -13 -6 -0 2 3 3 4 5 6 6
-8 -9 -10 -9 -8 -8 -8 -8 -7 -7 -7 -7 -7 -10 -9 -11 -13 -13 -12 -11 -11 -11 -13 -13 -8 -8 -7 -6 -6 -18 -15 -3 1 1 2 3 4 5
-9 -9 -8 -10 -9 -9 -10 -9 -8 -9 -10 -10 -10 -8 -9 -11 -12 -13 -12 -12 -12 -13 -13 -13 -8 -8 -7 -7 -7 -6 -7 -21 -7 -0 1 2 3 3
-10 -10 -10 -9 -9 -10 -11 -11 -11 -11 -9 -8 -8 -8 -9 -10 -12 -13 -13 -13 -11 -15 -15 -13 -11 -8 -8 -7 -7 -6 -5 -5 -11 -3 -0 1 1 2
-9 -9 -10 -11 -13 -12 -11 -10 -9 -9 -9 -9 -8 -9 -10 -11 -11 -13 -12 -11 -11 -13 -15 -14 -13 -11 -8 -7 -7 -7 -6 -5 -4 -8 -2 -1 1 1
-9 -11 -13 -13 -13 -12 -11 -11 -12 -12 -12 -12 -12 -12 -12 -12 -12 -12 -11 -11 -12 -12 -11 -12 -9 -9 -9 -8 -7 -7 -6 -6 -6 -4 -6 -2 -1 0
-13 -13 -13 -13 -13 -13 -13 -13 -12 -12 -12 -12 -12 -13 -13 -12 -11 -11 -12 -12 -12 -11 -11 -10 -9 -9 -8 -7 -9 -7 -6 -5 -5 -5 -3 -3 -1 -0
-12 -12 -12 -12 -12 -12 -12 -11 -12 -12 -12 -12 -12 -12 -11 -11 -12 -12 -12 -12 -11 -11 -11 -11 -10 -10 -8 -8 -7 -8 -6 -6 -5 -4 -4 -4 -2 -1
-11 -11 -11 -11 -11 -11 -11 -11 -11 -11 -11 -11 -11 -12 -12 -12 -12 -12 -11 -11 -11 -11 -11 -11 -10 -9 -8 -7 -7 -7 -7 -5 -6 -4 -4 -2 -3 -2
-10 -10 -10 -10 -10 -10 -10 -10 -10 -10 -11 -11 -11 -11 -11 -11 -11 -11 -11 -11 -11 -11 -11 -11 -10 -9 -8 -7 -7 -7 -6 -6 -6 -6 -4 -3 -3 -3
-10 -10 -10 -9 -9 -9 -9 -9 -9 -10 -10 -10 -10 -10 -11 -11 -11 -11 -11 -11 -11 -11 -11 -11 -9 -8 -8 -7 -7 -7 -7 -6 -6 -6 -5 -3 -3 -3

GFSNE_850_dewp_123.txt.gz
Dewpoint
4 4 4 4 5 6 6 6 6 6 7 7 8 8 9 8 8 8 8 8 8 9 9 9 9 9 9 8 8 9 8 7 7 7 7 9 10 9
0 1 -1 -2 -3 -4 -4 -2 -2 1 2 4 4 5 6 5 5 4 6 7 6 7 7 8 8 9 9 9 8 9 9 8 7 7 7 8 10 10
-20 -18 -17 -15 -13 -10 -6 -3 -1 -2 -3 -2 -1 -1 -2 -1 -1 -1 -1 1 1 2 6 7 8 9 9 9 9 9 10 10 9 8 7 8 10 10
-22 -20 -18 -18 -18 -19 -19 -20 -20 -17 -12 -10 -11 -13 -11 -7 -3 -2 -2 -7 -6 -4 -1 6 7 7 8 9 9 10 10 10 9 9 8 8 8 9
-23 -23 -21 -19 -18 -17 -17 -16 -15 -14 -12 -12 -14 -18 -21 -21 -23 -22 -20 -19 -21 -17 -9 -5 5 6 7 8 8 9 10 9 10 9 8 8 8 9
-20 -19 -18 -17 -17 -15 -15 -14 -13 -13 -13 -14 -15 -18 -19 -20 -21 -22 -27 -26 -25 -27 -26 -17 -8 4 6 6 7 8 8 9 9 9 9 8 9 9
-16 -16 -14 -11 -10 -9 -7 -9 -9 -11 -12 -13 -13 -14 -16 -17 -17 -17 -19 -21 -24 -25 -23 -25 -23 -16 1 5 6 6 7 7 8 8 9 9 9 9
-14 -14 -13 -11 -10 -9 -9 -8 -8 -8 -9 -10 -11 -10 -11 -10 -11 -12 -14 -16 -18 -23 -21 -24 -25 -27 -26 -15 3 5 5 5 7 8 7 9 8 9
-12 -12 -13 -12 -12 -13 -11 -9 -6 -6 -6 -7 -9 -9 -10 -9 -9 -12 -14 -12 -13 -17 -15 -18 -22 -20 -20 -21 -22 -9 5 5 6 7 7 8 8 8
-13 -14 -13 -12 -11 -10 -8 -10 -8 -7 -6 -7 -9 -9 -10 -9 -7 -10 -12 -12 -13 -16 -15 -10 -16 -13 -18 -19 -14 -14 -15 3 5 5 6 7 7 7
-13 -13 -11 -10 -10 -8 -7 -8 -7 -7 -8 -8 -8 -7 -9 -9 -8 -8 -11 -13 -12 -14 -17 -6 -11 -16 -20 -24 -21 -14 -3 -7 -3 3 5 6 6 7
-13 -12 -11 -11 -9 -7 -7 -7 -8 -8 -7 -8 -8 -7 -8 -9 -8 -7 -11 -11 -11 -9 -15 -11 -13 -13 -10 -20 -15 -4 -4 -2 -5 -2 4 6 6 7
-10 -10 -10 -11 -8 -7 -7 -8 -8 -8 -7 -8 -8 -8 -8 -8 -10 -9 -11 -12 -11 -10 -14 -10 -11 -13 -10 -8 -17 -23 -23 -23 -7 -0 3 5 5 5
-9 -9 -10 -8 -8 -8 -8 -8 -8 -8 -9 -9 -9 -10 -10 -10 -10 -10 -11 -12 -13 -12 -13 -13 -11 -13 -12 -9 -8 -16 -18 -21 -20 -13 -2 2 2 3
-8 -10 -8 -8 -8 -9 -11 -9 -9 -10 -11 -11 -11 -11 -10 -9 -8 -10 -11 -12 -13 -14 -15 -15 -14 -13 -10 -8 -8 -9 -9 -18 -19 -21 -18 -4 1 1
-10 -9 -9 -10 -11 -12 -14 -14 -12 -10 -9 -9 -9 -10 -9 -9 -9 -10 -11 -13 -13 -15 -16 -15 -15 -13 -13 -8 -8 -9 -10 -9 -13 -20 -18 -12 -2 -0
-8 -9 -11 -12 -14 -14 -14 -13 -13 -12 -12 -11 -10 -10 -11 -11 -11 -12 -12 -13 -12 -13 -15 -15 -15 -13 -12 -10 -9 -9 -11 -10 -11 -12 -12 -17 -13 -1
-9 -11 -13 -12 -12 -13 -13 -13 -13 -13 -13 -13 -13 -12 -13 -13 -13 -13 -13 -12 -11 -12 -13 -14 -13 -11 -10 -11 -10 -10 -9 -9 -10 -8 -7 -6 -11 -9
-12 -12 -12 -12 -12 -11 -11 -11 -11 -12 -12 -11 -11 -12 -12 -12 -12 -12 -12 -12 -12 -12 -12 -13 -12 -11 -10 -10 -11 -10 -9 -9 -9 -7 -6 -6 -5 -6
-12 -12 -11 -11 -11 -11 -11 -10 -10 -10 -10 -11 -11 -11 -11 -11 -12 -12 -12 -12 -12 -11 -11 -12 -11 -11 -11 -10 -9 -10 -10 -9 -7 -7 -6 -6 -5 -5
-11 -11 -11 -10 -10 -10 -10 -10 -10 -10 -10 -10 -10 -10 -11 -11 -11 -12 -12 -12 -12 -11 -11 -11 -12 -12 -10 -10 -10 -10 -10 -9 -8 -7 -7 -6 -5 -5
-11 -10 -10 -10 -9 -9 -9 -9 -9 -9 -9 -10 -10 -10 -10 -10 -11 -11 -11 -11 -11 -12 -12 -12 -12 -12 -11 -10 -9 -9 -9 -9 -7 -7 -6 -6 -5 -4
-10 -10 -9 -9 -9 -9 -9 -9 -9 -9 -9 -9 -9 -9 -10 -10 -10 -11 -11 -11 -11 -12 -12 -11 -11 -11 -9 -9 -9 -8 -8 -8 -7 -7 -7 -6 -6 -5

GFSNE_850_dewp_126.txt.gz
Dewpoint
1 2 3 3 4 4 4 4 4 5 6 7 7 7 7 7 6 7 7 7 7 8 8 8 8 8 9 9 9 8 8 8 9 9 8 7 7 8
-15 -8 -4 -1 1 1 1 0 -1 1 3 4 5 5 4 3 3 4 1 3 6 4 5 6 7 7 7 8 8 9 9 8 8 8 8 8 8 8
-23 -24 -22 -20 -19 -18 -16 -15 -11 -5 -2 -2 -1 -0 0 0 0 0 0 -1 -2 -4 -1 1 1 5 6 7 7 8 9 9 9 9 9 8 8 8
-24 -23 -23 -24 -23 -22 -20 -18 -17 -16 -14 -15 -18 -20 -21 -23 -24 -25 -23 -17 -6 -4 -6 -9 -2 -1 5 6 7 7 8 9 9 9 9 9 9 9
-21 -22 -22 -21 -20 -19 -17 -16 -15 -15 -15 -15 -17 -18 -20 -21 -23 -23 -24 -25 -24 -25 -21 -20 -16 -10 -6 3 6 6 7 8 8 9 10 10 10 9
-18 -18 -18 -17 -17 -16 -14 -11 -11 -11 -12 -12 -14 -15 -16 -18 -18 -19 -22 -22 -24 -24 -24 -23 -23 -22 -19 -8 3 6 6 7 7 8 9 9 9 10
-13 -14 -14 -14 -12 -11 -11 -11 -10 -9 -10 -10 -11 -12 -14 -14 -14 -13 -14 -17 -20 -21 -21 -22 -24 -25 -26 -26 -23 -5 4 5 6 7 8 9 9 9
-12 -12 -12 -12 -13 -13 -12 -11 -6 -6 -7 -6 -6 -8 -10 -10 -11 -9 -9 -12 -14 -18 -17 -22 -21 -23 -24 -25 -23 -22 -21 -1 5 5 6 7 8 8
-13 -13 -14 -13 -12 -11 -11 -11 -10 -8 -6 -6 -6 -7 -8 -9 -9 -6 -8 -9 -11 -14 -15 -17 -19 -19 -21 -23 -23 -20 -10 -16 -9 5 5 5 5 7
-14 -14 -14 -14 -13 -11 -9 -8 -9 -8 -8 -7 -7 -7 -8 -8 -6 -6 -8 -7 -9 -12 -14 -14 -17 -17 -20 -22 -22 -19 -12 -5 -4 -9 -0 5 5 6
-14 -13 -12 -12 -12 -11 -8 -9 -9 -10 -9 -7 -7 -7 -7 -7 -6 -7 -8 -8 -10 -12 -13 -11 -13 -15 -18 -22 -21 -19 -16 -12 -10 -7 -6 -4 4 5
-12 -11 -11 -10 -10 -8 -7 -7 -8 -8 -9 -9 -7 -8 -8 -7 -7 -7 -8 -8 -10 -11 -13 -12 -14 -13 -12 -18 -20 -21 -22 -22 -24 -21 -5 -3 0 4
-8 -9 -10 -10 -8 -7 -7 -8 -8 -8 -7 -8 -8 -9 -10 -10 -11 -10 -8 -8 -9 -11 -12 -12 -10 -14 -11 -12 -16 -20 -20 -21 -22 -24 -24 -3 0 3
-8 -8 -9 -8 -8 -8 -8 -8 -8 -8 -9 -9 -10 -11 -11 -13 -12 -11 -10 -8 -9 -11 -12 -13 -13 -13 -12 -12 -10 -18 -19 -20 -20 -22 -24 -23 -1 2
-8 -8 -8 -8 -8 -9 -12 -14 -12 -13 -13 -12 -11 -11 -11 -11 -10 -10 -9 -8 -9 -11 -12 -14 -14 -13 -12 -12 -12 -15 -16 -19 -18 -18 -19 -18 -16 -2
-9 -9 -9 -9 -11 -13 -13 -14 -14 -13 -13 -11 -11 -11 -10 -10 -10 -11 -10 -11 -12 -13 -13 -14 -14 -13 -13 -13 -12 -14 -17 -11 -18 -17 -15 -16 -20 -16
-8 -9 -10 -11 -13 -13 -13 -13 -13 -13 -13 -13 -13 -13 -13 -13 -13 -13 -13 -13 -13 -14 -15 -15 -14 -13 -13 -13 -11 -12 -15 -13 -13 -12 -11 -11 -16 -20
-9 -10 -12 -12 -12 -12 -12 -11 -11 -11 -11 -11 -11 -11 -11 -11 -12 -12 -12 -12 -12 -12 -12 -13 -13 -13 -13 -14 -13 -13 -11 -11 -11 -10 -8 -8 -11 -15
-10 -12 -12 -11 -11 -11 -11 -10 -10 -10 -10 -10 -10 -10 -10 -11 -11 -11 -12 -12 -12 -12 -12 -12 -12 -11 -12 -12 -12 -12 -11 -10 -8 -9 -9 -7 -7 -10
-12 -12 -11 -11 -10 -10 -10 -10 -10 -10 -10 -10 -10 -10 -10 -10 -10 -11 -11 -11 -12 -12 -12 -12 -12 -12 -11 -11 -11 -11 -11 -11 -11 -10 -9 -9 -8 -9
-11 -11 -10 -10 -10 -10 -9 -9 -9 -9 -9 -10 -10 -10 -10 -10 -10 -10 -11 -11 -11 -12 -12 -12 -12 -12 -11 -12 -11 -11 -12 -11 -10 -9 -9 -8 -7 -7
-11 -11 -10 -10 -10 -9 -9 -9 -9 -9 -9 -9 -9 -9 -9 -9 -9 -10 -10 -10 -11 -11 -11 -12 -12 -12 -12 -12 -11 -12 -11 -10 -10 -9 -9 -7 -7 -7
-11 -10 -10 -10 -9 -9 -9 -9 -9 -9 -9 -9 -9 -9 -9 -9 -9 -10 -10 -10 -11 -11 -11 -12 -12 -11 -11 -11 -10 -10 -10 -10 -9 -9 -9 -8 -7 -7

GFSNE_850_dewp_129.txt.gz
Dewpoint
-14 -14 -7 -2 0 1 1 1 3 3 5 5 5 5 5 4 2 2 -0 4 6 6 7 7 8 8 8 7 8 8 8 9 8 8 8 9 9 8
-24 -23 -21 -20 -17 -16 -13 -6 -1 1 2 3 3 4 4 3 2 1 1 -0 1 1 4 5 5 6 6 6 6 6 7 8 9 9 8 8 8 9
-23 -23 -22 -22 -22 -21 -21 -20 -19 -17 -11 -7 -6 -1 -1 -0 -4 -10 -12 -15 -7 -4 -2 -2 2 2 1 2 4 6 6 7 8 8 9 8 8 8
-21 -21 -20 -19 -18 -18 -16 -16 -17 -17 -17 -19 -19 -21 -20 -21 -22 -23 -24 -25 -27 -27 -26 -18 -7 -3 -4 -4 -1 2 6 6 7 8 9 9 9 8
-19 -19 -19 -17 -16 -14 -13 -12 -13 -13 -14 -16 -17 -17 -17 -18 -19 -20 -21 -21 -22 -24 -24 -25 -23 -20 -18 -15 -10 -4 0 5 6 7 7 8 9 9
-17 -17 -17 -16 -15 -14 -13 -13 -11 -11 -12 -13 -14 -14 -15 -16 -17 -18 -20 -20 -21 -21 -22 -22 -22 -24 -24 -24 -25 -20 -11 1 5 6 6 7 7 8
-14 -15 -15 -15 -14 -13 -11 -11 -10 -8 -8 -8 -9 -10 -11 -13 -13 -13 -13 -14 -17 -18 -20 -20 -21 -23 -24 -24 -24 -24 -23 -22 -8 3 5 6 6 7
-14 -15 -15 -15 -15 -15 -14 -12 -9 -5 -5 -5 -6 -7 -7 -8 -9 -9 -9 -8 -9 -12 -12 -18 -18 -20 -21 -22 -23 -24 -24 -21 -22 -20 -2 5 5 5
-15 -15 -15 -14 -14 -13 -12 -11 -11 -10 -8 -6 -6 -6 -7 -8 -8 -7 -7 -7 -9 -11 -11 -14 -16 -18 -19 -21 -21 -22 -22 -22 -16 -14 -12 -10 3 5
-14 -14 -14 -13 -13 -12 -10 -9 -9 -9 -10 -9 -8 -7 -7 -8 -7 -6 -6 -6 -8 -10 -11 -11 -15 -16 -19 -20 -20 -21 -21 -15 -11 -15 -15 -11 -11 -1
-14 -13 -12 -11 -11 -8 -7 -7 -7 -8 -8 -9 -9 -9 -8 -8 -7 -6 -6 -7 -7 -8 -10 -11 -12 -13 -16 -19 -20 -16 -18 -21 -22 -22 -22 -18 -15 -12
-12 -11 -10 -10 -9 -8 -7 -7 -8 -8 -8 -8 -8 -8 -8 -9 -9 -9 -9 -8 -8 -8 -10 -10 -10 -12 -11 -15 -18 -20 -20 -21 -22 -21 -22 -23 -23 -17
-8 -8 -9 -9 -8 -8 -8 -8 -8 -8 -8 -8 -9 -10 -11 -11 -11 -11 -12 -11 -9 -8 -10 -9 -10 -11 -10 -10 -15 -18 -19 -21 -22 -22 -22 -22 -23 -21
-8 -8 -8 -8 -8 -8 -8 -10 -13 -11 -11 -12 -13 -14 -13 -13 -13 -12 -11 -9 -9 -9 -9 -9 -10 -11 -12 -13 -12 -17 -19 -20 -21 -21 -21 -19 -17 -18
-8 -9 -8 -8 -8 -9 -12 -13 -13 -14 -14 -14 -14 -14 -13 -13 -13 -13 -11 -10 -10 -10 -9 -10 -11 -12 -13 -13 -13 -16 -16 -19 -20 -19 -18 -18 -18 -18
-9 -9 -8 -8 -10 -11 -13 -13 -13 -12 -12 -12 -12 -13 -13 -13 -14 -14 -13 -13 -13 -14 -14 -14 -14 -14 -13 -13 -12 -15 -17 -12 -19 -17 -15 -15 -16 -15
-8 -8 -8 -9 -12 -12 -12 -12 -12 -12 -11 -11 -11 -11 -11 -12 -12 -12 -12 -12 -12 -12 -13 -13 -14 -14 -13 -14 -13 -14 -16 -15 -15 -13 -11 -11 -13 -15
-8 -8 -9 -12 -12 -12 -11 -11 -11 -10 -10 -10 -10 -10 -10 -10 -10 -11 -11 -11 -11 -12 -12 -12 -12 -12 -13 -13 -13 -14 -14 -13 -13 -13 -11 -8 -10 -12
-9 -10 -12 -12 -11 -11 -11 -10 -10 -10 -10 -10 -10 -10 -10 -10 -10 -10 -10 -10 -11 -11 -11 -12 -12 -12 -12 -12 -12 -12 -13 -12 -10 -10 -10 -11 -10 -11
-11 -12 -12 -11 -11 -10 -10 -10 -9 -9 -9 -9 -9 -9 -9 -9 -9 -10 -10 -10 -10 -11 -11 -11 -12 -12 -12 -12 -11 -12 -13 -13 -13 -12 -12 -10 -10 -10
-12 -11 -11 -11 -11 -10 -10 -9 -9 -9 -9 -9 -9 -9 -9 -9 -9 -10 -10 -10 -10 -11 -11 -11 -11 -11 -11 -12 -12 -12 -12 -13 -12 -12 -10 -9 -9 -9
-11 -11 -11 -11 -10 -10 -9 -9 -9 -9 -9 -9 -9 -9 -9 -9 -9 -9 -9 -9 -10 -10 -10 -11 -11 -11 -11 -12 -12 -12 -12 -12 -11 -11 -10 -10 -9 -8
-11 -11 -11 -10 -10 -10 -9 -9 -9 -9 -9 -9 -9 -9 -8 -9 -8 -9 -9 -9 -9 -10 -10 -10 -11 -11 -11 -11 -11 -11 -11 -11 -10 -10 -10 -10 -10 -9